[[{"header":{"parameterUnit":"m.s-1","parameterCategory":1,"la1":30.6,"la2":29.2853,"lo1":-89.7004,"lo2":-87.6739,"dx":0.0162,"dy":0.0183,"nx":112,"ny":82,"refTime":"2022-12-19T06:00:00:Z","depth":0,"parameterNumber":2,"parameterNumberName":"U-component_of_WINDS"},"data":[0.0,0.0,0.0,0.0,0.0,0.0,0.0,0.0,0.0,0.0,0.0,0.0,0.0,0.0,0.0,0.0,0.0,0.0,0.0,0.0,0.0,0.0,0.0,0.0,0.0,0.0,0.0,0.0,0.0,0.0,0.0,0.0,0.0,0.0,0.0,0.0,0.0,0.0,0.0,0.0,0.0,0.0,0.0,0.0,0.0,0.0,0.0,0.0,0.0,0.0,0.0,0.0,0.0,0.0,0.0,0.0,0.0,0.0,0.0,0.0,0.0,0.0,0.0,0.0,0.0,0.0,0.0,0.0,0.0,0.0,0.0,0.0,0.0,0.0,0.0,0.0,0.0,0.0,0.0,0.0,0.0,0.0,0.0,0.0,0.0,0.0,0.0,0.0,0.0,0.0,0.0,5.1471,5.1099,5.0578,5.0387,4.9883,4.8128,4.4666,0.0,0.0,0.0,0.0,0.0,0.0,0.0,0.0,0.0,0.0,0.0,0.0,0.0,0.0,0.0,0.0,0.0,0.0,0.0,0.0,0.0,0.0,0.0,0.0,0.0,0.0,0.0,0.0,0.0,0.0,0.0,0.0,0.0,0.0,0.0,0.0,0.0,0.0,0.0,0.0,0.0,0.0,0.0,0.0,0.0,0.0,0.0,0.0,0.0,0.0,0.0,0.0,0.0,0.0,0.0,0.0,0.0,0.0,0.0,0.0,0.0,0.0,0.0,0.0,0.0,0.0,0.0,0.0,0.0,0.0,0.0,0.0,0.0,0.0,0.0,0.0,0.0,0.0,0.0,0.0,0.0,0.0,0.0,0.0,0.0,0.0,0.0,0.0,0.0,0.0,0.0,0.0,0.0,0.0,0.0,0.0,0.0,0.0,0.0,0.0,0.0,0.0,0.0,0.0,4.9573,5.189,5.2504,5.2276,5.1146,5.0948,4.9243,4.5394,0.0,0.0,0.0,0.0,0.0,0.0,0.0,0.0,0.0,0.0,0.0,0.0,0.0,0.0,0.0,0.0,0.0,0.0,0.0,0.0,0.0,0.0,0.0,0.0,0.0,0.0,0.0,0.0,0.0,0.0,0.0,0.0,0.0,0.0,0.0,0.0,0.0,0.0,0.0,0.0,0.0,0.0,0.0,0.0,0.0,0.0,0.0,0.0,0.0,0.0,0.0,0.0,0.0,0.0,0.0,0.0,0.0,0.0,0.0,0.0,0.0,0.0,0.0,0.0,0.0,0.0,0.0,0.0,0.0,0.0,0.0,0.0,0.0,0.0,0.0,0.0,0.0,0.0,0.0,0.0,0.0,0.0,0.0,0.0,0.0,0.0,0.0,0.0,0.0,0.0,0.0,0.0,0.0,0.0,0.0,0.0,0.0,0.0,0.0,0.0,0.0,0.0,0.0,5.0548,5.2029,5.4153,5.4324,5.3905,5.2923,5.2145,5.0212,4.6621,4.5424,0.0,0.0,0.0,0.0,0.0,0.0,0.0,0.0,0.0,0.0,0.0,0.0,0.0,0.0,0.0,0.0,0.0,0.0,0.0,0.0,0.0,0.0,0.0,0.0,0.0,0.0,0.0,0.0,0.0,0.0,0.0,0.0,0.0,0.0,0.0,0.0,0.0,0.0,0.0,0.0,0.0,0.0,0.0,0.0,0.0,0.0,0.0,0.0,0.0,0.0,0.0,0.0,0.0,0.0,0.0,0.0,0.0,0.0,0.0,0.0,0.0,0.0,0.0,0.0,0.0,0.0,0.0,0.0,0.0,0.0,0.0,0.0,0.0,0.0,0.0,0.0,0.0,0.0,0.0,0.0,0.0,0.0,0.0,0.0,0.0,0.0,0.0,0.0,0.0,0.0,0.0,0.0,0.0,0.0,0.0,0.0,0.0,0.0,0.0,0.0,0.0,0.0,5.3553,5.4832,5.6072,5.5743,5.5102,5.4269,5.3114,5.096,4.7519,4.6202,0.0,0.0,0.0,0.0,0.0,0.0,0.0,0.0,0.0,0.0,0.0,0.0,0.0,0.0,0.0,0.0,0.0,0.0,0.0,0.0,0.0,0.0,0.0,0.0,0.0,0.0,0.0,0.0,0.0,0.0,0.0,0.0,0.0,0.0,0.0,0.0,0.0,0.0,0.0,0.0,0.0,0.0,0.0,0.0,0.0,0.0,0.0,0.0,0.0,0.0,0.0,0.0,0.0,0.0,0.0,0.0,0.0,0.0,0.0,0.0,0.0,0.0,0.0,0.0,0.0,0.0,0.0,0.0,0.0,0.0,0.0,0.0,0.0,0.0,0.0,0.0,0.0,0.0,0.0,0.0,0.0,0.0,0.0,0.0,0.0,0.0,0.0,0.0,0.0,0.0,0.0,0.0,0.0,0.0,0.0,0.0,0.0,0.0,0.0,0.0,0.0,0.0,5.5255,5.7363,5.6312,5.6162,5.5623,5.4299,5.3545,5.145,4.7549,4.6629,0.0,0.0,0.0,0.0,0.0,0.0,0.0,0.0,0.0,0.0,0.0,0.0,0.0,0.0,0.0,0.0,0.0,0.0,0.0,0.0,0.0,0.0,0.0,0.0,0.0,0.0,0.0,0.0,0.0,0.0,0.0,0.0,0.0,0.0,0.0,0.0,0.0,0.0,0.0,0.0,0.0,0.0,0.0,0.0,0.0,0.0,0.0,0.0,0.0,0.0,0.0,0.0,0.0,0.0,0.0,0.0,0.0,0.0,0.0,0.0,0.0,0.0,0.0,0.0,0.0,0.0,0.0,0.0,0.0,0.0,0.0,0.0,0.0,0.0,0.0,0.0,0.0,0.0,0.0,0.0,0.0,0.0,0.0,0.0,0.0,0.0,0.0,0.0,0.0,0.0,0.0,0.0,0.0,0.0,0.0,0.0,0.0,0.0,0.0,0.0,0.0,0.0,5.4631,5.6735,0.0,5.7257,5.6568,5.6047,5.467,5.2318,4.8757,0.0,0.0,0.0,0.0,0.0,0.0,0.0,0.0,0.0,0.0,0.0,0.0,0.0,0.0,0.0,0.0,0.0,0.0,0.0,0.0,0.0,0.0,0.0,0.0,0.0,0.0,0.0,0.0,0.0,0.0,0.0,0.0,0.0,0.0,0.0,0.0,0.0,0.0,0.0,0.0,0.0,0.0,0.0,0.0,0.0,0.0,0.0,0.0,0.0,0.0,0.0,0.0,0.0,0.0,0.0,0.0,0.0,0.0,0.0,0.0,0.0,0.0,0.0,0.0,0.0,0.0,0.0,0.0,0.0,0.0,0.0,0.0,0.0,0.0,0.0,0.0,0.0,0.0,0.0,0.0,0.0,0.0,0.0,0.0,0.0,0.0,0.0,0.0,0.0,0.0,0.0,0.0,0.0,0.0,0.0,0.0,0.0,0.0,0.0,0.0,0.0,0.0,5.1965,5.4653,5.7124,0.0,5.7902,5.7094,5.7094,5.5508,5.3025,4.9527,0.0,0.0,0.0,0.0,0.0,0.0,0.0,0.0,0.0,0.0,0.0,0.0,0.0,0.0,0.0,0.0,0.0,0.0,0.0,0.0,0.0,0.0,0.0,0.0,0.0,0.0,0.0,0.0,0.0,0.0,0.0,0.0,0.0,0.0,0.0,0.0,0.0,0.0,0.0,0.0,0.0,0.0,0.0,0.0,0.0,0.0,0.0,0.0,0.0,0.0,0.0,0.0,0.0,0.0,0.0,0.0,0.0,0.0,0.0,0.0,0.0,0.0,0.0,0.0,0.0,0.0,0.0,0.0,0.0,0.0,0.0,0.0,0.0,0.0,0.0,0.0,0.0,0.0,0.0,0.0,0.0,0.0,0.0,0.0,0.0,0.0,0.0,0.0,0.0,0.0,0.0,0.0,0.0,0.0,0.0,0.0,0.0,0.0,0.0,0.0,0.0,0.0,5.1346,5.5825,5.9099,5.9099,5.7902,5.7094,5.7107,5.594,5.3516,0.0,0.0,0.0,0.0,0.0,0.0,0.0,0.0,0.0,0.0,0.0,0.0,0.0,0.0,0.0,0.0,0.0,0.0,0.0,0.0,0.0,0.0,0.0,0.0,0.0,0.0,0.0,0.0,0.0,0.0,0.0,0.0,0.0,0.0,0.0,0.0,0.0,0.0,0.0,0.0,0.0,0.0,0.0,0.0,0.0,0.0,0.0,0.0,0.0,0.0,0.0,0.0,0.0,0.0,0.0,0.0,0.0,0.0,0.0,0.0,0.0,0.0,0.0,0.0,0.0,0.0,0.0,0.0,0.0,0.0,0.0,0.0,0.0,0.0,0.0,0.0,0.0,0.0,0.0,0.0,0.0,0.0,0.0,0.0,0.0,0.0,0.0,0.0,0.0,0.0,0.0,0.0,0.0,0.0,0.0,0.0,0.0,0.0,0.0,0.0,0.0,0.0,0.0,5.1958,5.6137,5.8906,5.8457,5.7633,5.6928,5.6479,5.57,5.3516,4.9557,0.0,0.0,0.0,0.0,0.0,0.0,0.0,0.0,0.0,0.0,0.0,0.0,0.0,0.0,0.0,0.0,0.0,0.0,0.0,0.0,0.0,0.0,0.0,0.0,0.0,0.0,0.0,0.0,0.0,0.0,0.0,0.0,0.0,0.0,0.0,0.0,0.0,0.0,0.0,0.0,0.0,0.0,0.0,0.0,0.0,0.0,0.0,0.0,0.0,0.0,0.0,0.0,0.0,0.0,0.0,0.0,0.0,0.0,0.0,0.0,0.0,0.0,0.0,0.0,0.0,0.0,0.0,0.0,0.0,0.0,0.0,0.0,0.0,0.0,0.0,0.0,0.0,0.0,0.0,0.0,0.0,0.0,0.0,0.0,0.0,0.0,0.0,0.0,0.0,0.0,0.0,0.0,0.0,0.0,0.0,0.0,0.0,0.0,0.0,0.0,0.0,0.0,5.26,5.6885,5.9624,5.8966,5.8291,5.7633,5.7017,5.6359,5.4503,5.1073,0.0,0.0,0.0,0.0,0.0,0.0,0.0,0.0,0.0,0.0,0.0,0.0,0.0,0.0,0.0,0.0,0.0,0.0,0.0,0.0,0.0,0.0,0.0,0.0,0.0,0.0,0.0,0.0,0.0,0.0,0.0,0.0,0.0,0.0,0.0,0.0,0.0,0.0,0.0,0.0,0.0,0.0,0.0,0.0,0.0,0.0,0.0,0.0,0.0,0.0,0.0,0.0,0.0,0.0,0.0,0.0,0.0,0.0,0.0,0.0,0.0,0.0,0.0,0.0,0.0,0.0,0.0,0.0,0.0,0.0,0.0,0.0,0.0,0.0,0.0,0.0,0.0,0.0,0.0,0.0,0.0,0.0,0.0,0.0,0.0,0.0,0.0,0.0,0.0,0.0,0.0,0.0,0.0,0.0,0.0,0.0,0.0,0.0,0.0,0.0,0.0,0.0,5.3276,5.7842,6.0731,6.007,5.9398,5.8726,5.8055,5.7453,5.6,5.3456,0.0,0.0,0.0,0.0,0.0,0.0,0.0,0.0,0.0,0.0,0.0,0.0,0.0,0.0,0.0,0.0,0.0,0.0,0.0,0.0,0.0,0.0,0.0,0.0,0.0,0.0,0.0,0.0,0.0,0.0,0.0,0.0,0.0,0.0,0.0,0.0,0.0,0.0,0.0,0.0,0.0,0.0,0.0,0.0,0.0,0.0,0.0,0.0,0.0,0.0,0.0,0.0,0.0,0.0,0.0,0.0,0.0,0.0,0.0,0.0,5.0769,0.0,0.0,0.0,0.0,0.0,0.0,0.0,0.0,0.0,0.0,0.0,0.0,0.0,0.0,0.0,0.0,0.0,0.0,0.0,0.0,0.0,0.0,0.0,0.0,0.0,0.0,0.0,0.0,0.0,0.0,0.0,0.0,0.0,0.0,0.0,0.0,0.0,0.0,0.0,0.0,0.0,5.4563,5.8035,6.007,5.9368,5.8697,5.8038,5.7363,5.7184,5.6196,5.4132,5.2977,0.0,0.0,0.0,0.0,0.0,0.0,0.0,0.0,0.0,0.0,0.0,0.0,0.0,0.0,0.0,0.0,0.0,0.0,0.0,0.0,0.0,0.0,0.0,0.0,0.0,0.0,0.0,0.0,0.0,0.0,0.0,0.0,0.0,0.0,0.0,0.0,0.0,0.0,0.0,0.0,0.0,0.0,0.0,0.0,0.0,0.0,0.0,0.0,0.0,0.0,0.0,0.0,0.0,0.0,0.0,0.0,0.0,0.0,0.0,0.0,5.1092,0.0,0.0,0.0,0.0,0.0,0.0,0.0,0.0,0.0,0.0,0.0,0.0,0.0,0.0,0.0,0.0,0.0,0.0,0.0,0.0,0.0,0.0,0.0,0.0,0.0,0.0,0.0,0.0,0.0,0.0,0.0,0.0,0.0,0.0,0.0,0.0,0.0,0.0,0.0,0.0,5.5867,5.9548,6.1746,6.1088,6.0416,5.9638,5.8634,5.8544,5.7855,5.6184,5.488,0.0,0.0,0.0,0.0,0.0,0.0,0.0,0.0,0.0,0.0,0.0,0.0,0.0,0.0,0.0,0.0,0.0,0.0,0.0,0.0,0.0,0.0,0.0,0.0,0.0,0.0,0.0,0.0,0.0,0.0,0.0,0.0,0.0,0.0,0.0,0.0,0.0,0.0,0.0,0.0,0.0,0.0,0.0,0.0,0.0,0.0,0.0,0.0,0.0,0.0,0.0,0.0,0.0,5.4456,5.4215,5.3383,5.3383,5.411,5.5323,5.3636,5.4009,5.5411,5.0456,0.0,0.0,0.0,0.0,0.0,0.0,0.0,0.0,0.0,0.0,0.0,0.0,0.0,0.0,0.0,0.0,0.0,0.0,0.0,0.0,0.0,0.0,0.0,0.0,5.2204,5.3525,0.0,0.0,0.0,0.0,0.0,0.0,0.0,0.0,0.0,0.0,0.0,0.0,5.7347,6.1164,6.3482,6.2974,6.2345,6.1463,6.037,6.0266,5.9787,5.8683,5.7004,5.5341,0.0,0.0,0.0,0.0,0.0,0.0,0.0,0.0,0.0,0.0,0.0,0.0,0.0,0.0,0.0,0.0,0.0,0.0,0.0,0.0,0.0,0.0,0.0,0.0,0.0,0.0,0.0,0.0,0.0,0.0,0.0,0.0,4.7759,4.933,0.0,0.0,0.0,0.0,0.0,0.0,0.0,0.0,0.0,0.0,0.0,0.0,0.0,5.3213,5.3509,5.5412,5.635,5.6393,5.8321,5.9498,6.004,6.004,5.9934,5.971,5.841,0.0,5.4493,5.3674,0.0,0.0,0.0,0.0,0.0,0.0,0.0,0.0,0.0,0.0,0.0,0.0,0.0,0.0,0.0,0.0,0.0,0.0,0.0,0.0,0.0,0.0,5.6387,5.6762,5.7172,5.7377,0.0,5.3422,4.9948,4.897,4.8778,0.0,0.0,0.0,0.0,0.0,0.0,0.0,5.9232,6.1268,6.2301,6.2255,6.1628,6.115,6.097,6.097,6.088,6.0731,5.9907,5.8364,5.5923,5.5072,0.0,0.0,0.0,0.0,0.0,0.0,0.0,0.0,0.0,0.0,0.0,0.0,0.0,0.0,0.0,0.0,0.0,0.0,0.0,0.0,0.0,0.0,0.0,0.0,0.0,0.0,0.0,0.0,0.0,4.6812,4.8293,4.9357,4.8612,4.7834,0.0,0.0,0.0,0.0,0.0,0.0,0.0,0.0,0.0,5.5919,5.6384,5.7205,5.849,5.9471,5.9954,5.9945,6.0936,6.0882,5.9894,6.0299,5.9593,5.813,5.7928,5.7106,5.5741,5.3987,5.226,5.0553,0.0,0.0,0.0,0.0,5.0001,5.0,5.25,5.311,0.0,5.2766,0.0,0.0,0.0,0.0,0.0,0.0,0.0,0.0,0.0,0.0,5.6584,5.7824,5.8667,5.9219,5.9219,5.7979,5.6154,0.0,5.227,5.0624,4.7878,0.0,0.0,0.0,0.0,5.8411,6.0894,6.3019,6.4156,6.3782,6.3124,6.245,6.1732,6.1672,6.1479,6.112,6.0821,6.0146,5.9009,5.7214,5.4832,0.0,0.0,0.0,0.0,0.0,0.0,0.0,0.0,0.0,0.0,0.0,0.0,0.0,0.0,0.0,0.0,0.0,0.0,0.0,0.0,0.0,0.0,0.0,0.0,0.0,0.0,0.0,0.0,4.8334,4.9307,5.0059,5.0338,4.9932,0.0,0.0,0.0,0.0,0.0,0.0,5.4896,5.5615,5.6943,5.8973,5.9766,6.0815,6.2166,6.2725,6.2643,6.1963,6.2316,6.1347,5.9311,5.98,5.887,5.6932,5.7372,5.7389,5.692,5.4619,5.3526,5.3171,5.1871,5.1188,5.1075,5.2072,5.2094,5.2009,5.4794,5.5383,5.4938,5.4938,5.483,5.4457,5.2778,0.0,0.0,0.0,0.0,5.4369,5.6017,5.6714,5.7375,5.8794,5.9757,6.0386,6.0579,6.1118,6.0759,0.0,5.6389,5.4533,5.157,0.0,0.0,0.0,0.0,6.0954,6.263,6.453,6.5547,6.5054,6.456,6.3872,6.2929,6.2839,6.257,6.1868,6.1688,6.1539,6.1359,5.9279,5.7423,5.5957,0.0,0.0,0.0,0.0,0.0,0.0,0.0,0.0,0.0,0.0,0.0,0.0,0.0,0.0,0.0,0.0,0.0,0.0,0.0,0.0,0.0,0.0,0.0,0.0,0.0,0.0,0.0,0.0,0.0,5.3179,5.389,0.0,0.0,0.0,0.0,5.4372,5.5784,5.7264,5.865,5.9428,6.0554,6.212,6.2888,6.2736,6.1639,6.3541,6.3242,6.079,6.209,6.1946,6.0604,6.0625,5.9949,5.8789,5.8789,5.8161,5.7077,5.6937,5.6297,5.543,5.5354,5.4728,5.4104,5.5717,5.6274,5.6517,5.8277,5.885,5.8807,5.8807,5.7278,5.5558,5.6115,5.4526,0.0,0.0,5.7111,5.7628,6.0872,6.1264,6.101,6.1716,6.1449,6.121,6.1852,6.1058,6.0326,0.0,6.1283,6.0984,5.8919,0.0,5.9891,6.0462,6.0851,6.1957,6.4516,6.4964,6.5024,6.4994,6.4964,6.4904,6.4845,6.4845,6.456,6.3887,6.3333,6.2704,6.2061,6.1299,5.9983,5.7995,5.7214,0.0,0.0,0.0,0.0,0.0,0.0,0.0,0.0,0.0,0.0,0.0,0.0,0.0,0.0,0.0,0.0,0.0,0.0,0.0,0.0,0.0,0.0,0.0,0.0,0.0,0.0,0.0,0.0,5.4887,5.5987,0.0,5.5031,5.6452,5.7433,5.7433,5.9733,6.1347,6.1854,6.2618,6.326,6.3802,6.4072,6.3971,6.3546,6.3869,6.354,6.2636,6.2689,6.2057,6.0839,6.1283,6.0823,5.9688,6.0129,6.0059,5.9654,5.9654,5.8457,5.6559,5.6559,5.6343,5.6109,5.6685,5.6939,5.6997,5.7614,5.7812,5.7962,5.883,5.8801,5.858,5.9287,5.8808,5.8282,5.9516,5.9773,6.0057,6.1672,6.1912,6.2002,6.3079,6.3139,6.3169,6.3812,6.3603,6.3334,6.3558,6.2795,6.1732,6.0581,6.1987,6.2915,6.1912,6.3184,6.474,6.6101,6.6281,6.6116,6.5697,6.5637,6.5488,6.5024,6.4994,6.4904,6.465,6.4441,6.4231,6.3992,6.3304,6.245,6.1343,6.0655,5.7975,0.0,0.0,0.0,0.0,0.0,0.0,0.0,0.0,0.0,0.0,0.0,0.0,0.0,0.0,0.0,0.0,0.0,0.0,0.0,0.0,0.0,0.0,0.0,0.0,0.0,0.0,5.608,5.608,5.7814,5.8457,5.695,5.9047,6.0501,6.0501,6.2608,6.3859,6.3859,6.4156,6.4307,6.4307,6.4776,6.4591,6.3692,6.4448,6.4147,6.2831,6.281,6.2151,6.0984,6.1416,6.1176,6.0446,6.091,6.109,6.109,6.109,6.0043,5.8441,5.8441,5.8441,5.8441,5.8441,5.8441,5.8441,5.8441,5.8441,5.859,5.9488,6.0086,6.0565,6.1224,6.1419,6.1539,6.1957,6.2077,6.2227,6.2885,6.3079,6.3288,6.4156,6.4515,6.4874,6.5518,6.5847,6.6086,6.6295,6.4949,6.3617,6.3169,6.4889,6.5757,6.4006,6.5622,6.6999,6.7014,6.7388,6.7508,6.7059,6.7029,6.6834,6.6385,6.5503,6.5174,6.5637,6.4859,6.456,6.4964,6.3932,6.3183,6.2764,6.1741,5.8722,5.3691,0.0,0.0,0.0,0.0,0.0,0.0,0.0,0.0,0.0,0.0,0.0,0.0,0.0,0.0,0.0,0.0,0.0,0.0,0.0,0.0,0.0,0.0,0.0,5.5868,5.6452,5.6968,5.6968,5.9573,6.0781,5.9293,6.182,6.3511,6.3511,6.4241,6.4681,6.4681,6.413,6.3824,6.3868,6.516,6.465,6.211,6.5311,6.5011,6.1264,6.2476,6.2425,6.121,6.121,6.121,6.121,6.121,6.121,6.121,6.121,6.121,6.121,6.112,6.109,6.109,6.109,6.112,6.112,6.115,6.118,6.118,6.118,6.121,6.1329,6.2002,6.2181,6.245,6.3677,6.4036,6.4186,6.4874,6.5054,6.5084,6.5114,6.5637,6.6281,6.6909,6.7553,6.8211,6.8884,6.7956,6.7104,6.7074,6.8136,6.8555,6.7284,6.8166,0.0,6.7254,6.8196,6.8974,6.8944,6.8944,6.8944,6.8944,6.6565,6.5637,6.6969,6.468,6.3842,6.5084,6.3304,6.2257,6.214,6.0252,5.7765,5.4682,0.0,0.0,0.0,0.0,0.0,0.0,0.0,0.0,0.0,0.0,0.0,0.0,0.0,0.0,0.0,0.0,0.0,0.0,0.0,0.0,0.0,0.0,5.7518,5.7306,5.8896,6.025,6.08,6.2076,6.2743,6.2293,6.3487,6.4299,6.4299,6.5483,6.6193,6.6193,6.6124,6.6562,6.7566,6.6026,6.5549,6.6331,6.5822,6.5246,6.4658,6.4527,6.4281,6.3917,6.3917,6.3917,6.3917,6.3917,6.3917,6.3917,6.3917,6.3917,6.3738,6.1838,6.109,6.109,6.109,6.1419,6.1882,6.2361,6.2854,6.3199,6.3199,6.3543,6.3947,6.4141,6.4201,6.4291,6.462,6.474,6.4979,6.6161,6.646,6.67,6.7672,6.8031,6.8226,6.8405,6.8585,6.8764,6.8974,6.9093,6.9019,6.8525,6.8764,6.9034,6.9169,6.9064,0.0,6.9169,6.9064,6.8615,6.7657,6.7537,6.7537,6.7537,6.6879,6.7029,6.8375,6.7777,6.7537,6.7897,6.6924,6.5316,6.3016,5.8866,5.6047,0.0,0.0,0.0,0.0,0.0,0.0,0.0,0.0,0.0,0.0,0.0,0.0,0.0,0.0,0.0,0.0,0.0,0.0,0.0,0.0,0.0,0.0,5.8127,5.9887,6.0182,6.1129,6.2042,6.2753,6.325,6.3612,6.3927,6.4908,6.5286,6.4747,6.6053,6.6889,6.6889,6.6421,6.6801,6.8187,6.6644,6.6109,6.6749,6.6172,6.5794,6.5586,6.5198,6.4994,6.5024,6.5308,6.5413,6.5413,6.5727,6.5667,6.5413,6.5413,6.5233,0.0,0.0,0.0,0.0,0.0,6.2975,6.3364,6.3767,6.4126,6.4411,6.4411,6.468,6.5084,6.5667,6.5847,6.5936,6.6535,6.6684,6.6864,6.7627,6.7837,6.8016,6.8824,6.9213,6.9423,6.9423,6.9602,6.9812,6.9812,7.0111,0.0,6.9871,6.9812,6.9752,6.9602,6.9692,6.9752,6.9618,6.9722,6.9512,6.8704,6.8615,6.8615,6.8615,6.7643,0.0,0.0,0.0,6.7747,6.7747,6.6616,0.0,0.0,0.0,0.0,0.0,0.0,0.0,0.0,5.3097,5.3134,0.0,0.0,0.0,0.0,0.0,0.0,0.0,0.0,0.0,0.0,0.0,0.0,0.0,0.0,0.0,0.0,6.0564,6.2753,6.3419,6.3024,6.2888,6.3555,6.3758,6.4079,6.4554,6.596,6.6329,6.5154,6.6274,6.7062,6.7236,0.0,0.0,0.0,0.0,6.6412,6.5472,6.6536,6.6541,6.5443,6.5443,6.5443,6.5473,6.6056,6.634,6.6355,6.6969,6.6879,6.634,6.634,6.5996,6.5413,6.5203,6.5114,6.5114,6.5263,6.5338,6.5368,6.5413,0.0,0.0,6.5443,6.5443,6.5652,6.6849,6.7224,6.7478,6.8675,6.9004,6.9004,6.9093,6.9123,6.9123,6.9213,6.9678,7.0097,7.0097,7.05,7.0889,7.0889,7.0889,7.0889,7.0889,7.0889,7.053,6.9393,7.0171,7.05,6.9363,7.0201,7.0829,7.0709,0.0,0.0,7.0679,6.8555,6.8062,6.9977,6.765,6.6244,6.6244,6.4154,6.2265,6.063,5.8652,5.7716,5.7901,5.7901,5.7926,5.7932,5.5314,5.5033,0.0,0.0,0.0,0.0,0.0,0.0,0.0,0.0,0.0,0.0,0.0,0.0,0.0,0.0,0.0,5.865,6.1322,6.3352,6.3477,6.3893,6.4241,6.4377,6.5449,6.5781,6.4862,6.6108,6.6855,6.6601,6.683,6.7491,6.8621,6.7441,6.7304,6.8643,6.6552,6.6348,6.8295,6.7439,6.7425,6.8226,0.0,0.0,6.821,6.8375,6.8435,6.8435,6.8555,6.8525,6.8435,6.8435,6.833,6.8076,6.6445,6.5817,6.5936,6.7014,6.7433,6.7493,6.8046,6.8226,6.8226,6.8226,6.8226,6.8286,6.8525,6.8615,0.0,6.8944,6.9004,6.9123,6.9678,6.9798,6.9917,7.041,7.062,7.0739,7.0739,7.0829,7.0889,7.0889,7.0889,7.0889,7.0889,7.0889,7.0829,7.056,7.0739,7.0829,7.056,7.0739,7.05,6.9482,6.9363,6.9363,6.9363,6.8914,6.9213,7.0649,6.8807,6.7704,6.7704,6.3923,6.1666,6.1308,5.9025,5.7848,5.7901,5.7901,5.8127,5.8529,5.7526,5.7273,0.0,0.0,0.0,0.0,0.0,0.0,0.0,0.0,0.0,0.0,0.0,5.5065,5.6519,0.0,5.9945,6.1086,6.2844,6.4299,6.5043,6.5483,6.5686,6.5686,6.5766,6.5836,6.5878,6.6567,6.6708,6.6051,6.6638,6.7362,6.805,6.7108,6.7323,6.9046,6.7402,6.7305,6.9032,6.8344,6.8345,6.9004,6.9004,6.9004,6.9004,6.9333,6.9498,6.9512,6.9812,6.9782,6.9453,6.9123,6.9004,6.8944,6.8256,6.7807,6.7597,6.8271,6.8511,6.8541,6.8884,6.9004,6.9004,6.9004,6.9004,6.9064,6.9393,6.9498,6.9542,6.9871,6.9961,7.0021,7.035,7.044,7.053,7.0829,7.0889,7.0889,7.0889,7.0649,7.044,7.044,7.0171,6.9961,6.9961,6.9961,7.0171,7.0799,7.0889,7.0889,7.0889,7.0889,7.0649,7.0021,6.9961,6.9961,6.9961,6.9961,7.0231,7.0859,6.9153,6.8112,6.8112,6.4136,6.1938,6.1938,5.9824,5.8704,5.8704,5.8704,5.883,5.9106,5.883,5.8704,0.0,0.0,0.0,0.0,0.0,0.0,0.0,5.2503,5.3365,5.5658,5.6596,5.7602,5.952,6.0883,6.2168,6.3487,6.4434,6.5343,6.6282,6.6654,6.6837,6.6844,6.6,6.5745,6.6536,6.6747,6.6427,6.5472,6.6341,6.7066,6.7474,6.6789,6.7216,6.9019,6.8499,6.8511,6.9183,6.9183,6.9243,6.9363,6.9363,6.9363,6.9393,6.9947,7.0187,7.0217,7.0679,7.062,7.0127,6.9602,6.9363,6.9423,6.9961,6.9842,6.9363,6.9363,6.9363,6.9363,6.9363,6.9363,6.9363,6.9363,6.9363,6.9482,7.0007,7.0187,7.0277,7.0769,7.0889,7.0889,7.0889,7.0799,7.0739,7.0739,7.062,7.053,7.053,7.0141,6.9798,6.9798,6.9363,6.9004,6.9004,6.9004,6.9363,7.038,7.053,7.053,7.053,7.0649,7.0679,7.053,7.0769,7.0889,7.0889,7.058,7.0354,7.0354,6.8236,6.699,6.699,6.3684,6.1835,6.1835,6.0304,5.9483,5.9483,5.9483,5.9483,5.9483,5.9608,5.9583,5.0278,5.098,5.23,5.2866,5.4118,5.6046,0.0,5.9056,5.8786,6.1071,6.1579,6.1941,6.2835,6.3139,6.3521,6.4333,6.5652,6.6195,6.5171,6.6159,6.6992,6.6978,6.7415,6.707,6.5379,6.5822,6.6382,6.6821,6.6389,6.691,6.8796,6.8183,6.8139,6.8985,6.8919,6.9213,6.9887,6.9887,7.0157,7.0679,7.0679,7.0679,7.0679,7.0769,7.0799,7.0799,7.0859,7.0859,7.0799,7.0709,7.0679,7.0709,7.0769,7.0739,7.0679,7.0679,7.0679,7.0679,7.0679,7.0679,7.0679,7.0679,7.0679,7.0709,7.0769,7.0799,7.0799,7.0889,7.0889,7.0889,7.0889,7.05,7.0097,7.0097,6.9632,6.9213,6.9213,6.9153,6.9123,6.9123,6.9064,6.9004,6.9004,6.9004,6.9064,6.9183,6.9213,6.9213,6.9213,6.9738,6.9887,6.9273,7.0231,7.0889,7.0889,6.937,6.8417,6.8417,6.5028,6.3052,6.3052,6.0957,5.983,5.983,5.9599,5.9483,5.9483,5.9483,5.9483,5.9508,6.001,5.996,5.4676,5.5082,5.5658,5.5987,5.7171,5.8549,5.9699,5.98,6.0274,6.2574,6.3047,6.326,6.3994,6.4478,6.5019,6.5753,6.6104,6.6367,6.668,6.6898,6.688,6.6533,6.7081,6.7164,6.6316,6.6106,6.633,6.6998,6.711,6.771,6.8971,6.8764,6.89,6.9558,6.9572,6.9887,7.05,7.053,7.0649,7.0889,7.0889,7.0889,7.0889,7.0889,7.0889,7.0889,7.0889,7.0889,7.0889,7.0889,7.0889,7.0889,7.0889,7.0679,7.0426,7.0769,7.0889,7.0859,7.0516,7.0396,7.0306,6.9931,6.9782,6.9782,6.9782,6.9782,6.9782,6.9782,6.9782,6.9782,6.9782,6.9602,6.9439,6.9439,6.9183,6.9123,6.9498,6.9273,6.9123,6.9498,6.9273,6.9004,6.9004,6.9004,6.9004,6.9004,6.9004,6.9004,6.9004,6.9588,7.0037,7.0111,7.026,7.05,7.0859,6.9186,6.8112,6.8112,6.449,6.2413,6.2413,6.0526,5.9483,5.9483,5.9187,5.9207,5.9483,5.9483,5.9659,5.9985,6.0563,6.0688,5.7273,5.7746,5.8195,5.8195,5.9471,6.0655,6.0308,6.0646,6.1559,6.3419,6.3781,6.4096,6.5009,6.5628,6.62,6.6769,6.6666,6.6682,6.7179,6.6953,6.6592,6.6138,6.6506,6.6936,6.7304,6.6701,6.655,6.7224,6.7882,6.8571,6.9243,6.9273,6.9572,7.0217,7.0247,7.044,7.0889,7.0889,7.0889,7.0889,7.0889,7.0889,7.0889,7.0889,7.0889,7.0889,7.0889,7.0889,7.0889,7.0709,7.0649,7.062,7.044,7.0111,6.9798,7.0201,7.038,7.032,6.9887,6.9738,6.9632,6.9153,6.9004,6.9004,6.9004,6.9004,6.9034,6.9213,6.9273,6.9303,6.9482,6.9393,6.9273,6.9273,6.9123,6.9123,6.9618,6.9333,6.9123,6.9618,6.9333,6.9004,6.9004,6.9004,6.9004,6.9004,6.9004,6.9064,6.9243,6.9842,7.0576,7.1368,7.0403,6.9959,7.0581,6.8378,6.6975,6.6975,6.3875,6.2067,6.2067,6.0704,5.996,5.996,5.9583,5.9583,5.996,5.996,6.0085,6.0317,6.1065,6.1361,5.6139,5.7322,5.8979,5.8979,6.0655,6.2516,6.3217,6.3376,6.3622,6.441,6.458,6.5019,6.6464,6.6768,6.6823,6.6976,6.7568,6.7329,6.5366,6.5699,6.6096,6.6012,6.6012,6.6536,0.0,6.7374,6.7254,6.7928,6.86,6.9243,6.9917,6.9977,7.0247,7.0859,7.0889,7.0889,7.0889,7.0889,7.0889,7.0889,7.0889,7.0889,7.0889,7.0889,7.0889,7.0889,7.0889,7.0889,7.0859,7.0277,7.0037,6.9947,6.9303,6.9064,6.9034,6.9064,6.9064,6.9064,6.9034,6.9034,6.9034,6.9004,6.9004,6.9004,6.9004,6.9004,6.9123,6.9798,6.9977,7.0097,7.0679,7.041,6.9977,6.9977,6.9453,6.9004,6.9034,6.9004,6.9004,6.9034,6.9004,6.9004,6.9004,6.9004,6.9004,6.9004,6.9004,6.9213,6.9796,7.0454,7.1398,7.2698,7.049,6.92,6.9868,6.6367,6.4133,6.4133,6.23,6.1234,6.1234,6.12,6.116,6.116,6.1135,6.1135,6.116,6.116,6.0864,6.0317,6.1466,6.1692,5.8481,5.9158,5.9979,6.0994,6.2212,6.3183,6.3453,6.3893,6.4444,6.5189,6.573,6.6362,6.7354,6.72,6.726,6.8238,6.7076,6.6124,6.6361,6.6187,6.6189,6.6611,6.7074,0.0,0.0,0.0,0.0,6.9229,6.9528,6.9947,7.056,7.059,7.0679,7.0889,7.0889,7.0889,7.0889,7.0889,7.0889,7.0889,7.0889,7.0889,7.0889,7.0889,7.0679,7.0306,7.0306,7.0051,6.9632,6.9423,6.9333,6.9303,6.9093,6.8734,6.8391,6.8824,6.8704,6.8331,6.8331,6.8331,6.8271,6.7822,6.7972,6.8331,6.8331,6.866,6.9064,6.9273,6.9333,6.9363,6.9602,6.9482,6.9333,6.9333,6.9153,6.9123,6.9558,6.9678,6.9782,7.0171,7.026,7.026,7.026,7.026,7.041,7.0875,6.9812,6.9243,6.9871,6.8648,6.8219,6.9565,6.7358,6.6041,6.671,6.4415,6.3095,6.3446,6.1651,6.0788,6.1185,6.121,6.121,6.121,6.0814,6.0613,6.0613,6.0613,6.0713,6.0914,6.1667,6.2074,6.0994,6.1501,6.2009,6.327,6.414,6.4728,6.5009,6.5459,6.6068,6.7094,6.7252,6.7512,6.8538,6.8167,6.8011,6.8968,6.8093,6.7325,6.7477,6.7298,6.72,6.736,6.7748,6.8377,6.9273,6.896,6.9049,6.9947,7.0217,7.05,7.0889,7.0889,7.0889,7.0889,7.0889,7.0889,7.0889,7.0889,7.1009,7.1248,7.1009,7.1038,7.1248,7.1248,7.1055,7.0666,7.0666,7.0426,6.9991,6.9558,6.9363,6.9333,6.9093,6.875,6.8421,6.8824,6.872,6.8361,6.8361,6.8361,6.8271,6.7837,6.8002,6.8361,6.8361,6.866,6.9064,6.9273,6.9333,6.9393,6.9632,6.9692,6.9692,6.9692,6.9692,6.9812,7.0247,7.032,7.044,7.0829,7.0889,7.0889,7.0889,7.0889,7.1038,7.1474,7.047,7.0021,7.0919,6.9582,6.8589,6.879,6.6634,6.5113,6.4845,6.3068,6.2132,6.2456,6.1313,6.0788,6.1185,6.121,6.121,6.121,6.0814,6.0638,6.0638,6.0794,6.1014,6.121,6.1943,6.2476,6.3352,6.4096,6.4816,6.5571,6.6305,6.7039,6.7726,6.7963,6.8402,6.98,6.8988,6.8436,6.9834,6.9462,6.8993,6.9105,7.0273,7.045,6.8434,6.8755,6.8925,6.8144,6.8077,6.8616,6.9917,7.0037,7.0037,7.0037,0.0,7.0889,7.0889,7.0889,7.0889,7.0889,7.0889,7.0889,7.0889,7.0889,7.1248,7.1953,7.1278,7.1308,7.1953,7.1953,7.1923,7.1863,7.1863,7.1803,7.1653,7.0456,6.9947,6.9887,6.9243,6.9004,6.9004,6.9034,6.9064,6.9064,6.9093,6.9064,6.9004,6.9004,6.9034,6.9064,6.9064,6.9064,6.9243,6.9858,6.9991,7.0095,7.0723,7.0889,7.0889,7.0889,7.0889,7.0889,7.0889,7.0889,7.0889,7.0889,7.0889,7.0889,7.0889,7.0889,7.0886,7.0819,7.0802,7.1283,7.2638,7.2637,7.1808,7.0054,6.7905,6.5924,6.4152,6.2241,6.1135,6.121,6.1185,6.116,6.121,6.121,6.121,6.121,6.1235,6.1235,6.121,6.1743,6.1743,6.1311,6.2325,6.2827,6.3971,6.485,6.5605,6.6339,6.7072,6.7658,6.7861,6.8785,6.9394,6.8639,6.909,6.9394,6.865,6.8367,6.8267,6.8306,6.8221,6.7938,6.7381,6.7895,6.8437,6.8707,6.9199,6.9798,7.059,7.0679,7.0679,0.0,7.0799,7.0889,7.0889,7.0889,7.0889,7.0889,7.0889,7.0889,7.0889,7.0889,7.1487,7.2654,7.1966,7.1996,7.2654,7.2654,7.2116,7.1158,7.1158,7.062,6.9722,6.9393,6.9243,6.9243,6.9064,6.9004,6.9064,6.9496,6.9722,6.9798,7.026,6.9782,6.9004,6.9004,6.9333,6.9738,6.9738,7.0051,7.044,7.062,7.0649,7.0663,7.0859,7.0889,7.0889,7.0889,7.0889,7.0889,7.0889,7.0889,7.0889,7.0889,7.0889,7.0889,7.0889,7.0889,7.0565,6.9547,6.943,6.9909,7.1247,6.8902,6.6978,6.6502,6.3433,6.1377,6.1297,6.0448,6.0306,6.116,6.0788,6.0738,6.1185,6.121,6.121,6.121,6.1592,6.1592,6.121,6.1743,6.2144,6.24,6.2676,6.3254,6.5256,6.6609,6.777,6.8199,6.8842,6.9203,6.8571,6.9113,6.935,6.8132,6.8335,6.8538,6.7996,6.7937,6.8066,6.8432,6.8978,6.9108,6.85,6.9245,6.9773,6.9458,6.9768,7.0247,7.0829,7.0889,7.0889,7.0889,7.0889,7.0889,7.0889,7.0889,7.0889,7.0889,7.0889,7.0889,7.0889,7.1188,7.1876,7.2877,7.1906,7.1966,7.2877,7.2595,7.2056,7.1338,0.0,7.0919,7.026,6.9961,6.9842,6.9842,6.9842,6.9842,6.9871,7.0214,7.038,7.044,7.0769,7.044,6.9842,6.9842,7.0081,7.038,7.038,7.062,7.0889,7.0889,7.0889,7.0889,7.0889,7.0889,7.0889,7.0889,7.0889,7.0889,7.0889,7.0889,7.0889,7.0889,7.1128,7.1338,7.1338,7.1577,7.1218,6.9581,6.9332,6.9304,6.9153,6.7263,6.5727,6.514,6.2696,6.1005,6.0717,5.996,5.9759,6.0406,6.0136,6.0111,6.0437,6.0663,6.0814,6.0814,6.1592,6.1843,6.1542,6.2345,6.2898,6.3203,6.345,6.4002,6.6599,6.847,7.0206,7.0308,7.0838,7.0928,6.9451,6.918,6.8944,6.7827,6.7242,6.7072,6.7523,6.7848,6.8203,6.8712,7.0602,7.1528,7.0114,7.1102,7.1506,7.0153,7.0067,7.0336,7.0859,7.0889,7.0889,7.0889,7.0889,7.0889,7.0889,7.0889,7.0949,7.1038,7.1038,7.1038,7.1038,7.1427,7.2026,7.2757,7.1517,7.1591,7.2877,7.2295,7.1983,7.1893,7.1893,7.1863,7.1713,7.1128,7.0889,7.0889,7.0889,7.0889,7.0889,7.0889,7.0949,7.1038,7.1038,7.1098,7.1128,7.0949,7.0889,7.0889,7.0889,7.0889,7.0889,7.0889,7.0949,7.1038,7.1038,7.1038,7.1068,7.1158,7.1098,7.1068,7.1158,7.1188,7.1188,7.1188,7.1637,7.2042,7.2042,7.2505,7.2256,7.0326,6.9818,6.8949,6.701,6.6696,6.6182,6.5016,6.3777,6.2599,6.15,6.0362,5.9759,5.9834,5.9834,5.9834,5.9834,6.0362,6.0643,6.0643,6.1672,6.2245,6.2245,6.3274,6.3827,6.3902,6.44,6.4902,6.6599,6.847,7.0342,7.0973,7.1199,7.0928,6.9451,6.9553,6.9259,6.662,6.6958,6.7387,6.6282,6.7594,6.8481,6.7452,6.9032,6.9939,6.8574,6.955,7.0312,7.0009,7.044,7.0799,7.0889,7.0889,7.0889,7.0889,7.0889,7.0889,7.0889,7.0889,7.1158,7.1713,7.1743,7.1743,7.1743,7.0785,7.0935,7.2056,7.1278,7.1591,7.2907,7.2787,7.2415,7.1893,7.1893,0.0,7.1068,7.0949,7.0889,7.0889,7.0889,7.0889,7.0889,7.0889,7.1248,7.1743,7.1743,7.2086,7.2368,7.1278,7.0889,7.0889,7.0889,7.0889,7.0889,7.0889,7.1308,7.1743,7.1743,7.1743,7.1876,7.2428,7.2116,7.1876,7.2428,7.2548,7.2548,7.2548,7.2638,7.2744,7.2744,7.2817,7.2421,7.0968,6.931,6.7697,6.6184,6.5549,6.5156,6.4915,6.3294,6.23,6.2496,6.1517,6.109,6.1542,6.1567,6.1567,6.1567,6.2074,6.2375,6.2375,6.3048,6.34,6.34,6.4048,6.4601,6.5007,6.5128,6.5434,6.7184,6.9045,7.0872,7.1199,7.0996,7.0229,6.8324,6.7861,6.7229,6.5019,6.5425,6.6068,6.5774,6.6912,6.7823,6.7528,6.8553,6.9336,6.9092,6.9868,7.047,7.047,7.0709,7.0889,7.0889,7.0889,7.0889,7.0889,7.0889,7.0889,7.0889,7.1218,7.1398,7.1368,7.1713,7.1743,7.1368,7.0769,7.0965,7.1893,7.1218,7.1427,7.2355,7.2026,7.1697,7.1368,7.1368,0.0,7.0889,7.0889,7.0889,7.0889,7.0889,7.1098,7.1427,7.1427,7.1846,7.2415,7.2415,7.2624,7.2787,7.2129,7.1936,7.1936,7.1936,7.1936,7.1936,7.1936,7.2176,7.2415,7.2415,7.2415,7.2505,7.2817,7.2638,7.2505,7.2817,7.2907,7.2907,7.2907,7.3176,7.3099,7.2039,7.2148,7.145,6.8642,6.7422,6.618,6.4446,6.4269,6.4295,6.4295,6.3159,6.2651,6.3224,6.2521,6.2124,6.24,6.2425,6.2425,6.2425,6.2952,6.3274,6.3274,6.4103,6.453,6.453,6.5057,6.5459,6.571,6.571,6.586,6.7895,6.9711,7.1267,7.1097,7.0635,6.9563,6.7117,6.6112,6.5233,6.3589,6.3971,6.4783,6.5368,6.6355,6.7316,6.7915,6.8524,6.9164,6.9891,7.0412,7.0769,7.0889,7.0889,7.0889,7.0889,7.0889,7.0889,7.0889,7.1038,7.1009,7.0709,7.1607,7.1727,7.0919,7.1564,7.1593,7.0919,7.0769,7.0979,7.1474,7.0949,7.1038,7.1683,7.1128,7.0889,7.0889,7.0889,0.0,7.0889,7.0889,7.0889,7.0919,7.1068,7.1427,7.1923,7.2056,7.2535,7.3116,7.3116,7.3206,7.3343,7.3343,7.3116,7.2907,7.2907,7.2907,7.2907,7.2907,7.2997,7.3116,7.3116,7.3116,7.3116,7.3116,7.3206,7.3343,7.3343,7.3343,7.3343,7.3343,7.3762,7.3618,7.2029,7.1824,7.0813,6.759,6.6344,6.522,6.3665,6.3466,6.35,6.35,6.3178,6.3229,6.3802,6.335,6.3028,6.3153,6.3279,6.3329,6.3329,6.3902,6.4203,6.4203,6.5032,6.5459,6.5459,6.5886,6.609,6.609,6.609,6.609,6.8605,7.0117,7.1131,7.0477,7.024,6.9428,6.6485,6.574,6.5097,6.2932,6.3599,6.4613,6.4681,6.6413,6.7846,6.797,6.8549,6.9235,6.9914,7.0064,7.0277,7.0829,7.0889,7.0889,7.0889,7.0889,7.0889,7.0889,7.1457,7.1294,7.0157,7.1816,7.2219,7.0949,7.1564,7.1593,7.0919,7.0366,7.0097,7.0157,7.0097,7.0396,7.0979,7.0919,7.0889,7.0889,7.0889,0.0,0.0,7.0889,7.0889,7.0949,7.1577,7.1863,7.1983,7.2578,7.3223,7.3821,7.3821,7.4227,7.4706,7.4706,7.3881,7.2907,7.2907,7.2907,7.2907,7.2907,7.3343,7.3821,7.3821,7.3821,7.3821,7.3821,7.4287,7.4706,7.4706,7.4706,7.4706,7.4706,7.4766,7.4745,7.4543,7.3058,7.1766,7.1394,6.8181,6.5726,6.5529,6.3993,6.2877,6.2877,6.3324,6.3847,6.4375,6.3948,6.3847,6.43,6.4802,6.5057,6.5057,6.5584,6.5886,6.5886,6.5986,6.6036,6.6036,6.6086,6.609,6.609,6.609,6.609,6.9214,7.05,7.1131,7.0375,6.9868,6.8842,6.6282,6.5368,6.4647,6.3328,6.3869,6.4749,6.5189,6.6339,6.7689,6.9087,6.9528,7.0209,7.1805,7.1609,7.1335,7.1595,7.1198,7.0889,7.0889,7.0889,7.0889,7.0889,7.1158,7.0935,7.0037,7.1474,7.1697,7.0396,7.0636,7.0815,7.0889,7.0306,7.0187,7.053,7.053,7.0679,7.0889,7.0889,7.0889,7.0889,7.0889,0.0,0.0,7.0889,7.1128,7.1534,7.1803,7.2402,7.315,7.3402,7.3911,7.4497,7.4497,7.4676,7.4886,7.4886,7.4527,7.4108,7.4108,7.4108,7.4108,7.4108,7.4317,7.4497,7.4497,7.4497,7.4497,7.4497,7.4706,7.4886,7.4886,7.4886,7.4886,7.4886,7.4886,7.412,7.1722,7.0641,6.9262,6.679,6.5022,6.4002,6.4002,6.3306,6.2802,6.2802,6.335,6.3923,6.445,6.4601,6.4881,6.5434,6.566,6.5785,6.5785,6.5986,6.609,6.609,6.609,6.609,6.609,6.6463,6.6639,6.6639,6.6965,6.694,6.9597,7.0567,7.0838,7.0342,6.9462,6.8199,6.618,6.5131,6.44,6.3656,6.4096,6.4816,6.5571,6.6305,6.7478,6.953,6.9841,7.0573,7.278,7.2748,7.2425,7.2132,7.1793,7.1423,7.0938,7.0739,7.062,7.062,7.062,7.035,6.9738,7.0755,7.0935,7.0037,7.0157,7.047,7.0889,7.047,7.047,7.0889,7.0889,7.0889,7.0889,7.0889,7.0889,7.0889,7.0889,0.0,0.0,7.1098,7.1457,7.1953,7.2342,7.309,7.3911,7.4121,7.4497,7.4886,7.4886,7.4886,7.4886,7.4886,7.4886,7.4886,7.4886,7.4886,7.4886,7.4886,7.4886,7.4886,7.4886,7.4886,7.4886,7.4886,7.4886,7.4886,7.4886,7.4886,7.4886,7.4886,7.4426,7.3117,7.0264,6.8775,6.701,6.4123,6.3184,6.2802,6.2802,6.2802,6.2877,6.3053,6.345,6.3923,6.445,6.5003,6.5534,6.6086,6.609,6.609,6.609,6.609,6.609,6.609,6.609,6.609,6.609,6.6711,6.6912,6.6761,6.7292,6.7267,6.9597,7.0206,7.0206,7.0206,6.9056,6.7523,6.6045,6.5131,6.44,6.3656,6.4096,6.4816,6.5571,6.6305,6.7309,6.8876,6.9099,6.9874,7.1999,7.2986,7.3159,7.2206,7.2797,7.2643,7.1051,7.0366,7.0007,7.0007,6.9961,0.0,6.9034,6.9648,7.0007,7.0007,7.056,7.0889,7.0889,7.0889,7.0889,7.0889,7.0889,7.0889,7.0889,7.0889,7.0889,7.0889,0.0,0.0,0.0,7.1623,7.1893,7.2042,7.3343,7.3881,7.3971,7.4646,7.4886,7.4886,7.4886,7.4886,7.4886,7.4886,7.4886,7.4886,7.4886,7.4886,7.4886,7.4886,7.4886,7.4886,7.4886,7.4886,7.4886,7.4886,7.4886,7.4886,7.4886,7.4886,7.4886,7.4886,7.3293,7.1909,7.1874,6.8521,6.5824,6.5785,6.4083,6.2802,6.2802,6.2802,6.3028,6.3626,6.3701,6.3923,6.445,6.5003,6.5534,6.6086,6.609,6.609,6.609,6.609,6.609,6.609,6.609,6.609,6.609,6.6711,6.6689,6.6115,6.6736,6.6686,6.7557,6.8233,6.8379,6.7364,6.6755,6.6,6.4536,6.4028,6.3792,6.3545,6.4096,6.4816,6.5571,6.6305,6.7647,7.0184,7.104,7.2319,7.507,7.4716,7.4072,7.3776,7.2506,7.129,7.0385,7.0097,7.0007,7.0007,6.9542,6.9602,7.026,7.0127,7.0007,7.0007,7.0187,7.047,7.0889,7.0889,7.0889,7.0889,7.0889,7.0889,7.0889,7.0889,7.0889,0.0,0.0,0.0,7.1593,7.1803,7.2432,7.3313,7.3732,7.4197,7.4616,7.4826,7.4886,7.4886,7.4886,7.4886,7.4886,7.4886,7.4886,7.4886,7.4886,7.4886,7.4886,7.4886,7.4886,7.4886,7.4886,7.4886,7.4886,7.4886,7.4886,7.4886,7.4886,7.4886,7.4495,7.3105,7.235,7.1014,6.8218,6.6655,6.5339,6.3962,6.3204,6.2802,6.2802,6.2802,6.2877,6.3053,6.3776,6.445,6.5003,6.5204,6.5534,6.6086,6.609,6.609,6.609,6.6488,6.6736,6.6736,6.7066,6.7091,6.6736,6.7267,6.7442,6.7267,6.7442,6.7442,6.6102,6.6711,6.6924,6.6271,6.5696,6.5019,6.413,6.369,6.3589,6.3859,6.4512,6.5222,6.5967,6.6711,6.7918,7.0117,7.1334,7.2717,7.4875,7.5036,7.4731,7.4127,7.218,7.0649,7.0067,6.9768,6.9618,6.9618,6.9019,6.9199,7.05,7.0217,7.0097,7.032,7.0336,7.05,7.0889,7.0889,7.0889,7.0889,7.0889,7.0889,7.0889,7.0889,7.1038,0.0,0.0,7.1667,0.0,7.2535,7.315,7.3911,7.4197,7.4527,7.4886,7.4886,7.4886,7.4886,7.4886,7.4886,7.4886,7.4886,7.4886,7.4886,7.4886,7.4886,7.4886,7.4886,7.4886,7.4886,7.4886,7.4886,7.4886,7.4886,7.4886,7.4697,7.3916,7.3777,7.3187,7.1169,7.0125,6.8804,6.6227,6.5161,6.4237,6.3006,6.2802,6.2802,6.2802,6.3003,6.3224,6.3425,6.4274,6.5028,6.5559,6.5609,6.5735,6.6086,6.6312,6.6338,6.609,6.6865,6.7113,6.6686,6.7191,6.7216,6.666,6.7216,6.7593,6.7794,6.7794,6.7794,0.0,6.5503,6.5706,6.6328,6.5449,6.4444,6.4444,6.3961,0.0,6.4444,6.5121,6.5876,6.6734,6.7343,6.8064,6.9079,7.0343,7.1492,7.2339,7.4228,7.4937,7.3382,7.1838,7.0649,7.0067,6.9439,6.9064,6.9004,6.8481,6.869,7.0007,7.0067,7.032,7.0889,7.0889,7.0889,7.0889,7.0889,7.0889,7.0889,7.0889,7.0889,7.0889,7.0949,7.1308,0.0,0.0,7.2355,7.3027,7.3642,7.3911,7.4031,7.4646,7.4886,7.4886,7.4886,7.4886,7.4886,7.4886,7.4886,7.4886,7.4886,7.4886,7.4886,7.4886,7.4886,7.4886,7.4886,7.4886,7.4886,7.4886,7.4886,7.4886,7.4886,7.4886,7.4357,7.2332,7.1891,7.1278,6.9094,6.7118,6.5745,6.5608,6.4042,6.2802,6.2802,6.2802,6.2802,6.2802,6.335,6.3923,6.4425,6.4978,6.5534,6.609,6.614,6.614,6.614,6.6736,6.6786,6.6187,6.7216,6.7292,6.6187,6.6739,6.6739,6.6187,6.6739,6.7288,6.7744,6.7819,6.7869,6.3067,0.0,6.3927,6.3531,6.3159,6.2932,0.0,6.3226,6.3724,6.4444,6.4749,6.5425,6.7286,6.6846,6.7218,7.0286,7.0612,7.1299,7.3654,7.391,7.3456,7.2347,7.1448,7.0649,7.0067,6.9858,6.9558,6.9034,6.9319,6.9858,7.0649,7.0679,7.0739,7.0889,7.0889,7.0889,7.0889,7.0889,7.0889,7.0889,7.0889,7.0889,7.0919,7.1444,7.1743,0.0,7.2445,7.3043,7.3672,7.3821,7.4197,7.4676,7.4826,7.4886,7.4886,7.4886,7.4886,7.4886,7.4886,7.4886,7.4886,7.4886,7.4886,7.4886,7.4886,7.4886,7.4886,7.4886,7.4886,7.4886,7.4886,7.4886,7.4886,7.4886,7.4886,7.4357,7.2332,7.1891,7.0832,6.7234,6.6137,6.5319,6.3761,6.3103,6.2802,6.2802,6.2802,6.2802,6.2802,6.335,6.3923,6.4425,6.4978,6.5685,6.6711,6.6786,6.6786,6.6786,6.7314,6.7342,6.6811,6.7442,6.7467,6.6811,6.7317,6.7339,6.6786,6.7342,6.7489,6.7213,6.8045,6.8399,6.2323,6.2685,6.2888,6.2492,6.2391,6.2492,6.2821,6.3217,6.3724,6.4444,6.5155,6.5865,6.6711,6.7331,6.835,7.0467,7.0962,7.1618,7.3163,7.2708,7.1993,7.1512,7.1128,7.0649,7.0067,7.0007,6.9858,6.9498,6.9798,7.0277,7.0859,7.0889,7.0889,7.0889,7.0889,7.0889,7.0889,7.0889,7.0889,7.0889,7.1218,7.1368,7.1368,7.2056,7.2535,0.0,7.3193,7.3732,7.4377,7.4377,7.4557,7.4886,7.4886,7.4886,7.4886,7.4886,7.4886,7.4886,7.4886,7.4886,7.4886,7.4886,7.4886,7.4886,7.4886,7.4886,7.4886,7.4886,7.4886,7.4886,7.4886,7.4886,7.4886,7.4886,7.4886,7.4357,7.2332,7.1891,7.0704,6.6597,6.5804,6.5161,6.3143,6.2802,6.2802,6.2802,6.2802,6.2978,6.3525,6.4078,6.4752,6.5555,6.6133,6.6689,6.7292,6.7389,6.7263,6.7012,6.7493,6.7442,6.6614,6.7367,6.7668,6.7367,6.7414,6.7414,6.7389,6.7919,6.802,6.7744,6.8575,6.8977,6.2357,6.2729,6.283,6.2492,6.2391,6.256,6.3183,6.3521,6.3825,6.4343,6.5628,6.6502,6.611,6.8043,6.9907,7.0578,7.1581,7.2162,7.1841,7.1272,7.0949,7.1038,7.0949,7.0739,7.0336,7.0187,7.0127,7.0127,7.0127,7.0366,7.0889,7.0889,7.0889,7.0889,7.0889,7.0889,7.0889,7.0889,7.0949,7.1068,7.1623,7.1953,7.2072,7.2744,7.3373,7.3928,0.0,0.0,7.4886,7.4886,7.4886,7.4886,7.4886,7.4886,7.4886,7.4886,7.4886,7.4886,7.4886,7.4886,7.4886,7.4886,7.4886,7.4886,7.4886,7.4886,7.4886,7.4886,7.4886,7.4886,7.4886,7.4886,7.4886,7.4886,7.4886,7.4357,7.2332,7.1658,7.0309,6.6519,6.5529,6.481,6.3082,6.2802,6.2802,6.2802,6.2877,6.3324,6.435,6.5053,6.586,6.7012,6.7518,6.7819,6.7919,6.7844,6.7568,6.7037,6.7493,6.7342,6.6287,6.7166,6.7668,6.7668,6.7389,6.7439,6.7794,6.8424,6.8675,6.8625,6.9155,6.9406,6.298,6.4241,6.4725,6.2864,6.2391,6.2424,6.2526,6.3531,6.4299,6.3758,6.485,6.6238,6.7354,6.7913,6.9255,7.2399,7.3029,7.2468,7.0589,7.0661,7.1098,7.1683,7.1248,7.1098,7.1564,7.1098,7.0769,7.0769,7.0769,7.0799,7.0889,7.0889,7.0889,7.0889,7.0889,7.0889,7.0889,7.0889,7.1188,7.1743,7.1863,7.2206,7.2757,7.3432,7.3791,7.3941,0.0,7.4796,7.4886,7.4886,7.4886,7.4886,7.4886,7.4886,7.4886,7.4886,7.4886,7.4886,7.4886,7.4886,7.4886,7.4886,7.4886,7.4886,7.4886,7.4886,7.4886,7.4886,7.4886,7.4886,7.4886,7.4886,7.4886,7.4886,7.4886,7.4357,7.2332,7.0557,6.8662,6.6273,6.4438,6.3164,6.2843,6.2802,6.2802,6.2802,6.3229,6.3797,6.44,6.5358,6.6413,6.7543,6.7744,6.7995,6.8424,6.807,6.7568,6.7037,6.7493,6.7518,6.6887,6.7037,6.7113,6.7113,6.7945,6.817,6.7794,6.8801,6.9029,6.8625,6.9155,6.9406,6.1897,6.2821,6.3463,6.4048,6.5402,6.6721,6.7117,6.803,6.8504,6.7354,6.7996,6.8651,6.8424,6.9039,7.0228,7.2243,7.2621,7.2156,7.0687,7.0739,7.1009,7.1308,7.1398,7.1547,7.1863,7.1607,7.1427,7.1427,7.1098,7.0889,7.0889,7.0889,7.0889,7.0889,7.0889,7.0889,7.0889,7.1248,7.1593,7.1923,7.2641,7.3133,7.3462,7.4121,7.4437,7.4467,0.0,7.4886,7.4886,7.4886,7.4886,7.4886,7.4886,7.4886,7.4886,7.4886,7.4886,7.4886,7.4886,7.4886,7.4886,7.4886,7.4886,7.4886,7.4886,7.4886,7.4886,7.4886,7.4886,7.4886,7.4886,7.4886,7.4886,7.4886,7.4886,7.4357,7.2332,7.1159,6.957,6.6403,6.5042,6.4083,6.3006,6.2802,6.2902,6.3229,6.3525,6.4103,6.5208,6.6086,6.7015,6.8098,6.8224,6.8324,6.8575,6.7844,6.7263,6.7012,6.7238,6.7263,6.7012,6.7288,6.7568,6.7869,6.8349,6.8625,6.8675,6.9155,6.9255,6.9029,6.928,6.9406,6.1569,6.2313,6.3159,6.5605,6.7297,6.8853,7.0635,7.121,7.103,6.9917,7.0511,7.0764,6.9153,7.0494,7.1924,7.2192,7.229,7.2013,7.1025,7.0889,7.0889,7.0889,7.1504,7.1953,7.2116,7.2116,7.2116,7.2116,7.1517,7.1068,7.0919,7.0889,7.0889,7.0889,7.0889,7.0979,7.1128,7.1803,7.2116,7.2162,7.3313,7.3971,7.4168,7.4676,7.4886,7.4886,7.4886,7.4886,7.4886,7.4886,7.4886,7.4886,7.4886,7.4886,7.4886,7.4886,7.4886,7.4886,7.4886,7.4886,7.4886,7.4886,7.4886,7.4886,7.4886,7.4886,7.4886,7.4886,7.4886,7.4886,7.4886,7.4886,7.4886,7.4886,7.4886,7.4357,7.2332,7.1532,7.0125,6.65,6.5418,6.4643,6.3239,6.2902,6.3053,6.3776,6.3898,6.4404,6.5911,6.6614,6.7364,6.8299,6.8399,6.8399,6.8399,6.7543,6.7062,6.7188,6.7062,6.7062,6.7188,6.7693,6.8173,6.86,6.8726,6.8979,6.9406,6.9406,6.9406,6.9406,6.9406,6.9406,6.3565,6.5347,6.6633,6.7523,6.5334,6.4251,6.9157,6.9214,6.8201,6.8169,6.9789,7.0758,6.9261,7.1854,7.4001,7.3299,7.3172,7.2598,7.1102,7.0889,7.0889,7.0889,7.1504,7.2146,7.2757,7.2817,7.2817,7.2817,7.2206,7.1547,7.0949,7.0889,7.0889,7.0889,7.0889,7.1188,7.1833,7.2505,7.2817,7.2847,7.3552,7.4227,7.4826,7.4886,7.4886,7.4886,7.4886,7.4886,7.4886,7.4886,7.4886,7.4886,7.4886,7.4886,7.4886,7.4886,7.4886,7.4886,7.4886,7.4886,7.4886,7.4886,7.4886,7.4886,7.4886,7.4886,7.4886,7.4886,7.4886,7.4886,7.4886,7.4886,7.4886,7.4886,7.4886,7.4357,7.2332,7.0429,6.8454,6.6234,6.4278,6.3162,6.3546,6.3153,6.3178,6.4274,6.4425,6.4852,6.5961,6.6614,6.7238,6.7794,6.7869,6.7869,6.7869,6.7339,6.7213,6.7719,6.7288,6.7238,6.7719,6.8271,6.855,6.86,6.908,6.9356,6.9406,6.9406,6.9406,6.9406,6.9406,6.9406,6.1839,6.3961,6.5628,6.6349,6.618,6.706,7.1853,7.244,7.2293,7.3325,7.2979,7.2216,7.1169,7.2028,7.283,7.2604,7.2106,7.1569,7.097,7.0889,7.1038,7.1457,7.2116,7.2804,7.3462,7.3522,7.3343,7.2937,7.2265,7.1623,7.0949,7.0889,7.0889,7.0889,7.1308,7.1653,7.1893,7.2984,7.3522,7.3522,7.4197,7.4646,7.4886,7.4886,7.4886,7.4886,7.4886,7.4886,7.4886,7.4886,7.4886,7.4886,7.4886,7.4886,7.4886,7.4886,7.4886,7.4886,7.4886,7.4886,7.4886,7.4886,7.4886,7.4886,7.4886,7.4886,7.4886,7.4886,7.4886,7.4886,7.4886,7.4886,7.4886,7.4886,7.4886,7.4016,7.0722,6.969,6.8429,6.514,6.4132,6.3802,6.3701,6.3797,6.4124,6.4877,6.5283,6.5785,6.656,6.7141,6.7464,6.7339,6.7593,6.7668,6.7339,6.7417,6.7719,6.8249,6.812,6.8095,6.8274,6.8826,6.908,6.908,6.9306,6.9406,6.9406,6.9406,6.9406,6.9406,6.9406,6.9406,6.2144,6.3971,6.5652,6.7083,6.7861,6.9451,7.3939,7.3993,7.3703,7.5747,7.449,7.2849,7.2265,7.2267,7.2303,7.2135,7.1416,7.0889,7.0889,7.0889,7.1158,7.1833,7.2505,7.3146,7.3821,7.4108,7.3941,7.3283,7.2595,7.1906,7.1248,7.1009,7.1009,7.1218,7.1653,7.2102,7.2521,7.3432,7.4018,7.4227,7.4676,7.4886,7.4886,7.4886,7.4886,7.4886,7.4886,7.4886,7.4886,7.4886,7.4886,7.4886,7.4886,7.4886,7.4886,7.4886,7.4886,7.4886,7.4886,7.4886,7.4916,7.5155,7.5215,7.5245,7.5437,7.5497,7.5497,7.5497,7.5365,7.5275,7.5455,7.5215,7.4886,7.4886,7.454,7.3286,6.9877,6.908,6.8001,6.4601,6.44,6.4701,6.4479,6.4756,6.5254,6.5982,6.6112,6.6312,6.6912,6.7141,6.7116,6.6761,6.7191,6.7489,6.7288,6.7744,6.8274,6.8826,6.8851,6.8851,6.8851,6.9205,6.9406,6.9406,6.9406,6.9406,6.9406,6.9406,6.9406,6.9406,6.9406,6.9406,6.5266,6.6237,6.7546,7.0511,7.0218,7.0331,7.4695,7.2826,7.0992,7.3986,7.3436,7.2359,7.2125,7.2742,7.3024,7.2235,7.1416,7.0889,7.0889,7.0889,7.1158,7.1833,7.2505,7.3163,7.3851,7.4497,7.4616,7.3941,7.3266,7.2624,7.1953,7.1278,7.1218,7.1893,7.1923,7.2551,7.3881,7.3911,7.4257,7.4886,7.4886,7.4886,7.4886,7.4886,7.4886,7.4886,7.4886,7.4886,7.4886,7.4886,7.4886,7.4886,7.4886,7.4886,7.4886,7.4916,7.4916,7.4916,7.4933,7.4916,7.5035,7.5677,7.5916,7.6018,7.6617,7.6779,7.6779,7.6779,7.6377,7.6066,7.6647,7.5886,7.4916,7.4916,7.3792,7.2156,7.0123,6.8562,6.6925,6.4914,6.4953,6.5484,6.6036,6.609,6.6488,6.7618,6.684,6.6338,6.6912,6.6463,6.609,6.609,6.6639,6.7238,6.7769,6.8299,6.8826,6.9356,6.9406,6.9406,6.9406,6.9406,6.9406,6.9406,6.9406,6.9406,6.9406,6.9406,6.9406,6.9406,6.9406,6.9406,6.2178,6.5459,6.8358,6.8189,7.1379,7.4796,7.554,7.4405,7.3284,7.3615,7.381,7.3502,7.2311,7.1844,7.1705,7.2042,7.1416,7.0889,7.0889,7.0889,7.1338,7.2475,7.2787,7.3343,7.4497,7.4766,7.4616,7.3941,7.3702,7.3103,7.1953,7.2146,7.2176,7.1923,7.2804,7.3492,7.3881,7.4377,7.4706,7.4886,7.4886,7.4886,7.4886,7.4886,7.4886,7.4886,7.4886,7.4886,7.4886,7.4886,7.4886,7.4886,7.4886,7.4886,7.4946,7.5437,7.5587,7.5647,7.6096,7.6228,7.6258,7.6467,7.6527,7.6587,7.6766,7.6779,7.6779,7.6779,7.6659,7.6676,7.7335,7.6856,7.6228,7.6228,7.4771,7.286,7.0856,6.9466,6.8017,6.6035,6.6388,6.699,6.6786,6.6736,6.6861,6.7188,6.6962,6.6811,6.6987,6.6463,6.6262,6.6686,6.7216,6.7769,6.8324,6.8851,6.923,6.9381,6.9406,6.9406,6.9406,6.9406,6.9406,6.9406,6.9406,6.9406,6.9406,6.9406,6.9406,6.9406,6.9406,6.9406,6.5222,6.8436,7.1267,7.1278,7.3849,7.6623,7.7333,7.6645,7.5362,7.3649,7.3947,7.3917,7.1967,7.1481,7.1432,7.1609,7.1216,7.0979,7.1248,7.1068,7.1487,7.3103,7.3057,7.3432,7.4766,7.4886,7.4736,7.4317,7.4031,7.3432,7.2355,7.2684,7.2698,7.2295,7.3343,7.4048,7.427,7.4706,7.4886,7.4886,7.4886,7.5035,7.5305,7.5006,7.4886,7.4886,7.4886,7.4886,7.4886,7.4886,7.4886,7.4933,7.5185,7.5305,7.5395,7.6018,7.6258,7.6317,7.6659,7.6779,7.6838,7.7125,7.7215,7.7245,7.7514,7.7574,7.7634,7.7933,7.7813,7.7753,7.8412,7.8083,7.7514,7.7275,7.4962,7.2489,7.1282,6.958,6.7924,6.6697,6.7367,6.7945,6.7414,6.7493,6.7543,6.7364,6.7138,6.6912,6.6664,6.6538,6.6589,6.6962,6.7668,6.8249,6.8575,6.908,6.9406,6.9406,6.9406,6.9406,6.9406,6.9406,6.9406,6.9406,6.9406,6.9406,6.9406,6.9406,6.9406,6.9406,6.9406,6.9406,7.1142,7.3093,7.5089,7.7176,7.6826,7.6758,7.9566,7.902,7.7069,7.411,7.4082,7.3829,7.1351,7.1512,7.1767,7.1011,7.0889,7.1128,7.1803,7.1368,7.1727,7.3672,7.3373,7.3492,7.4766,7.4886,7.4886,7.4886,7.4347,7.3732,7.3116,7.3146,7.3176,7.3176,7.3821,7.442,7.4976,7.4976,7.4946,7.4886,7.4886,7.5245,7.5886,7.5275,7.4976,7.4976,7.4976,7.4946,7.4886,7.4886,7.4946,7.5035,7.5647,7.5946,7.6048,7.6676,7.6886,7.6916,7.6976,7.6958,7.7095,7.7694,7.7891,7.8011,7.8699,7.8878,7.9028,7.9698,7.9417,7.9058,7.9728,7.9387,7.8759,7.822,7.4796,7.1662,7.1662,6.9269,6.7138,6.7138,6.7945,6.845,6.797,6.8221,6.8274,6.7744,6.7216,6.6736,6.6262,6.666,6.7037,6.7138,6.802,6.8625,6.8675,6.9105,6.9406,6.9406,6.9406,6.9406,6.9406,6.9406,6.9406,6.9406,6.9406,6.9406,6.9406,6.9406,6.9406,6.9406,6.9406,6.9406,6.6136,7.0353,7.4717,7.519,7.6847,7.8674,7.9904,7.902,7.7358,7.5478,7.522,7.4457,7.1457,7.1044,7.1112,7.0938,7.0889,7.1128,7.1803,7.1773,7.2252,7.3702,7.3762,7.4001,7.4826,7.4886,7.4886,7.4886,7.4766,7.4616,7.4467,7.4958,7.524,7.524,7.5839,7.6018,7.5677,7.5677,7.5407,7.4886,7.4886,7.5245,7.5916,7.5766,7.5677,7.5677,7.5677,7.5395,7.4886,7.4886,7.5215,7.5707,7.5856,7.6198,7.6706,7.7335,7.7574,7.7664,7.819,7.837,7.84,7.8519,7.8579,7.8699,7.9369,7.9578,7.9728,8.0405,8.0105,7.9728,8.0405,8.0105,7.9668,8.0075,7.6454,7.2903,7.2903,7.0478,6.8271,6.8271,6.8424,6.855,6.845,6.7819,6.7141,6.6564,6.6388,6.6413,6.6739,6.6912,6.7339,6.817,6.845,6.8776,6.918,6.9331,6.9406,6.9406,6.9406,6.9406,6.9406,6.9406,6.9406,6.9406,6.9406,6.9406,6.9406,6.9406,6.9406,6.9406,6.9406,6.9406,6.8267,7.1921,7.5461,7.6927,7.82,7.9283,8.004,7.9593,7.8578,7.7027,7.611,7.4866,7.2472,7.2061,7.1792,7.1018,7.1158,7.1607,7.2265,7.2385,7.2864,7.4227,7.4108,7.4168,7.4826,7.4886,7.4886,7.4886,7.4886,7.4886,7.4886,7.5245,7.5557,7.5886,7.6198,7.6347,7.6317,7.6317,7.6168,7.5796,7.5796,7.6006,7.6317,7.6317,7.6317,7.6317,7.6317,7.6108,7.5796,7.5796,7.6036,7.6347,7.6676,7.7006,7.7365,7.8041,7.828,7.834,7.8687,7.8807,7.8807,7.8807,7.8807,7.8926,7.9608,7.9788,7.9997,8.1003,8.1033,8.0823,8.1183,8.1003,8.0764,8.0794,7.7202,7.3791,7.3791,7.1051,6.8525,6.8271,6.8424,6.8424,6.7919,6.7141,6.6463,6.6162,6.6338,6.6639,6.6962,6.7464,6.7995,6.855,6.8826,6.908,6.9381,6.9406,6.9406,6.9406,6.9406,6.9406,6.9406,6.9406,6.9406,6.9406,6.9406,6.9406,6.9406,6.9406,6.9406,6.9406,6.9406,6.9406,7.0984,7.368,7.6284,7.9397,7.9667,7.9283,8.004,7.9998,7.9508,7.8525,7.7069,7.5435,7.3627,7.3276,7.2767,7.1164,7.1457,7.2116,7.2817,7.2997,7.3522,7.4736,7.4407,7.4287,7.4856,7.4886,7.4886,7.4886,7.5006,7.5125,7.5215,7.5335,7.5724,7.6395,7.6395,7.6587,7.6976,7.6958,7.6838,7.6647,7.6749,7.6838,7.6976,7.7095,7.7035,7.6808,7.6898,7.6898,7.6779,7.6779,7.6886,7.7035,7.7574,7.7873,7.8041,7.8579,7.8807,7.8807,7.8807,7.8807,7.8807,7.8807,7.8807,7.8926,7.9608,7.9788,8.0057,8.1272,8.156,8.1471,8.1471,8.1471,8.1228,8.0277,7.7113,7.4301,7.4301,7.1304,6.8424,6.7894,6.8095,6.802,6.7037,6.6513,6.6262,6.6262,6.6739,6.7163,6.7263,6.8045,6.8625,6.8726,6.913,6.9406,6.9406,6.9406,6.9406,6.9406,6.9406,6.9406,6.9406,6.9406,6.9406,6.9406,6.9406,6.9406,6.9406,6.9406,6.9406,6.9406,6.9406,6.9406,6.5797,7.015,7.563,7.9295,7.9667,7.9283,8.004,7.9163,7.8538,7.967,7.867,7.6688,7.3747,7.3261,7.2767,7.1164,7.1457,7.2116,7.2817,7.3402,7.4031,7.4796,7.4826,7.4796,7.4886,7.4886,7.4886,7.4886,7.5455,7.6006,7.6527,7.7113,7.7711,7.837,7.84,7.816,7.7664,7.7682,7.7095,7.6036,7.6557,7.7095,7.7694,7.828,7.7921,7.6838,7.7424,7.7335,7.6779,7.6779,7.7155,7.7664,7.7771,7.816,7.8687,7.8777,7.8807,7.8807,7.8807,7.8807,7.8807,7.8807,7.8807,7.8926,7.9608,7.9788,7.9967,8.0734,8.0524,8.0057,8.0057,8.0057,7.9574,7.7609,7.5687,7.4301,7.4301,7.1304,6.8424,6.7894,6.7467,6.699,6.6338,6.6589,6.6887,6.6887,6.7342,6.7869,6.8324,6.85,6.8776,6.923,6.9356,6.9406,6.9406,6.9406,6.9406,6.9406,6.9406,6.9406,6.9406,6.9406,6.9406,6.9406,6.9406,6.9406,6.9406,6.9406,6.9406,6.9406,6.9406,6.9406,6.7523,7.1706,7.6014,7.9363,7.9972,7.9803,8.0141,7.9683,7.9392,8.0048,7.967,7.8251,7.5129,7.4555,7.3888,7.1807,7.2026,7.2684,7.3373,7.4031,7.4557,7.4856,7.4886,7.4886,7.4886,7.4886,7.4886,7.4886,7.5527,7.6168,7.6766,7.7095,7.7724,7.8777,7.843,7.828,7.837,7.837,7.8071,7.7502,7.7394,7.7514,7.7813,7.81,7.813,7.7951,7.822,7.819,7.7921,7.7921,7.81,7.837,7.837,7.8519,7.8807,7.8807,7.8807,7.8807,7.8807,7.8807,7.8807,7.8807,7.8807,7.8926,7.9608,7.9788,7.9937,8.0614,8.0584,8.0356,8.0356,8.0356,7.9816,7.7663,7.5687,7.3894,7.2381,6.9983,6.7995,6.7464,6.7163,6.6912,6.6639,6.7066,6.7464,6.7464,6.7894,6.8324,6.8575,6.8876,6.913,6.9381,6.9406,6.9406,6.9406,6.9406,6.9406,6.9406,6.9406,6.9406,6.9406,6.9406,6.9406,6.9406,6.9406,6.9406,6.9406,6.9406,6.9406,6.9406,6.9406,6.9406,6.8933,7.2056,7.4559,7.8145,7.9194,7.9498,8.0073,8.0209,8.0209,8.0209,8.0209,7.9275,7.6166,7.5594,7.4776,7.2298,7.2475,7.3116,7.3791,7.4467,7.4886,7.4886,7.4886,7.4886,7.4886,7.4886,7.4886,7.4886,7.5647,7.6317,7.6779,7.6976,7.7514,7.8519,7.8071,7.8041,7.8519,7.8549,7.8639,7.8807,7.813,7.7891,7.8041,7.8041,7.834,7.8807,7.8807,7.8807,7.8807,7.8807,7.8807,7.8807,7.8807,7.8807,7.8807,7.8807,7.8807,7.8807,7.8807,7.8807,7.8807,7.8807,7.8807,7.8878,7.9387,7.9548,7.9656,8.0165,8.0285,8.0285,8.0285,8.0285,7.9616,7.6953,7.5058,7.3049,7.011,6.8347,6.7292,6.7037,6.6987,6.7037,6.7188,6.7643,6.7995,6.7995,6.845,6.8801,6.8801,6.9155,6.9406,6.9406,6.9406,6.9406,6.9406,6.9406,6.9406,6.9406,6.9406,6.9406,6.9406,6.9406,6.9406,6.9406,6.9406,6.9406,6.9406,6.9406,6.9406,6.9406,6.9406,6.9406,6.6846,6.8199,6.9519,7.4661,7.6521,7.7638,7.9701,8.0209,8.0209,8.0209,8.0209,7.9275,7.6166,7.5594,7.4776,7.2298,7.2475,7.3116,7.3791,7.4467,7.4886,7.4886,7.4886,7.4886,7.4886,7.4886,7.4886,7.4886,7.6066,7.6766,7.6779,7.7394,7.7801,7.7861,7.7831,7.7831,7.7861,7.7861,7.816,7.8807,7.813,7.813,7.8747,7.8747,7.8777,7.8807,7.8807,7.8807,7.8807,7.8807,7.8807,7.8807,7.8807,7.8807,7.8807,7.8807,7.8807,7.8807,7.8807,7.8807,7.8807,7.8807,7.8807,7.8807,7.8819,7.8849,7.8867,7.8878,7.8878,7.8878,7.8878,7.8878,7.7873,7.3728,7.2668,7.1595,6.7954,6.665,6.6363,6.6887,6.6987,6.7163,6.7668,6.8221,6.855,6.855,6.9004,6.9356,6.9356,6.9381,6.9406,6.9406,6.9406,6.9406,6.9406,6.9406,6.9406,6.9406,6.9406,6.9406,6.9406,6.9406,6.9406,6.9406,6.9406,6.9406,6.9406,6.9406,6.9406,6.9406,6.9406,6.9406,6.6711,6.7895,6.8944,7.3218,7.5608,7.7096,7.7908,7.9194,8.0209,8.0209,8.0209,7.9546,7.744,7.7082,7.6094,7.3034,7.3561,7.4403,7.453,7.4736,7.4886,7.4886,7.4886,7.4886,7.4886,7.4886,7.4886,7.4886,7.5335,7.5587,7.5587,7.6215,7.6766,7.7155,7.7574,7.8011,7.843,7.843,7.8549,7.8807,7.8549,7.8549,7.8807,7.8807,7.8807,7.8807,7.8807,7.8807,7.8807,7.8807,7.8807,7.8807,7.8807,7.8807,7.8807,7.8807,7.8807,7.8807,7.8807,7.8807,7.8807,7.8807,7.8807,7.8807,7.8807,7.8807,7.8807,7.8807,7.8807,7.8807,7.8807,7.8807,7.7736,7.3507,7.04,6.814,6.7208,6.6836,6.6736,6.6962,6.7565,6.8095,6.8274,6.8776,6.9105,6.9105,6.928,6.9406,6.9406,6.9406,6.9406,6.9406,6.9406,6.9406,6.9406,6.9406,6.9406,6.9406,6.9406,6.9406,6.9406,6.9406,6.9406,6.9406,6.9406,6.9406,6.9406,6.9406,6.9406,6.9406,6.9406,6.9406,6.5189,6.6406,6.7624,7.1154,7.3172,7.4796,7.6792,7.801,7.8991,8.0006,8.0209,7.9559,7.7528,7.7963,7.778,7.4964,7.466,7.4983,7.5627,7.5248,7.4886,7.4886,7.4886,7.4886,7.4886,7.4886,7.4886,7.4886,7.4886,0.0,7.4886,7.5335,7.5929,7.6779,7.7245,7.7873,7.8807,7.8807,7.8807,7.8807,7.8807,7.8807,7.8807,7.8807,7.8807,7.8807,7.8807,7.8807,7.8807,7.8807,7.8807,7.8807,7.8807,7.8807,7.8807,7.8807,7.8807,7.8807,7.8807,7.8807,7.8807,7.8807,7.8807,7.8807,7.8807,7.8807,7.8807,7.8807,7.8807,7.8807,7.8807,7.7736,7.6036,7.3406,6.9514,6.6564,6.7138,6.7138,6.7113,6.7489,6.812,6.865,6.8851,6.9155,6.9406,6.9406,6.9406,6.9406,6.9406,6.9406,6.9406,6.9406,6.9406,6.9406,6.9406,6.9406,6.9406,6.9406,6.9406,6.9406,6.9406,6.9406,6.9406,6.9406,6.9406,6.9406,6.9406,6.9406,6.9406,6.9406,6.9406,6.9406,0.0,0.0,0.0,6.8267,6.9079,7.0635,7.6432,7.6635,7.6454,7.9464,8.0073,7.9167,7.628,7.8157,7.9639,7.8051,7.5721,7.4821,7.6936,7.5916,7.4954,7.4903,7.4886,7.4886,7.4886,7.4886,7.4886,7.4886,7.4886,7.4886,7.4886,7.4946,7.5527,7.6749,7.6838,7.7484,7.8759,7.8807,7.8807,7.8807,7.8807,7.8807,7.8807,7.8807,7.8807,7.8807,7.8807,7.8807,7.8807,7.8807,7.8807,7.8807,7.8807,7.8807,7.8807,7.8807,7.8807,7.8807,7.8807,7.8807,7.8807,7.8807,7.8807,7.8807,7.8807,7.8807,7.8807,7.8807,7.8807,7.8807,7.8807,7.5666,7.2624,7.3172,7.0072,6.7163,6.7693,6.7392,6.7364,6.8399,6.8625,6.8801,6.9306,6.9406,6.9406,6.9406,6.9406,6.9406,6.9406,6.9406,6.9406,6.9406,6.9406,6.9406,6.9406,6.9406,6.9406,6.9406,6.9406,6.9406,6.9406,6.9406,6.9406,6.9406,6.9406,6.9406,6.9406,6.9406,6.9406,6.9406,6.9406,6.9406,6.2675,0.0,0.0,0.0,0.0,0.0,7.1312,7.2462,7.3984,7.6454,7.6927,7.7337,7.8684,7.9116,7.9488,8.0188,7.9167,7.767,7.5831,7.6169,7.6202,7.5057,7.4886,7.4886,7.4886,7.4886,7.4886,0.0,7.4886,7.4886,7.4886,7.5766,7.6437,7.6779,7.7724,7.819,7.8071,7.8549,7.8807,7.8807,7.8807,7.8807,7.8807,7.8807,7.8807,7.8807,7.8807,7.8807,7.8807,7.8807,7.8807,7.8807,7.8807,7.8807,7.8807,7.8807,7.8807,7.8807,7.8807,7.8807,7.8807,7.8807,7.8807,7.8807,7.8807,7.8807,7.8807,7.8807,7.8807,7.8807,7.8807,7.5666,7.2624,7.3172,7.0072,6.7263,6.8196,6.8249,6.8249,6.855,6.8926,6.923,6.9381,6.9406,6.9406,6.9406,6.9406,6.9406,6.9406,6.9406,6.9406,6.9406,6.9406,6.9406,6.9406,6.9406,6.9406,6.9406,6.9406,6.9406,6.9406,6.9406,6.9406,6.9406,6.9406,6.9406,6.9406,6.9406,6.9406,6.9406,6.9406,6.9406,0.0,0.0,6.485,6.5899,0.0,0.0,7.0861,7.1672,7.2992,7.6792,7.757,7.7905,7.903,7.883,7.8661,7.9263,7.9747,7.9422,7.7732,7.6809,7.6202,7.5933,7.5303,7.4886,7.4886,7.4886,7.4886,7.4886,7.4646,7.4587,7.4886,7.5886,7.6557,7.6779,7.7831,7.819,7.7801,7.846,7.8807,7.8807,7.8807,7.8807,7.8807,7.8807,7.8807,7.8807,7.8807,7.8807,7.8807,7.8807,7.8807,7.8807,7.8807,7.8807,7.8807,7.8807,7.8807,7.8807,7.8807,7.8807,7.8867,7.9118,7.9238,7.9267,7.9537,7.9627,7.9567,7.9297,7.8998,7.8807,7.8807,7.5666,7.2679,7.3455,7.0394,6.7618,6.8701,6.8929,6.8929,6.8929,6.918,6.9406,6.9406,6.9406,6.9406,6.9406,6.9406,6.9406,6.9406,6.9406,6.9406,6.9406,6.9406,6.9406,6.9406,6.9406,6.9406,6.9406,6.9406,6.9406,6.9406,6.9406,6.9406,6.9406,6.9406,6.9406,6.9406,6.9406,6.9406,6.9406,6.9406,6.9406,0.0,0.0,0.0,0.0,6.5753,0.0,7.2281,7.2078,7.2247,7.7807,7.8957,7.8661,7.7589,7.7496,7.7251,7.6413,7.8187,7.9893,8.038,7.7701,7.6086,7.7067,7.5972,7.5163,7.5163,7.5006,7.4886,7.4886,7.4437,7.442,7.5185,7.5796,7.6347,7.6886,7.7544,7.7891,7.7801,7.846,7.8807,7.8807,7.8807,7.8807,7.8807,7.8807,7.8807,7.8807,7.8807,7.8807,7.8807,7.8807,7.8807,7.8807,7.8807,7.8807,7.8807,7.8807,7.8807,7.8807,7.8807,7.8867,7.8998,7.9608,7.9848,8.0027,8.0614,8.0794,8.0674,8.0087,7.9447,7.8908,7.8908,7.5762,7.2825,7.3876,7.0926,6.817,6.918,6.9406,6.9406,6.9406,6.9406,6.9406,6.9406,6.9406,6.9406,6.9406,6.9406,6.9406,6.9406,6.9406,6.9406,6.9406,6.9406,6.9406,6.9406,6.9406,6.9406,6.9406,6.9406,6.9406,6.9406,6.9406,6.9406,6.9406,6.9406,6.9406,6.9406,6.9406,6.9406,6.9406,6.9406,6.9406,0.0,0.0,0.0,0.0,0.0,0.0,6.7252,6.7094,6.7624,7.0635,7.1278,7.1909,7.3993,7.4842,7.4981,7.4244,7.5899,7.7065,7.6438,7.8911,7.9699,7.6849,7.6689,7.6816,7.6816,7.5661,7.4886,7.4886,7.5258,7.6006,7.7173,7.7352,7.7484,7.7604,7.825,7.834,7.7801,7.846,7.8807,7.8807,7.8807,7.8807,7.8807,7.8807,7.8807,7.8807,7.8807,7.8807,7.8807,7.8807,7.8807,7.8807,7.8807,7.8807,7.8807,7.8807,7.8807,7.8807,7.8807,7.9148,7.9608,7.9758,8.0147,8.0644,8.0764,8.0794,8.0764,8.0644,8.0117,7.9608,7.9608,7.6387,7.331,7.3939,7.1194,6.8625,6.9255,6.9406,6.9406,6.9406,6.9406,6.9406,6.9406,6.9406,6.9406,6.9406,6.9406,6.9406,6.9406,6.9406,6.9406,6.9406,6.9406,6.9406,6.9406,6.9406,6.9406,6.9406,6.9406,6.9406,6.9406,6.9406,6.9406,6.9406,6.9406,6.9406,6.9406,6.9406,6.9406,6.9406,6.9406,6.9406,0.0,0.0,0.0,6.617,0.0,0.0,0.0,6.7669,6.8132,7.0781,7.1278,7.1627,7.2744,7.2927,7.3024,7.3452,7.4972,7.5717,7.4474,7.7524,7.9562,7.8805,7.8257,7.7795,7.734,7.6568,7.5762,7.4954,7.5215,7.5946,7.7245,7.7305,7.7454,7.7801,7.846,7.846,7.7813,7.846,7.8807,7.8807,7.8807,7.8807,7.8807,7.8807,7.8807,7.8807,7.8807,7.8807,7.8807,7.8807,7.8807,7.8807,7.8807,7.8807,7.8807,7.8807,7.8807,7.8807,7.8807,7.9238,7.9848,8.0177,8.0764,8.1381,8.171,8.156,8.1302,8.1302,8.0823,8.0296,8.0296,7.7068,7.3937,7.4455,7.1531,6.8751,6.928,6.9406,6.9406,6.9406,6.9406,6.9406,6.9406,6.9406,6.9406,6.9406,6.9406,6.9406,6.9406,6.9406,6.9406,6.9406,6.9406,6.9406,6.9406,6.9406,6.9406,6.9406,6.9406,6.9406,6.9406,6.9406,6.9406,6.9406,6.9406,6.9406,6.9406,6.9406,6.9406,6.9406,6.9406,6.9406,0.0,0.0,0.0,0.0,0.0,6.6552,0.0,0.0,0.0,0.0,7.1864,7.1594,7.1007,7.0487,7.0543,7.1795,7.3472,7.4227,0.0,7.5066,0.0,7.9785,7.9477,7.8738,7.7905,7.7401,7.653,7.5027,7.4786,7.5343,7.6724,7.6779,7.7185,7.7981,7.8519,7.8519,7.8011,7.8519,7.8807,7.8807,7.8807,7.8807,7.8807,7.8807,7.8807,7.8807,7.8807,7.8807,7.8807,7.8807,7.8807,7.8807,7.8807,7.8807,7.8807,7.8807,7.8807,7.8807,7.8807,7.9327,8.0087,8.0614,8.1351,8.2069,8.2627,8.2417,8.1979,8.1979,8.153,8.0973,8.0973,7.806,7.5084,7.5095,7.2185,6.9409,6.9418,6.9406,6.9406,6.9406,6.9406,6.9406,6.9406,6.9406,6.9406,6.9406,6.9406,6.9406,6.9406,6.9406,6.9406,6.9406,6.9406,6.9406,6.9406,6.9406,6.9406,6.9406,6.9406,6.9406,6.9406,6.9406,6.9406,6.9406,6.9406,6.9406,6.9406,6.9406,6.9406,6.9406,6.9406,6.9406,0.0,0.0,0.0,0.0,6.6237,0.0,0.0,0.0,0.0,0.0,0.0,0.0,0.0,0.0,0.0,0.0,0.0,0.0,7.0591,7.2532,7.4536,7.6129,7.8987,8.0527,7.9757,7.7765,7.6041,7.4975,7.4389,7.4888,7.6699,7.6779,7.7365,7.8639,7.8759,7.8759,7.8687,7.8759,7.8807,7.8807,7.8807,7.8807,7.8807,7.8807,7.8807,7.8807,7.8807,7.8807,7.8807,7.8807,7.8807,7.8807,7.8807,7.8807,7.8807,7.8807,7.8807,7.8807,7.8807,7.9627,8.0704,8.0764,8.165,8.2687,8.2776,8.2747,8.2687,8.2687,8.2189,8.168,8.168,7.9799,7.7469,7.5553,7.3664,7.1774,6.9828,6.9406,6.9406,6.9406,6.9406,6.9406,6.9406,6.9406,6.9406,6.9406,6.9406,6.9406,6.9406,6.9406,6.9406,6.9406,6.9406,6.9406,6.9406,6.9406,6.9406,6.9406,6.9406,6.9406,6.9406,6.9406,6.9406,6.9406,6.9406,6.9406,6.9406,6.9406,6.9406,6.9406,6.9406,6.9406,0.0,0.0,0.0,0.0,0.0,0.0,6.6024,0.0,6.5571,0.0,0.0,0.0,0.0,0.0,0.0,0.0,6.7184,0.0,0.0,0.0,7.293,7.4856,0.0,0.0,7.8626,7.7292,7.6357,7.6314,7.4504,7.4258,7.6165,7.6288,7.6856,7.819,7.8579,7.8807,7.8807,7.8807,7.8807,7.8807,7.8807,7.8807,7.8807,7.8807,7.8807,7.8807,7.8807,7.8807,7.8807,7.8807,7.8807,7.8807,7.8807,7.8807,7.8807,7.8807,7.8807,7.8867,7.9238,8.0016,8.0913,8.171,8.2357,8.2806,8.2806,8.2806,8.2806,8.2806,8.2597,8.2387,8.2387,7.9743,7.6817,7.5896,7.3176,7.056,6.9606,6.9406,6.9406,6.9406,6.9406,6.9406,6.9406,6.9406,6.9406,6.9406,6.9406,6.9406,6.9406,6.9406,6.9406,6.9406,6.9406,6.9406,6.9406,6.9406,6.9406,6.9406,6.9406,6.9406,6.9406,6.973,6.9755,6.9406,6.973,6.973,6.9406,6.9406,6.9406,6.9406,6.9406,6.9406,6.644,0.0,0.0,0.0,0.0,0.0,0.0,0.0,0.0,0.0,0.0,0.0,0.0,0.0,0.0,0.0,0.0,6.6812,0.0,6.8256,7.059,0.0,0.0,0.0,0.0,7.6384,7.6053,7.6379,7.4315,7.3875,7.581,7.6048,7.6647,7.7753,7.846,7.8807,7.8807,7.8807,7.8807,7.8807,7.8807,7.8807,7.8807,7.8807,7.8807,7.8807,7.8807,7.8807,7.8807,7.8807,7.8807,7.8807,7.8807,7.8807,7.8807,7.8807,7.8926,7.9148,7.9638,8.0356,8.1242,8.2417,8.2806,8.2806,8.2806,8.2806,8.2806,8.2806,8.2806,8.2806,8.2806,7.9934,7.684,7.6242,7.3147,7.0139,6.9516,6.9406,6.9406,6.9406,6.9406,6.9406,6.9406,6.9406,6.9406,6.9406,6.9406,6.9406,6.9406,6.9406,6.9406,6.9406,6.9406,6.9406,6.9406,6.9406,6.9406,6.9406,6.9406,6.9406,6.9406,6.9828,6.9928,6.9654,6.9903,6.9928,6.9654,6.9481,6.9406,6.9406,6.9406,6.9406,0.0,0.0,0.0,6.5527,0.0,0.0,0.0,0.0,6.6362,0.0,0.0,0.0,0.0,0.0,0.0,0.0,0.0,0.0,0.0,0.0,6.6721,6.9011,0.0,0.0,0.0,7.5009,7.4507,0.0,7.3487,7.3918,7.5802,7.6467,7.7095,7.7801,7.846,7.8807,7.8807,7.8807,7.8807,7.8807,7.8807,7.8807,7.8807,7.8807,7.8807,7.8807,7.8807,7.8807,7.8807,7.8807,7.8807,7.8807,7.8807,7.8807,7.8807,7.8807,7.9208,7.9758,7.9788,8.0674,8.189,8.2567,8.2806,8.2806,8.2806,8.2806,8.2806,8.2806,8.2806,8.2806,8.2806,8.1068,7.8763,7.6614,7.4361,7.2092,6.9873,6.9406,6.9406,6.9406,6.9406,6.9406,6.9406,6.9406,6.9406,6.9406,6.9406,6.9406,6.9406,6.9406,6.9406,6.9406,6.9406,6.9406,6.9406,6.9406,6.9406,6.9406,6.9406,6.9406,6.9406,6.9406,6.9679,7.0275,6.9705,6.9705,7.0275,6.9679,6.9406,6.9406,6.9406,6.9406,0.0,0.0,7.271,6.7963,0.0,0.0,0.0,0.0,0.0,0.0,0.0,0.0,0.0,0.0,0.0,0.0,0.0,0.0,0.0,0.0,6.6349,6.8098,7.1176,7.3043,7.2751,0.0,0.0,0.0,7.4145,0.0,7.5168,7.5856,7.6497,7.7125,7.7801,7.834,7.8807,7.8807,7.8807,7.8807,7.8807,7.8807,7.8807,7.8807,7.8807,7.8807,7.8807,7.8807,7.8807,7.8807,7.8807,7.8807,7.8807,7.8807,7.8807,7.8807,7.8938,7.9267,8.0165,8.1351,8.2507,8.2717,8.2806,8.2806,8.2806,8.2806,8.2806,8.2806,8.2806,8.2806,8.2806,8.1106,7.8843,7.6634,7.4424,7.218,6.9873,6.9406,6.9406,6.9406,6.9406,6.9406,6.9406,6.9406,6.9406,6.9406,6.9406,6.9406,6.9406,6.9406,6.9406,6.9406,6.9406,6.9406,6.9406,6.9406,6.9406,6.9406,6.9406,6.9579,6.9978,6.9978,7.0277,7.083,7.0277,7.0277,7.083,6.988,6.9604,6.9978,6.9604,6.9406,7.4289,7.5236,0.0,7.0669,7.1142,0.0,6.6261,0.0,0.0,0.0,0.0,0.0,0.0,0.0,0.0,0.0,0.0,0.0,0.0,6.5324,0.0,6.7387,6.9451,7.1244,7.2349,7.2663,7.3844,7.6373,7.4297,7.3741,7.5647,7.5859,7.6168,7.6779,7.7454,7.813,7.8807,7.8807,7.8807,7.8807,7.8807,7.8807,7.8807,7.8807,7.8807,7.8807,7.8807,7.8807,7.8807,7.8807,7.8807,7.8807,7.8807,7.8807,7.8807,7.8807,7.9088,7.9656,8.0764,8.189,8.2806,8.2806,8.2806,8.2806,8.2806,8.2806,8.2836,8.3057,8.2967,8.2866,8.3057,8.0707,7.7868,7.6428,7.3785,7.12,6.9719,6.9406,6.9406,6.9406,6.9406,6.9406,6.9406,6.9406,6.9406,6.9406,6.9406,6.9406,6.9406,6.9406,6.9406,6.9406,6.9406,6.9406,6.9406,6.9406,6.9481,6.9705,6.9705,6.9978,7.0554,7.0579,7.0755,7.1106,7.0755,7.0755,7.1106,7.0357,7.0204,7.0554,6.9978,6.9705]},{"header":{"parameterUnit":"m.s-1","parameterCategory":1,"la1":30.6,"la2":29.2853,"lo1":-89.7004,"lo2":-87.6739,"dx":0.0162,"dy":0.0183,"nx":112,"ny":82,"refTime":"2022-12-19T06:00:00:Z","depth":0,"parameterNumber":3,"parameterNumberName":"V-component_of_WINDS"},"data":[0.0,0.0,0.0,0.0,0.0,0.0,0.0,0.0,0.0,0.0,0.0,0.0,0.0,0.0,0.0,0.0,0.0,0.0,0.0,0.0,0.0,0.0,0.0,0.0,0.0,0.0,0.0,0.0,0.0,0.0,0.0,0.0,0.0,0.0,0.0,0.0,0.0,0.0,0.0,0.0,0.0,0.0,0.0,0.0,0.0,0.0,0.0,0.0,0.0,0.0,0.0,0.0,0.0,0.0,0.0,0.0,0.0,0.0,0.0,0.0,0.0,0.0,0.0,0.0,0.0,0.0,0.0,0.0,0.0,0.0,0.0,0.0,0.0,0.0,0.0,0.0,0.0,0.0,0.0,0.0,0.0,0.0,0.0,0.0,0.0,0.0,0.0,0.0,0.0,0.0,0.0,4.0395,4.1796,4.2487,4.235,4.1856,4.0362,3.75,0.0,0.0,0.0,0.0,0.0,0.0,0.0,0.0,0.0,0.0,0.0,0.0,0.0,0.0,0.0,0.0,0.0,0.0,0.0,0.0,0.0,0.0,0.0,0.0,0.0,0.0,0.0,0.0,0.0,0.0,0.0,0.0,0.0,0.0,0.0,0.0,0.0,0.0,0.0,0.0,0.0,0.0,0.0,0.0,0.0,0.0,0.0,0.0,0.0,0.0,0.0,0.0,0.0,0.0,0.0,0.0,0.0,0.0,0.0,0.0,0.0,0.0,0.0,0.0,0.0,0.0,0.0,0.0,0.0,0.0,0.0,0.0,0.0,0.0,0.0,0.0,0.0,0.0,0.0,0.0,0.0,0.0,0.0,0.0,0.0,0.0,0.0,0.0,0.0,0.0,0.0,0.0,0.0,0.0,0.0,0.0,0.0,0.0,0.0,0.0,0.0,0.0,0.0,0.0,3.7483,4.268,4.3837,4.3865,4.2964,4.2774,4.1343,3.809,0.0,0.0,0.0,0.0,0.0,0.0,0.0,0.0,0.0,0.0,0.0,0.0,0.0,0.0,0.0,0.0,0.0,0.0,0.0,0.0,0.0,0.0,0.0,0.0,0.0,0.0,0.0,0.0,0.0,0.0,0.0,0.0,0.0,0.0,0.0,0.0,0.0,0.0,0.0,0.0,0.0,0.0,0.0,0.0,0.0,0.0,0.0,0.0,0.0,0.0,0.0,0.0,0.0,0.0,0.0,0.0,0.0,0.0,0.0,0.0,0.0,0.0,0.0,0.0,0.0,0.0,0.0,0.0,0.0,0.0,0.0,0.0,0.0,0.0,0.0,0.0,0.0,0.0,0.0,0.0,0.0,0.0,0.0,0.0,0.0,0.0,0.0,0.0,0.0,0.0,0.0,0.0,0.0,0.0,0.0,0.0,0.0,0.0,0.0,0.0,0.0,0.0,0.0,3.8524,4.1641,4.5214,4.5558,4.5206,4.4432,4.3779,4.2133,3.912,3.8115,0.0,0.0,0.0,0.0,0.0,0.0,0.0,0.0,0.0,0.0,0.0,0.0,0.0,0.0,0.0,0.0,0.0,0.0,0.0,0.0,0.0,0.0,0.0,0.0,0.0,0.0,0.0,0.0,0.0,0.0,0.0,0.0,0.0,0.0,0.0,0.0,0.0,0.0,0.0,0.0,0.0,0.0,0.0,0.0,0.0,0.0,0.0,0.0,0.0,0.0,0.0,0.0,0.0,0.0,0.0,0.0,0.0,0.0,0.0,0.0,0.0,0.0,0.0,0.0,0.0,0.0,0.0,0.0,0.0,0.0,0.0,0.0,0.0,0.0,0.0,0.0,0.0,0.0,0.0,0.0,0.0,0.0,0.0,0.0,0.0,0.0,0.0,0.0,0.0,0.0,0.0,0.0,0.0,0.0,0.0,0.0,0.0,0.0,0.0,0.0,0.0,0.0,4.3609,4.5984,4.6998,4.6722,4.621,4.5562,4.4568,4.276,3.9873,3.8768,0.0,0.0,0.0,0.0,0.0,0.0,0.0,0.0,0.0,0.0,0.0,0.0,0.0,0.0,0.0,0.0,0.0,0.0,0.0,0.0,0.0,0.0,0.0,0.0,0.0,0.0,0.0,0.0,0.0,0.0,0.0,0.0,0.0,0.0,0.0,0.0,0.0,0.0,0.0,0.0,0.0,0.0,0.0,0.0,0.0,0.0,0.0,0.0,0.0,0.0,0.0,0.0,0.0,0.0,0.0,0.0,0.0,0.0,0.0,0.0,0.0,0.0,0.0,0.0,0.0,0.0,0.0,0.0,0.0,0.0,0.0,0.0,0.0,0.0,0.0,0.0,0.0,0.0,0.0,0.0,0.0,0.0,0.0,0.0,0.0,0.0,0.0,0.0,0.0,0.0,0.0,0.0,0.0,0.0,0.0,0.0,0.0,0.0,0.0,0.0,0.0,0.0,4.5045,4.8134,4.7199,4.7074,4.6622,4.5587,4.4905,4.3148,3.9898,3.917,0.0,0.0,0.0,0.0,0.0,0.0,0.0,0.0,0.0,0.0,0.0,0.0,0.0,0.0,0.0,0.0,0.0,0.0,0.0,0.0,0.0,0.0,0.0,0.0,0.0,0.0,0.0,0.0,0.0,0.0,0.0,0.0,0.0,0.0,0.0,0.0,0.0,0.0,0.0,0.0,0.0,0.0,0.0,0.0,0.0,0.0,0.0,0.0,0.0,0.0,0.0,0.0,0.0,0.0,0.0,0.0,0.0,0.0,0.0,0.0,0.0,0.0,0.0,0.0,0.0,0.0,0.0,0.0,0.0,0.0,0.0,0.0,0.0,0.0,0.0,0.0,0.0,0.0,0.0,0.0,0.0,0.0,0.0,0.0,0.0,0.0,0.0,0.0,0.0,0.0,0.0,0.0,0.0,0.0,0.0,0.0,0.0,0.0,0.0,0.0,0.0,0.0,4.4511,4.7606,0.0,4.8018,4.744,4.7029,4.5874,4.3876,4.0889,0.0,0.0,0.0,0.0,0.0,0.0,0.0,0.0,0.0,0.0,0.0,0.0,0.0,0.0,0.0,0.0,0.0,0.0,0.0,0.0,0.0,0.0,0.0,0.0,0.0,0.0,0.0,0.0,0.0,0.0,0.0,0.0,0.0,0.0,0.0,0.0,0.0,0.0,0.0,0.0,0.0,0.0,0.0,0.0,0.0,0.0,0.0,0.0,0.0,0.0,0.0,0.0,0.0,0.0,0.0,0.0,0.0,0.0,0.0,0.0,0.0,0.0,0.0,0.0,0.0,0.0,0.0,0.0,0.0,0.0,0.0,0.0,0.0,0.0,0.0,0.0,0.0,0.0,0.0,0.0,0.0,0.0,0.0,0.0,0.0,0.0,0.0,0.0,0.0,0.0,0.0,0.0,0.0,0.0,0.0,0.0,0.0,0.0,0.0,0.0,0.0,0.0,4.1219,4.4978,4.7933,0.0,4.8586,4.7908,4.7908,4.6577,4.4493,4.149,0.0,0.0,0.0,0.0,0.0,0.0,0.0,0.0,0.0,0.0,0.0,0.0,0.0,0.0,0.0,0.0,0.0,0.0,0.0,0.0,0.0,0.0,0.0,0.0,0.0,0.0,0.0,0.0,0.0,0.0,0.0,0.0,0.0,0.0,0.0,0.0,0.0,0.0,0.0,0.0,0.0,0.0,0.0,0.0,0.0,0.0,0.0,0.0,0.0,0.0,0.0,0.0,0.0,0.0,0.0,0.0,0.0,0.0,0.0,0.0,0.0,0.0,0.0,0.0,0.0,0.0,0.0,0.0,0.0,0.0,0.0,0.0,0.0,0.0,0.0,0.0,0.0,0.0,0.0,0.0,0.0,0.0,0.0,0.0,0.0,0.0,0.0,0.0,0.0,0.0,0.0,0.0,0.0,0.0,0.0,0.0,0.0,0.0,0.0,0.0,0.0,0.0,4.2846,4.6868,4.959,4.959,4.8586,4.7908,4.7892,4.6913,4.488,0.0,0.0,0.0,0.0,0.0,0.0,0.0,0.0,0.0,0.0,0.0,0.0,0.0,0.0,0.0,0.0,0.0,0.0,0.0,0.0,0.0,0.0,0.0,0.0,0.0,0.0,0.0,0.0,0.0,0.0,0.0,0.0,0.0,0.0,0.0,0.0,0.0,0.0,0.0,0.0,0.0,0.0,0.0,0.0,0.0,0.0,0.0,0.0,0.0,0.0,0.0,0.0,0.0,0.0,0.0,0.0,0.0,0.0,0.0,0.0,0.0,0.0,0.0,0.0,0.0,0.0,0.0,0.0,0.0,0.0,0.0,0.0,0.0,0.0,0.0,0.0,0.0,0.0,0.0,0.0,0.0,0.0,0.0,0.0,0.0,0.0,0.0,0.0,0.0,0.0,0.0,0.0,0.0,0.0,0.0,0.0,0.0,0.0,0.0,0.0,0.0,0.0,0.0,4.3333,4.7104,4.9455,4.9079,4.836,4.7741,4.7365,4.6712,4.488,4.1515,0.0,0.0,0.0,0.0,0.0,0.0,0.0,0.0,0.0,0.0,0.0,0.0,0.0,0.0,0.0,0.0,0.0,0.0,0.0,0.0,0.0,0.0,0.0,0.0,0.0,0.0,0.0,0.0,0.0,0.0,0.0,0.0,0.0,0.0,0.0,0.0,0.0,0.0,0.0,0.0,0.0,0.0,0.0,0.0,0.0,0.0,0.0,0.0,0.0,0.0,0.0,0.0,0.0,0.0,0.0,0.0,0.0,0.0,0.0,0.0,0.0,0.0,0.0,0.0,0.0,0.0,0.0,0.0,0.0,0.0,0.0,0.0,0.0,0.0,0.0,0.0,0.0,0.0,0.0,0.0,0.0,0.0,0.0,0.0,0.0,0.0,0.0,0.0,0.0,0.0,0.0,0.0,0.0,0.0,0.0,0.0,0.0,0.0,0.0,0.0,0.0,0.0,4.3966,4.7732,5.0058,4.9506,4.8912,4.836,4.7817,4.7265,4.5708,4.2808,0.0,0.0,0.0,0.0,0.0,0.0,0.0,0.0,0.0,0.0,0.0,0.0,0.0,0.0,0.0,0.0,0.0,0.0,0.0,0.0,0.0,0.0,0.0,0.0,0.0,0.0,0.0,0.0,0.0,0.0,0.0,0.0,0.0,0.0,0.0,0.0,0.0,0.0,0.0,0.0,0.0,0.0,0.0,0.0,0.0,0.0,0.0,0.0,0.0,0.0,0.0,0.0,0.0,0.0,0.0,0.0,0.0,0.0,0.0,0.0,0.0,0.0,0.0,0.0,0.0,0.0,0.0,0.0,0.0,0.0,0.0,0.0,0.0,0.0,0.0,0.0,0.0,0.0,0.0,0.0,0.0,0.0,0.0,0.0,0.0,0.0,0.0,0.0,0.0,0.0,0.0,0.0,0.0,0.0,0.0,0.0,0.0,0.0,0.0,0.0,0.0,0.0,4.4679,4.8535,5.0987,5.0377,4.9841,4.9305,4.8768,4.8209,4.6963,4.483,0.0,0.0,0.0,0.0,0.0,0.0,0.0,0.0,0.0,0.0,0.0,0.0,0.0,0.0,0.0,0.0,0.0,0.0,0.0,0.0,0.0,0.0,0.0,0.0,0.0,0.0,0.0,0.0,0.0,0.0,0.0,0.0,0.0,0.0,0.0,0.0,0.0,0.0,0.0,0.0,0.0,0.0,0.0,0.0,0.0,0.0,0.0,0.0,0.0,0.0,0.0,0.0,0.0,0.0,0.0,0.0,0.0,0.0,0.0,0.0,2.933,0.0,0.0,0.0,0.0,0.0,0.0,0.0,0.0,0.0,0.0,0.0,0.0,0.0,0.0,0.0,0.0,0.0,0.0,0.0,0.0,0.0,0.0,0.0,0.0,0.0,0.0,0.0,0.0,0.0,0.0,0.0,0.0,0.0,0.0,0.0,0.0,0.0,0.0,0.0,0.0,0.0,4.5759,4.867,5.0377,4.9816,4.928,4.8727,4.8134,4.7983,4.7154,4.5422,4.4428,0.0,0.0,0.0,0.0,0.0,0.0,0.0,0.0,0.0,0.0,0.0,0.0,0.0,0.0,0.0,0.0,0.0,0.0,0.0,0.0,0.0,0.0,0.0,0.0,0.0,0.0,0.0,0.0,0.0,0.0,0.0,0.0,0.0,0.0,0.0,0.0,0.0,0.0,0.0,0.0,0.0,0.0,0.0,0.0,0.0,0.0,0.0,0.0,0.0,0.0,0.0,0.0,0.0,0.0,0.0,0.0,0.0,0.0,0.0,0.0,3.1233,0.0,0.0,0.0,0.0,0.0,0.0,0.0,0.0,0.0,0.0,0.0,0.0,0.0,0.0,0.0,0.0,0.0,0.0,0.0,0.0,0.0,0.0,0.0,0.0,0.0,0.0,0.0,0.0,0.0,0.0,0.0,0.0,0.0,0.0,0.0,0.0,0.0,0.0,0.0,0.0,4.6878,4.9967,5.1783,5.123,5.0695,5.0042,4.9172,4.9097,4.852,4.717,4.605,0.0,0.0,0.0,0.0,0.0,0.0,0.0,0.0,0.0,0.0,0.0,0.0,0.0,0.0,0.0,0.0,0.0,0.0,0.0,0.0,0.0,0.0,0.0,0.0,0.0,0.0,0.0,0.0,0.0,0.0,0.0,0.0,0.0,0.0,0.0,0.0,0.0,0.0,0.0,0.0,0.0,0.0,0.0,0.0,0.0,0.0,0.0,0.0,0.0,0.0,0.0,0.0,0.0,3.146,3.2334,3.3763,3.3763,3.5519,3.8468,3.5881,3.5389,3.6243,3.3396,0.0,0.0,0.0,0.0,0.0,0.0,0.0,0.0,0.0,0.0,0.0,0.0,0.0,0.0,0.0,0.0,0.0,0.0,0.0,0.0,0.0,0.0,0.0,0.0,4.2605,4.4442,0.0,0.0,0.0,0.0,0.0,0.0,0.0,0.0,0.0,0.0,0.0,0.0,4.8093,5.1322,5.3239,5.2812,5.2285,5.1574,5.0628,5.0569,5.0167,4.9296,4.7832,4.6411,0.0,0.0,0.0,0.0,0.0,0.0,0.0,0.0,0.0,0.0,0.0,0.0,0.0,0.0,0.0,0.0,0.0,0.0,0.0,0.0,0.0,0.0,0.0,0.0,0.0,0.0,0.0,0.0,0.0,0.0,0.0,0.0,2.7591,2.8463,0.0,0.0,0.0,0.0,0.0,0.0,0.0,0.0,0.0,0.0,0.0,0.0,0.0,3.0723,3.0913,3.1992,3.2554,3.2559,3.3672,3.4524,3.5146,3.5146,3.6391,3.866,3.97,0.0,3.8223,3.7758,0.0,0.0,0.0,0.0,0.0,0.0,0.0,0.0,0.0,0.0,0.0,0.0,0.0,0.0,0.0,0.0,0.0,0.0,0.0,0.0,0.0,0.0,4.6559,4.7208,4.7814,4.8118,0.0,4.4505,4.1657,4.1,4.0681,0.0,0.0,0.0,0.0,0.0,0.0,0.0,4.9674,5.1381,5.2277,5.2209,5.1741,5.1339,5.1188,5.1188,5.1113,5.0987,5.0268,4.8946,4.6873,4.6185,0.0,0.0,0.0,0.0,0.0,0.0,0.0,0.0,0.0,0.0,0.0,0.0,0.0,0.0,0.0,0.0,0.0,0.0,0.0,0.0,0.0,0.0,0.0,0.0,0.0,0.0,0.0,0.0,0.0,2.7044,2.7917,2.8496,2.8066,2.7617,0.0,0.0,0.0,0.0,0.0,0.0,0.0,0.0,0.0,3.2285,3.2574,3.3027,3.3769,3.4336,3.4593,3.4609,3.5159,3.6559,3.8664,3.8972,4.067,4.3457,4.45,4.4541,4.3623,4.11,3.8847,3.675,0.0,0.0,0.0,0.0,3.4626,3.497,3.9048,4.0317,0.0,4.0124,0.0,0.0,0.0,0.0,0.0,0.0,0.0,0.0,0.0,0.0,4.5949,4.8252,4.9254,4.969,4.969,4.8677,4.7145,0.0,4.3812,4.2431,4.0174,0.0,0.0,0.0,0.0,4.9012,5.1096,5.2879,5.3833,5.3549,5.2997,5.2402,5.18,5.1749,5.1615,5.1314,5.1063,5.0469,4.9515,4.8008,4.5984,0.0,0.0,0.0,0.0,0.0,0.0,0.0,0.0,0.0,0.0,0.0,0.0,0.0,0.0,0.0,0.0,0.0,0.0,0.0,0.0,0.0,0.0,0.0,0.0,0.0,0.0,0.0,0.0,2.7923,2.8503,2.892,2.9062,2.8828,0.0,0.0,0.0,0.0,0.0,0.0,3.1714,3.2109,3.2855,3.4027,3.4528,3.5444,3.6847,3.6512,3.6807,3.7716,3.7282,3.8637,4.1627,4.2018,4.3836,4.6697,4.7084,4.7492,4.7629,4.4279,4.2457,4.1519,3.8911,3.7404,3.6896,3.8181,3.8416,3.8727,4.293,4.4202,4.3945,4.3945,4.3516,4.2474,3.9591,0.0,0.0,0.0,0.0,4.1437,4.4408,4.5289,4.6151,4.898,5.0142,5.067,5.0804,5.1256,5.0954,0.0,4.729,4.5733,4.3248,0.0,0.0,0.0,0.0,5.1147,5.2553,5.4177,5.5031,5.4647,5.4202,5.3625,5.2804,5.2729,5.2503,5.1942,5.1791,5.1666,5.1515,4.9741,4.8184,4.6954,0.0,0.0,0.0,0.0,0.0,0.0,0.0,0.0,0.0,0.0,0.0,0.0,0.0,0.0,0.0,0.0,0.0,0.0,0.0,0.0,0.0,0.0,0.0,0.0,0.0,0.0,0.0,0.0,0.0,3.0703,3.1113,0.0,0.0,0.0,0.0,3.1372,3.2207,3.3082,3.3883,3.4333,3.4961,3.5842,3.6309,3.7417,3.9198,3.7897,3.8993,4.2442,4.0732,4.088,4.2707,4.2746,4.3755,4.5494,4.5494,4.6419,4.7867,4.767,4.5868,4.3258,4.3102,4.1287,3.9174,4.2632,4.3892,4.4405,4.8013,4.9218,4.9208,4.9208,4.6642,4.3602,4.3842,4.2576,0.0,0.0,4.6042,4.8061,5.088,5.1264,5.108,5.1758,5.159,5.1389,5.19,5.1205,5.0619,0.0,5.1423,5.1172,4.9439,0.0,5.0226,5.0761,5.1088,5.2017,5.4195,5.4572,5.4622,5.4597,5.4572,5.4522,5.4471,5.4471,5.4202,5.3607,5.3113,5.2586,5.2076,5.1465,5.036,4.8718,4.8008,0.0,0.0,0.0,0.0,0.0,0.0,0.0,0.0,0.0,0.0,0.0,0.0,0.0,0.0,0.0,0.0,0.0,0.0,0.0,0.0,0.0,0.0,0.0,0.0,0.0,0.0,0.0,0.0,3.1729,3.2324,0.0,3.1792,3.2613,3.318,3.318,3.4508,3.5463,3.5756,3.6152,3.6523,3.6836,3.6992,3.74,3.8041,3.9091,4.0285,4.1606,4.2508,4.3832,4.5508,4.5893,4.7014,4.8632,4.9018,4.9536,5.0083,5.0083,4.8591,4.6288,4.6288,4.5626,4.4857,4.6134,4.6625,4.6802,4.8077,4.851,4.8636,4.9364,4.885,4.8075,4.8629,4.8289,4.7884,4.8843,4.9575,5.0393,5.1749,5.195,5.2026,5.2929,5.298,5.3005,5.3575,5.3399,5.3173,5.3391,5.2721,5.18,5.0862,5.2042,5.2821,5.195,5.3047,5.4353,5.5465,5.5616,5.5509,5.5157,5.5107,5.4981,5.4622,5.4597,5.4522,5.4278,5.4102,5.3926,5.3725,5.3148,5.2402,5.1473,5.0896,4.862,0.0,0.0,0.0,0.0,0.0,0.0,0.0,0.0,0.0,0.0,0.0,0.0,0.0,0.0,0.0,0.0,0.0,0.0,0.0,0.0,0.0,0.0,0.0,0.0,0.0,0.0,3.2398,3.2398,3.3379,3.375,3.2922,3.4134,3.4974,3.4974,3.6169,3.6892,3.6892,3.7932,3.852,3.852,3.8801,3.9557,4.0845,4.133,4.2508,4.443,4.5399,4.6754,4.8455,4.8853,4.965,5.072,5.1138,5.1289,5.1289,5.1289,5.041,4.9038,4.9038,4.9038,4.9038,4.9038,4.9038,4.9038,4.9038,4.9038,4.9163,4.9916,5.0419,5.082,5.1373,5.1565,5.1666,5.2017,5.2118,5.2243,5.2796,5.2929,5.3105,5.3833,5.4135,5.4436,5.5006,5.5282,5.5483,5.5659,5.4529,5.3381,5.3005,5.4479,5.5207,5.3708,5.5064,5.6219,5.62,5.6545,5.6646,5.6269,5.6244,5.6111,5.5735,5.5024,5.4748,5.5107,5.4454,5.4202,5.4572,5.3675,5.2988,5.2636,5.2877,5.147,4.837,0.0,0.0,0.0,0.0,0.0,0.0,0.0,0.0,0.0,0.0,0.0,0.0,0.0,0.0,0.0,0.0,0.0,0.0,0.0,0.0,0.0,0.0,0.0,3.2296,3.2613,3.2891,3.2891,3.4394,3.5114,3.4254,3.5737,3.6714,3.6714,3.709,3.7344,3.7344,3.9637,4.093,4.086,4.1812,4.407,4.7712,4.4626,4.5812,5.1264,4.9529,4.9655,5.1389,5.1389,5.1389,5.1389,5.1389,5.1389,5.1389,5.1389,5.1389,5.1389,5.1314,5.1289,5.1289,5.1289,5.1314,5.1314,5.1339,5.1364,5.1364,5.1364,5.1389,5.149,5.2026,5.2176,5.2402,5.3432,5.3733,5.3858,5.4496,5.4647,5.4672,5.4697,5.5107,5.5616,5.6143,5.6652,5.7204,5.7801,5.7022,5.6276,5.6251,5.7173,5.7524,5.6426,5.7198,0.0,5.6401,5.7223,5.7876,5.7851,5.7851,5.7851,5.7851,5.5885,5.5107,5.6194,5.4243,5.354,5.4672,5.3148,5.2268,5.2286,5.3984,5.5177,5.5797,0.0,0.0,0.0,0.0,0.0,0.0,0.0,0.0,0.0,0.0,0.0,0.0,0.0,0.0,0.0,0.0,0.0,0.0,0.0,0.0,0.0,0.0,3.3187,3.3086,3.4004,3.4785,3.5081,3.584,3.6247,3.601,3.6677,3.7146,3.7146,3.783,3.8241,3.8241,4.0794,4.1643,4.0223,4.3134,4.4762,4.4793,4.7032,4.9138,5.1115,5.234,5.3195,5.3692,5.3692,5.3692,5.3692,5.3692,5.3692,5.3692,5.3692,5.3692,5.3542,5.1917,5.1289,5.1289,5.1289,5.1565,5.1925,5.2327,5.2711,5.303,5.303,5.3348,5.3718,5.3851,5.3901,5.3976,5.4253,5.4353,5.4554,5.5516,5.5767,5.5968,5.6815,5.7116,5.7248,5.7399,5.7549,5.77,5.7876,5.7976,5.7882,5.7499,5.77,5.7926,5.8008,5.7951,0.0,5.8008,5.7951,5.7575,5.6771,5.6671,5.6671,5.6671,5.6118,5.6244,5.7374,5.6872,5.6671,5.6972,5.6125,5.5908,5.646,5.6229,5.5985,0.0,0.0,0.0,0.0,0.0,0.0,0.0,0.0,0.0,0.0,0.0,0.0,0.0,0.0,0.0,0.0,0.0,0.0,0.0,0.0,0.0,0.0,3.3539,3.4554,3.4746,3.5293,3.582,3.623,3.6541,3.6773,3.6931,3.7498,3.8169,3.9,3.986,4.0365,4.0365,4.3885,4.5005,4.3023,4.634,4.8169,4.8218,4.9921,5.1375,5.2521,5.3925,5.4597,5.4622,5.483,5.4949,5.4949,5.5182,5.5132,5.4949,5.4949,5.4798,0.0,0.0,0.0,0.0,0.0,5.2871,5.3198,5.3507,5.3808,5.4077,5.4077,5.4303,5.4672,5.5132,5.5282,5.5358,5.586,5.5986,5.6136,5.6746,5.6922,5.7072,5.775,5.8077,5.8252,5.8252,5.8403,5.8579,5.8579,5.883,0.0,5.8629,5.8579,5.8529,5.8403,5.8478,5.8529,5.8384,5.8504,5.8328,5.765,5.7575,5.7575,5.7575,5.6728,0.0,0.0,0.0,5.6846,5.6846,5.7273,0.0,0.0,0.0,0.0,0.0,0.0,0.0,0.0,5.7787,5.7167,0.0,0.0,0.0,0.0,0.0,0.0,0.0,0.0,0.0,0.0,0.0,0.0,0.0,0.0,0.0,0.0,3.4944,3.623,3.6638,3.6387,3.6309,3.6716,3.6834,3.7136,3.7718,3.8563,3.9781,4.1532,4.268,4.3188,4.2989,0.0,0.0,0.0,0.0,5.2738,5.4452,5.2895,5.3077,5.4974,5.4974,5.4974,5.4999,5.5458,5.5666,5.5709,5.6194,5.6118,5.5666,5.5666,5.5408,5.4949,5.4773,5.4697,5.4697,5.4823,5.4856,5.4881,5.4949,0.0,0.0,5.4974,5.4974,5.515,5.6093,5.6376,5.662,5.7625,5.7901,5.7901,5.7976,5.8001,5.8001,5.8077,5.8434,5.8786,5.8786,5.9156,5.9483,5.9483,5.9483,5.9483,5.9483,5.9483,5.9182,5.8227,5.888,5.9156,5.8202,5.8905,5.9433,5.9332,0.0,0.0,5.9307,5.7524,5.7079,5.8685,5.7143,5.6204,5.6204,5.8114,5.9965,6.1563,6.345,6.5921,6.9004,6.9004,6.9034,6.8926,6.0629,5.9242,0.0,0.0,0.0,0.0,0.0,0.0,0.0,0.0,0.0,0.0,0.0,0.0,0.0,0.0,0.0,3.3883,3.5427,3.6599,3.6695,3.6912,3.709,3.7168,3.7811,3.8869,4.053,4.1485,4.2132,4.2532,4.4892,4.5657,4.4086,4.8662,5.043,4.8456,5.2055,5.3878,5.3568,5.4703,5.5952,5.7248,0.0,0.0,5.7267,5.7374,5.7424,5.7424,5.7524,5.7499,5.7424,5.7424,5.7367,5.7123,5.5785,5.5257,5.5358,5.62,5.6552,5.6602,5.7097,5.7248,5.7248,5.7248,5.7248,5.7298,5.7499,5.7575,0.0,5.7851,5.7901,5.8001,5.8434,5.8535,5.8635,5.9081,5.9257,5.9357,5.9357,5.9433,5.9483,5.9483,5.9483,5.9483,5.9483,5.9483,5.9433,5.9207,5.9357,5.9433,5.9207,5.9357,5.9156,5.8303,5.8202,5.8202,5.8202,5.7826,5.8077,5.9282,6.0409,6.1061,6.1061,6.3853,6.5553,6.5889,6.7268,6.8333,6.9004,6.9004,6.9273,6.9752,6.7428,6.6873,0.0,0.0,0.0,0.0,0.0,0.0,0.0,0.0,0.0,0.0,0.0,3.1812,3.2652,0.0,3.4609,3.529,3.6306,3.7146,3.7576,3.783,3.7948,3.7948,3.92,4.0592,4.1994,4.3877,4.542,4.6438,4.8305,4.897,4.801,5.1465,5.2717,5.1033,5.4126,5.5729,5.559,5.6558,5.7349,5.7901,5.7901,5.7901,5.7901,5.8177,5.8284,5.8328,5.8579,5.8554,5.8278,5.8001,5.7901,5.7851,5.7273,5.6897,5.6721,5.7255,5.7455,5.7481,5.7801,5.7901,5.7901,5.7901,5.7901,5.7951,5.8227,5.8284,5.8353,5.8629,5.8704,5.8755,5.9031,5.9106,5.9182,5.9433,5.9483,5.9483,5.9483,5.9282,5.9106,5.9106,5.888,5.8704,5.8704,5.8704,5.888,5.9408,5.9483,5.9483,5.9483,5.9483,5.9282,5.8755,5.8704,5.8704,5.8704,5.8704,5.893,5.9458,6.1316,6.2413,6.2413,6.573,6.7593,6.7593,6.9162,6.9961,6.9961,6.9961,7.0111,7.044,7.0111,6.9961,0.0,0.0,0.0,0.0,0.0,0.0,0.0,3.0312,3.0849,3.2114,3.2676,3.3277,3.4407,3.5173,3.5915,3.6677,3.7225,3.7916,3.9019,3.9311,3.9616,4.0213,4.1216,4.2492,4.4065,4.6466,4.8595,5.0324,5.1627,5.2221,5.195,5.4326,5.5224,5.4227,5.6122,5.7455,5.8052,5.8052,5.8102,5.8202,5.8202,5.8202,5.8227,5.866,5.8861,5.8886,5.9307,5.9257,5.8811,5.8403,5.8202,5.8252,5.8704,5.8604,5.8202,5.8202,5.8202,5.8202,5.8202,5.8202,5.8202,5.8202,5.8202,5.8303,5.871,5.8861,5.8936,5.9382,5.9483,5.9483,5.9483,5.9408,5.9357,5.9357,5.9257,5.9182,5.9182,5.8855,5.8535,5.8535,5.8202,5.7901,5.7901,5.7901,5.8202,5.9056,5.9182,5.9182,5.9182,5.9282,5.9307,5.9182,5.9382,5.9483,5.9483,5.9849,6.0055,6.0055,6.2219,6.3502,6.3502,6.6817,6.8637,6.8637,7.014,7.0889,7.0889,7.0889,7.0889,7.0889,7.1038,7.1009,2.901,2.9434,3.0195,3.0542,3.1265,3.2378,0.0,3.4118,3.3961,3.5237,3.553,3.5762,3.6323,3.6499,3.6697,3.7166,3.7928,3.9089,4.0921,4.1844,4.3297,4.5925,4.4436,4.4814,4.896,4.9995,5.0678,5.1389,5.3641,5.4425,5.3178,5.546,5.6986,5.7375,5.7638,5.8077,5.861,5.861,5.8836,5.9307,5.9307,5.9307,5.9307,5.9382,5.9408,5.9408,5.9458,5.9458,5.9408,5.9332,5.9307,5.9332,5.9382,5.9357,5.9307,5.9307,5.9307,5.9307,5.9307,5.9307,5.9307,5.9307,5.9307,5.9332,5.9382,5.9408,5.9408,5.9483,5.9483,5.9483,5.9483,5.9156,5.8786,5.8786,5.8428,5.8077,5.8077,5.8027,5.8001,5.8001,5.7951,5.7901,5.7901,5.7901,5.7951,5.8052,5.8077,5.8077,5.8077,5.8485,5.861,5.8127,5.893,5.9483,5.9483,6.107,6.2078,6.2078,6.5455,6.7467,6.7467,6.947,7.0596,7.0596,7.0791,7.0889,7.0889,7.0889,7.0889,7.0919,7.1517,7.1457,3.1548,3.1782,3.2114,3.2324,3.3008,3.3824,3.4489,3.4547,3.4821,3.615,3.6423,3.6523,3.697,3.7226,3.7539,3.7987,3.9548,4.1144,4.248,4.4226,4.6342,4.8979,4.8626,4.891,5.0829,5.2495,5.3713,5.4254,5.5536,5.622,5.5976,5.6969,5.7782,5.8334,5.8378,5.861,5.9156,5.9182,5.9282,5.9483,5.9483,5.9483,5.9483,5.9483,5.9483,5.9483,5.9483,5.9483,5.9483,5.9483,5.9483,5.9483,5.9483,5.9307,5.9062,5.9382,5.9483,5.9458,5.9137,5.9037,5.8961,5.8679,5.8554,5.8554,5.8554,5.8554,5.8554,5.8554,5.8554,5.8554,5.8554,5.8403,5.8234,5.8234,5.8052,5.8001,5.8284,5.8127,5.8001,5.8284,5.8127,5.7901,5.7901,5.7901,5.7901,5.7901,5.7901,5.7901,5.7901,5.8359,5.8736,5.883,5.8956,5.9156,5.9458,6.1278,6.2413,6.2413,6.5984,6.8112,6.8112,6.9897,7.0889,7.0889,7.0576,7.056,7.0889,7.0889,7.1098,7.1487,7.2176,7.2325,3.3066,3.334,3.3578,3.3578,3.4336,3.5019,3.4841,3.5036,3.5564,3.6638,3.6871,3.7029,3.7557,3.7891,3.8462,3.9576,4.1329,4.32,4.5073,4.699,4.9163,5.176,5.2429,5.2768,5.3058,5.4619,5.5842,5.6376,5.6928,5.7506,5.8102,5.8127,5.8378,5.8886,5.8911,5.9106,5.9483,5.9483,5.9483,5.9483,5.9483,5.9483,5.9483,5.9483,5.9483,5.9483,5.9483,5.9483,5.9483,5.9332,5.9282,5.9257,5.9106,5.883,5.8535,5.8905,5.9056,5.9006,5.861,5.8485,5.8428,5.8027,5.7901,5.7901,5.7901,5.7901,5.7926,5.8077,5.8127,5.8152,5.8303,5.8227,5.8127,5.8127,5.8001,5.8001,5.8384,5.8177,5.8001,5.8384,5.8177,5.7901,5.7901,5.7901,5.7901,5.7901,5.7901,5.7951,5.8102,5.8604,5.9187,5.9885,5.9997,6.0214,6.075,6.3104,6.4535,6.4535,6.7605,6.9426,6.9426,7.0723,7.1457,7.1457,7.1009,7.1009,7.1457,7.1457,7.1607,7.1923,7.2774,7.3086,3.2452,3.3137,3.4095,3.4095,3.5019,3.6094,3.6521,3.6636,3.6756,3.7187,3.7285,3.7539,3.8397,3.8573,3.9485,4.2233,4.3123,4.4988,4.9368,5.0413,5.1814,5.4902,5.5268,5.5676,0.0,5.644,5.6401,5.6935,5.7531,5.8102,5.8635,5.8685,5.8911,5.9458,5.9483,5.9483,5.9483,5.9483,5.9483,5.9483,5.9483,5.9483,5.9483,5.9483,5.9483,5.9483,5.9483,5.9483,5.9458,5.8936,5.8736,5.866,5.8152,5.7951,5.7926,5.7951,5.7951,5.7951,5.7926,5.7926,5.7926,5.7901,5.7901,5.7901,5.7901,5.7901,5.8001,5.8535,5.8685,5.8786,5.9307,5.9081,5.8685,5.8685,5.8278,5.7901,5.7926,5.7901,5.7901,5.7926,5.7901,5.7901,5.7901,5.7901,5.7901,5.7901,5.7901,5.8077,5.8598,5.9151,5.991,6.1034,6.2399,6.348,6.4023,6.7646,6.9874,6.9874,7.1668,7.2734,7.2734,7.2814,7.2847,7.2847,7.2817,7.2817,7.2847,7.2847,7.2535,7.1923,7.3253,7.3522,3.3785,3.4176,3.4629,3.5215,3.5918,3.6502,3.6658,3.6912,3.7207,3.7637,3.7949,3.8338,3.8887,4.0303,4.1927,4.3525,4.6127,4.8678,5.0834,5.2707,5.4381,5.5769,5.6251,0.0,0.0,0.0,0.0,5.8058,5.8309,5.866,5.9207,5.9232,5.9307,5.9483,5.9483,5.9483,5.9483,5.9483,5.9483,5.9483,5.9483,5.9483,5.9483,5.9483,5.9307,5.8961,5.8961,5.878,5.8428,5.8252,5.8177,5.8152,5.7976,5.7675,5.7355,5.775,5.765,5.7305,5.7305,5.7305,5.7255,5.6878,5.7004,5.7305,5.7305,5.7581,5.7951,5.8127,5.8177,5.8202,5.8403,5.8303,5.8177,5.8177,5.8027,5.8001,5.8334,5.8434,5.8554,5.888,5.8956,5.8956,5.8956,5.8956,5.9081,5.9438,5.8579,5.8102,5.8629,5.9642,6.0721,6.1851,6.3226,6.4264,6.4809,6.7252,6.897,6.939,7.1196,7.2445,7.2877,7.2907,7.2907,7.2907,7.2475,7.2235,7.2235,7.2235,7.2355,7.2595,7.3492,7.4018,3.5215,3.5508,3.5801,3.6506,3.7031,3.7418,3.7557,3.7793,3.8144,3.8712,3.8828,3.9003,3.957,4.1722,4.3589,4.4123,4.7541,5.0532,5.1689,5.3381,5.4996,5.6335,5.6784,5.7311,5.8127,5.7832,5.7907,5.866,5.8886,5.9156,5.9483,5.9483,5.9483,5.9483,5.9483,5.9483,5.9483,5.9483,5.9583,5.9784,5.9583,5.9608,5.9784,5.9784,5.9589,5.9263,5.9263,5.9062,5.873,5.8334,5.8202,5.8177,5.7976,5.7656,5.738,5.775,5.7631,5.733,5.733,5.733,5.7255,5.6922,5.7029,5.733,5.733,5.7581,5.7951,5.8127,5.8177,5.8227,5.8428,5.8478,5.8478,5.8478,5.8478,5.8579,5.8911,5.9006,5.9106,5.9433,5.9483,5.9483,5.9483,5.9483,5.9608,5.994,5.9131,5.8755,5.9508,6.0353,6.142,6.2828,6.4382,6.5755,6.6784,6.8676,6.9996,7.0439,7.159,7.2445,7.2877,7.2907,7.2907,7.2907,7.2475,7.2265,7.2265,7.2491,7.2714,7.2907,7.3821,7.4497,3.6599,3.7029,3.7422,3.7834,3.8281,3.8729,3.9101,3.9238,3.9492,4.0274,3.9805,3.9512,4.0293,4.2749,4.4591,4.4344,4.7679,5.0833,5.2304,5.2847,5.4093,5.6737,5.706,5.7512,5.8635,5.8736,5.8736,5.8736,0.0,5.9483,5.9483,5.9483,5.9483,5.9483,5.9483,5.9483,5.9483,5.9483,5.9784,6.0342,5.9809,5.9834,6.0342,6.0342,6.0317,6.0267,6.0267,6.0217,6.0091,5.9087,5.866,5.861,5.8102,5.7901,5.7901,5.7926,5.7951,5.7951,5.7976,5.7951,5.7901,5.7901,5.7926,5.7951,5.7951,5.7951,5.8102,5.8585,5.873,5.8849,5.9377,5.9483,5.9483,5.9483,5.9483,5.9483,5.9483,5.9483,5.9483,5.9483,5.9483,5.9483,5.9483,5.9483,5.9547,5.9688,5.9707,6.0046,6.0984,6.1288,6.2079,6.3877,6.5934,6.7969,6.9856,7.1719,7.2817,7.2907,7.2877,7.2847,7.2907,7.2907,7.2907,7.2907,7.2937,7.2937,7.2907,7.3582,7.3582,7.3027,7.4317,7.4916,3.6934,3.7441,3.7853,3.8301,3.8749,3.9062,3.918,3.9688,4.004,3.9629,3.9864,4.004,3.961,4.3686,4.7084,4.7028,5.1291,5.477,5.5145,5.5627,5.6383,5.7525,5.8033,5.8535,5.9232,5.9307,5.9307,0.0,5.9408,5.9483,5.9483,5.9483,5.9483,5.9483,5.9483,5.9483,5.9483,5.9483,5.9985,6.0964,6.0387,6.0412,6.0964,6.0964,6.0512,5.9709,5.9709,5.9257,5.8504,5.8227,5.8102,5.8102,5.7951,5.7901,5.7951,5.8347,5.8504,5.8535,5.8956,5.8554,5.7901,5.7901,5.8177,5.8485,5.8485,5.878,5.9106,5.9257,5.9282,5.9326,5.9458,5.9483,5.9483,5.9483,5.9483,5.9483,5.9483,5.9483,5.9483,5.9483,5.9483,5.9483,5.9483,5.9483,6.0168,6.2107,6.2413,6.1817,6.0149,6.2415,6.4363,6.4854,6.7912,7.0296,7.1296,7.1404,7.183,7.2847,7.2445,7.2385,7.2877,7.2907,7.2907,7.2907,7.3402,7.3402,7.2907,7.3582,7.4061,7.4407,7.4736,7.5425,3.7676,3.8457,3.9103,3.9375,3.9746,3.998,3.959,3.9902,4.0039,3.9336,3.9453,3.957,3.9258,4.4066,4.7716,4.6567,5.1714,5.5683,5.5254,5.5824,5.6786,5.8089,5.851,5.8911,5.9433,5.9483,5.9483,5.9483,5.9483,5.9483,5.9483,5.9483,5.9483,5.9483,5.9483,5.9483,5.9483,5.9734,6.0311,6.1185,6.0337,6.0387,6.1185,6.0914,6.0462,5.9859,0.0,5.9508,5.8956,5.8704,5.8604,5.8604,5.8604,5.8604,5.8629,5.895,5.9056,5.9106,5.9382,5.9106,5.8604,5.8604,5.8805,5.9056,5.9056,5.9257,5.9483,5.9483,5.9483,5.9483,5.9483,5.9483,5.9483,5.9483,5.9483,5.9483,5.9483,5.9483,5.9483,5.9483,5.9684,5.9859,5.9859,6.006,6.1028,6.3411,6.374,6.354,6.2952,6.4743,6.6521,6.7639,6.9175,7.0722,7.2199,7.1457,7.1218,7.195,7.1667,7.1637,7.2026,7.2295,7.2475,7.2475,7.3402,7.3702,7.3343,7.43,7.4958,7.5365,7.5617,7.6275,3.8475,3.9531,4.0508,4.0567,4.0898,4.0976,4.0098,3.9941,3.9805,3.916,3.8846,3.8749,3.8984,4.3772,4.7039,4.5023,5.0622,5.5009,5.4411,5.5177,5.6561,5.8475,5.8761,5.8987,5.9458,5.9483,5.9483,5.9483,5.9483,5.9483,5.9483,5.9483,5.9533,5.9608,5.9608,5.9608,5.9608,5.9935,6.0437,6.1085,6.001,6.0105,6.1185,6.0663,6.0367,6.0292,6.0292,6.0267,6.0141,5.9684,5.9483,5.9483,5.9483,5.9483,5.9483,5.9483,5.9533,5.9608,5.9608,5.9659,5.9684,5.9533,5.9483,5.9483,5.9483,5.9483,5.9483,5.9483,5.9533,5.9608,5.9608,5.9608,5.9633,5.9709,5.9659,5.9633,5.9709,5.9734,5.9734,5.9734,6.0111,6.0417,6.0417,6.0839,6.1917,6.3985,6.4539,6.5466,6.756,6.776,6.8534,7.0759,7.0251,7.0678,7.2969,7.1936,7.1218,7.1308,7.1308,7.1308,7.1308,7.1936,7.2312,7.2312,7.3539,7.418,7.418,7.5407,7.6066,7.6155,7.6706,7.7305,3.8475,3.9531,4.0586,4.0976,4.1133,4.0976,4.0098,4.0156,3.9961,3.8439,3.8634,3.8906,3.8244,4.1982,4.5515,4.6684,5.1052,5.4826,5.6277,5.7428,5.8284,5.8647,5.9106,5.9408,5.9483,5.9483,5.9483,5.9483,5.9483,5.9483,5.9483,5.9483,5.9709,6.0141,6.0166,6.0166,6.0166,5.9363,5.9489,6.0462,5.9809,6.0105,6.121,6.111,6.0763,6.0292,6.0292,0.0,5.9633,5.9533,5.9483,5.9483,5.9483,5.9483,5.9483,5.9483,5.9784,6.0166,6.0166,6.0487,6.0758,5.9809,5.9483,5.9483,5.9483,5.9483,5.9483,5.9483,5.9834,6.0166,6.0166,6.0166,6.0311,6.0808,6.0512,6.0311,6.0808,6.0909,6.0909,6.0909,6.0984,6.104,6.104,6.1135,6.2025,6.4498,6.6277,6.8253,7.0742,7.0639,7.0524,7.0958,7.2252,7.347,7.448,7.3313,7.2804,7.3343,7.3373,7.3373,7.3373,7.4018,7.4377,7.4377,7.5138,7.5557,7.5557,7.6288,7.6946,7.7472,7.7574,7.7981,3.8789,3.9863,4.0918,4.1133,4.1015,4.0547,3.9472,3.918,3.879,3.7539,3.7773,3.8144,3.7951,4.1079,4.4097,4.5254,5.0122,5.4202,5.5329,5.7595,5.9131,5.9131,5.9332,5.9483,5.9483,5.9483,5.9483,5.9483,5.9483,5.9483,5.9483,5.9759,5.991,5.9885,6.0141,6.0166,5.9885,5.9382,5.9514,6.0292,5.9759,5.9935,6.0713,6.0437,6.0161,5.9885,5.9885,0.0,5.9483,5.9483,5.9483,5.9483,5.9483,5.9659,5.9935,5.9935,6.0286,6.0763,6.0763,6.0939,6.111,6.0557,6.0362,6.0362,6.0362,6.0362,6.0362,6.0362,6.0563,6.0763,6.0763,6.0763,6.0839,6.1135,6.0984,6.0839,6.1135,6.121,6.121,6.121,6.1436,6.1952,6.3003,6.3412,6.4723,6.8082,6.94,7.0853,7.3164,7.3527,7.3556,7.3556,7.4072,7.4706,7.5347,7.451,7.4078,7.4407,7.4437,7.4437,7.4437,7.5065,7.5407,7.5407,7.6395,7.6904,7.6904,7.7532,7.8011,7.831,7.831,7.8489,3.9199,4.0273,4.1172,4.1074,4.0781,4.0137,3.875,3.8146,3.7638,3.6736,3.6934,3.7402,3.7716,4.0191,4.2499,4.3449,4.8625,5.2892,5.3933,5.7114,5.9382,5.9483,5.9483,5.9483,5.9483,5.9483,5.9483,5.9483,5.9608,5.9583,5.9332,6.0085,6.0186,5.9508,6.0016,6.0041,5.9508,5.9382,5.9558,5.994,5.9533,5.9608,6.0116,5.9684,5.9483,5.9483,5.9483,0.0,5.9483,5.9483,5.9483,5.9508,5.9633,5.9935,6.0317,6.0462,6.0864,6.1386,6.1386,6.1461,6.1542,6.1542,6.1386,6.121,6.121,6.121,6.121,6.121,6.1285,6.1386,6.1386,6.1386,6.1386,6.1386,6.1461,6.1542,6.1542,6.1542,6.1542,6.1542,6.1893,6.2668,6.4253,6.524,6.6906,7.0106,7.134,7.2474,7.405,7.5093,7.5677,7.5677,7.5335,7.5395,7.6036,7.5497,7.5155,7.5305,7.5455,7.5514,7.5514,7.6155,7.6514,7.6514,7.7502,7.8011,7.8011,7.8519,7.8807,7.8807,7.8807,7.8807,3.9609,4.0507,4.1094,4.0664,4.0528,4.0059,3.8361,3.7931,3.756,3.6311,3.6719,3.7305,3.7344,3.8561,4.044,4.3146,4.6811,5.0446,5.3647,5.68,5.8936,5.9433,5.9483,5.9483,5.9483,5.9483,5.9483,5.9483,5.996,5.979,5.8836,6.0261,6.0632,5.9533,6.0016,6.0041,5.9508,5.9012,5.8786,5.8836,5.8786,5.9037,5.9558,5.9508,5.9483,5.9483,5.9483,0.0,0.0,5.9483,5.9483,5.9533,6.006,6.0267,6.0367,6.0934,6.1441,6.1943,6.1943,6.225,6.2651,6.2651,6.1994,6.121,6.121,6.121,6.121,6.121,6.1542,6.1943,6.1943,6.1943,6.1943,6.1943,6.23,6.2651,6.2651,6.2651,6.2651,6.2651,6.2701,6.2788,6.2966,6.4565,6.5941,6.6286,6.9533,7.1963,7.2142,7.3819,7.4976,7.4976,7.5467,7.6048,7.6676,7.6168,7.6048,7.6587,7.7185,7.7532,7.7532,7.816,7.8519,7.8519,7.8639,7.8699,7.8699,7.8759,7.8807,7.8807,7.8807,7.8807,3.9961,4.0703,4.1094,4.0606,4.0313,3.9746,3.8244,3.7716,3.7324,3.6562,3.6875,3.7383,3.7637,3.8301,3.9475,4.1409,4.4481,4.7357,4.9523,5.387,5.6902,5.714,5.8561,5.9483,5.9483,5.9483,5.9483,5.9483,5.9709,5.9489,5.8736,5.994,6.0161,5.9037,5.9238,5.9388,5.9483,5.8961,5.8861,5.9182,5.9182,5.9307,5.9483,5.9483,5.9483,5.9483,5.9483,0.0,0.0,5.9483,5.9684,5.9991,6.0217,6.0719,6.1346,6.1592,6.2019,6.2476,6.2476,6.2626,6.2802,6.2802,6.2501,6.2149,6.2149,6.2149,6.2149,6.2149,6.2325,6.2476,6.2476,6.2476,6.2476,6.2476,6.2651,6.2802,6.2802,6.2802,6.2802,6.2802,6.2802,6.3584,6.6046,6.7145,6.8511,7.0923,7.2652,7.3707,7.3707,7.4409,7.4886,7.4886,7.5497,7.6138,7.6766,7.6946,7.7322,7.7981,7.825,7.84,7.84,7.8639,7.8807,7.8807,7.8807,7.8807,7.8807,7.9208,7.9417,7.9417,7.9806,7.9776,4.0157,4.0742,4.0898,4.0586,4.0079,3.9375,3.8185,3.758,3.7205,3.6775,3.7029,3.7422,3.7834,3.8281,3.8983,4.0118,4.2877,4.5312,4.6646,5.1176,5.4669,5.5505,5.7331,5.8779,5.9425,5.9357,5.9257,5.9257,5.9257,5.9031,5.8485,5.9338,5.9489,5.8736,5.8836,5.9131,5.9483,5.9131,5.9131,5.9483,5.9483,5.9483,5.9483,5.9483,5.9483,5.9483,5.9483,0.0,0.0,5.9659,5.996,6.0342,6.0668,6.1296,6.2019,6.2195,6.2476,6.2802,6.2802,6.2802,6.2802,6.2802,6.2802,6.2802,6.2802,6.2802,6.2802,6.2802,6.2802,6.2802,6.2802,6.2802,6.2802,6.2802,6.2802,6.2802,6.2802,6.2802,6.2802,6.2802,6.3286,6.4617,6.7483,6.9,7.0769,7.3603,7.4512,7.4886,7.4886,7.4886,7.4976,7.5185,7.5617,7.6138,7.6766,7.7424,7.81,7.8759,7.8807,7.8807,7.8807,7.8807,7.8807,7.8807,7.8807,7.8807,7.8807,7.9459,7.9698,7.9519,8.0195,8.0165,4.0157,4.0508,4.0508,4.0508,3.9844,3.8984,3.8107,3.758,3.7205,3.6775,3.7029,3.7422,3.7834,3.8281,3.8885,3.9766,4.237,4.481,4.62,4.9317,5.2486,5.528,5.5985,5.7075,5.9289,5.9012,5.871,5.871,5.8704,0.0,5.7926,5.8409,5.871,5.871,5.9207,5.9483,5.9483,5.9483,5.9483,5.9483,5.9483,5.9483,5.9483,5.9483,5.9483,5.9483,0.0,0.0,0.0,6.0066,6.0292,6.0417,6.1542,6.1994,6.2069,6.2601,6.2802,6.2802,6.2802,6.2802,6.2802,6.2802,6.2802,6.2802,6.2802,6.2802,6.2802,6.2802,6.2802,6.2802,6.2802,6.2802,6.2802,6.2802,6.2802,6.2802,6.2802,6.2802,6.2802,6.2802,6.4418,6.5785,6.5824,6.9197,7.1874,7.1909,7.3638,7.4886,7.4886,7.4886,7.5155,7.5826,7.5916,7.6138,7.6766,7.7424,7.81,7.8759,7.8807,7.8807,7.8807,7.8807,7.8807,7.8807,7.8807,7.8807,7.8807,7.9459,7.9477,7.8837,7.9489,7.9429,3.9004,3.9394,3.9454,3.8868,3.8517,3.8105,3.7283,3.699,3.6853,3.6734,3.7029,3.7422,3.7834,3.8281,3.9081,4.0546,4.1793,4.3159,4.4801,4.9044,5.2349,5.3233,5.6362,5.8571,5.8929,5.8786,5.871,5.871,5.8353,5.8403,5.8956,5.8811,5.871,5.871,5.8861,5.9131,5.9483,5.9483,5.9483,5.9483,5.9483,5.9483,5.9483,5.9483,5.9483,0.0,0.0,0.0,6.0041,6.0217,6.0744,6.1517,6.1868,6.2225,6.2576,6.2752,6.2802,6.2802,6.2802,6.2802,6.2802,6.2802,6.2802,6.2802,6.2802,6.2802,6.2802,6.2802,6.2802,6.2802,6.2802,6.2802,6.2802,6.2802,6.2802,6.2802,6.2802,6.2802,6.3204,6.4571,6.5359,6.6694,6.9495,7.105,7.2367,7.3742,7.4495,7.4886,7.4886,7.4886,7.4976,7.5185,7.6006,7.6766,7.7424,7.7664,7.81,7.8759,7.8807,7.8807,7.8807,7.9238,7.9489,7.9489,7.9926,7.9956,7.9489,8.0165,8.0375,8.0165,8.0375,8.0375,3.8164,3.8516,3.8614,3.8262,3.793,3.7539,3.7049,3.6795,3.6736,3.6892,3.7246,3.7656,3.8086,3.8516,3.9237,4.0507,4.1211,4.2407,4.4823,4.841,5.1541,5.3548,5.7158,5.9282,5.8761,5.851,5.8384,5.8384,5.7882,5.8033,5.9156,5.8886,5.8786,5.9006,5.8987,5.9156,5.9483,5.9483,5.9483,5.9483,5.9483,5.9483,5.9483,5.9483,5.9608,0.0,0.0,6.0136,0.0,6.0864,6.1346,6.2019,6.2225,6.2501,6.2802,6.2802,6.2802,6.2802,6.2802,6.2802,6.2802,6.2802,6.2802,6.2802,6.2802,6.2802,6.2802,6.2802,6.2802,6.2802,6.2802,6.2802,6.2802,6.2802,6.2802,6.3026,6.3761,6.3922,6.4537,6.6585,6.7571,6.8916,7.1449,7.2528,7.3451,7.4714,7.4886,7.4886,7.4886,7.5125,7.5347,7.5587,7.6557,7.7454,7.813,7.819,7.834,7.8759,7.9028,7.9058,7.8807,7.9686,7.9937,7.9429,8.0075,8.0105,7.9399,8.0105,8.0554,8.0794,8.0794,8.0794,0.0,3.7795,3.7912,3.8319,3.7811,3.7207,3.7207,3.6951,0.0,3.7207,3.7598,3.8009,3.8553,3.8905,3.9297,3.9883,4.0818,4.2639,4.603,4.786,5.0754,5.5864,5.8271,5.9282,5.8761,5.8234,5.7951,5.7901,5.743,5.7606,5.871,5.8761,5.9006,5.9483,5.9483,5.9483,5.9483,5.9483,5.9483,5.9483,5.9483,5.9483,5.9483,5.9533,5.9834,0.0,0.0,6.0713,6.1311,6.1793,6.2019,6.2119,6.2601,6.2802,6.2802,6.2802,6.2802,6.2802,6.2802,6.2802,6.2802,6.2802,6.2802,6.2802,6.2802,6.2802,6.2802,6.2802,6.2802,6.2802,6.2802,6.2802,6.2802,6.2802,6.2802,6.3367,6.5378,6.5804,6.6468,6.8681,7.0612,7.1945,7.2071,7.3672,7.4886,7.4886,7.4886,7.4886,7.4886,7.5497,7.6138,7.6736,7.7394,7.81,7.8807,7.8867,7.8867,7.8867,7.9489,7.9548,7.8878,8.0105,8.0195,7.8878,7.9537,7.9537,7.8878,7.9537,8.0147,8.0734,8.0823,8.0883,3.6389,0.0,3.6931,3.668,3.6465,3.6311,0.0,3.6504,3.6814,3.7207,3.7383,3.7773,3.8848,3.8594,3.8809,4.0605,4.2664,4.4824,4.7092,5.1423,5.5573,5.8946,5.9423,5.9282,5.8761,5.8585,5.8334,5.7926,5.8133,5.8585,5.9282,5.9307,5.9357,5.9483,5.9483,5.9483,5.9483,5.9483,5.9483,5.9483,5.9483,5.9483,5.9508,5.9915,6.0166,0.0,6.0788,6.1291,6.1818,6.1943,6.2225,6.2626,6.2752,6.2802,6.2802,6.2802,6.2802,6.2802,6.2802,6.2802,6.2802,6.2802,6.2802,6.2802,6.2802,6.2802,6.2802,6.2802,6.2802,6.2802,6.2802,6.2802,6.2802,6.2802,6.2802,6.3367,6.5378,6.5804,6.6887,7.0502,7.1586,7.2385,7.3916,7.4581,7.4886,7.4886,7.4886,7.4886,7.4886,7.5497,7.6138,7.6736,7.7394,7.828,7.9459,7.9548,7.9548,7.9548,8.0177,8.0255,7.9578,8.0375,8.0405,7.9578,8.0225,8.0207,7.9548,8.0255,8.0386,8.0057,8.1093,8.156,3.5959,3.6191,3.6309,3.6057,3.5999,3.6057,3.6269,3.6521,3.6814,3.7207,3.7617,3.8027,3.8516,4.0083,4.1196,4.0915,4.4773,4.862,5.0992,5.5007,5.8266,5.9773,5.9684,5.9282,5.8761,5.871,5.8585,5.8284,5.8535,5.8936,5.9458,5.9483,5.9483,5.9483,5.9483,5.9483,5.9483,5.9483,5.9483,5.9483,5.9759,5.9885,5.9885,6.0462,6.0864,0.0,6.1416,6.1868,6.2375,6.2375,6.2526,6.2802,6.2802,6.2802,6.2802,6.2802,6.2802,6.2802,6.2802,6.2802,6.2802,6.2802,6.2802,6.2802,6.2802,6.2802,6.2802,6.2802,6.2802,6.2802,6.2802,6.2802,6.2802,6.2802,6.2802,6.3367,6.5378,6.5804,6.7022,7.1105,7.1891,7.2528,7.4547,7.4886,7.4886,7.4886,7.4886,7.5095,7.5707,7.6365,7.7125,7.8083,7.8771,7.9477,8.0195,8.0266,8.0117,7.9818,8.0434,8.0375,7.9387,8.0285,8.0644,8.0285,8.0296,8.0296,8.0266,8.0943,8.1063,8.0734,8.177,8.2249,3.5979,3.6194,3.6252,3.6057,3.5999,3.6096,3.6502,3.6697,3.6873,3.7148,3.7891,3.8564,3.8772,4.185,4.3736,4.1807,4.6987,5.2399,5.5626,5.8038,5.9533,5.9608,5.9533,5.9357,5.8987,5.8861,5.8811,5.8811,5.8811,5.9012,5.9483,5.9483,5.9483,5.9483,5.9483,5.9483,5.9483,5.9483,5.9533,5.9633,6.0066,6.0342,6.0442,6.104,6.1567,6.1999,0.0,0.0,6.2802,6.2802,6.2802,6.2802,6.2802,6.2802,6.2802,6.2802,6.2802,6.2802,6.2802,6.2802,6.2802,6.2802,6.2802,6.2802,6.2802,6.2802,6.2802,6.2802,6.2802,6.2802,6.2802,6.2802,6.2802,6.2802,6.2802,6.3367,6.5378,6.6059,6.738,7.1177,7.2142,7.2893,7.4598,7.4886,7.4886,7.4886,7.4976,7.5467,7.6647,7.7484,7.8489,7.9818,8.0464,8.0823,8.0943,8.0853,8.0524,7.9848,8.0434,8.0255,7.8998,8.0045,8.0644,8.0644,8.0266,8.0326,8.0794,8.159,8.189,8.183,8.2507,8.2806,3.6384,3.709,3.7346,3.6272,3.5999,3.6018,3.6077,3.668,3.7146,3.6834,3.7441,3.9017,4.2292,4.1388,4.1433,4.535,4.9114,5.3106,5.7578,5.8964,5.9659,6.0116,5.9784,5.9659,6.0016,5.9659,5.9382,5.9382,5.9382,5.9408,5.9483,5.9483,5.9483,5.9483,5.9483,5.9483,5.9483,5.9483,5.9734,6.0166,6.0267,6.0588,6.1085,6.1617,6.1918,6.2044,0.0,6.2727,6.2802,6.2802,6.2802,6.2802,6.2802,6.2802,6.2802,6.2802,6.2802,6.2802,6.2802,6.2802,6.2802,6.2802,6.2802,6.2802,6.2802,6.2802,6.2802,6.2802,6.2802,6.2802,6.2802,6.2802,6.2802,6.2802,6.2802,6.3367,6.5378,6.7176,6.9113,7.1459,7.3275,7.453,7.4852,7.4886,7.4886,7.4886,7.5395,7.5988,7.6706,7.7891,7.9148,8.0494,8.0734,8.1033,8.159,8.1123,8.0524,7.9848,8.0434,8.0464,7.9668,7.9848,7.9937,7.9937,8.0973,8.1242,8.0794,8.2039,8.2357,8.183,8.2507,8.2806,3.5759,3.6269,3.6641,3.6955,3.7736,3.8497,3.875,3.9277,3.9551,3.8887,3.9258,4.0615,4.367,4.4807,4.7258,5.3214,5.3951,5.5024,5.8627,5.9357,5.9583,5.9834,5.991,6.0035,6.0267,6.0085,5.9935,5.9935,5.9659,5.9483,5.9483,5.9483,5.9483,5.9483,5.9483,5.9483,5.9483,5.9784,6.0041,6.0317,6.0919,6.1366,6.1642,6.2195,6.2425,6.245,0.0,6.2802,6.2802,6.2802,6.2802,6.2802,6.2802,6.2802,6.2802,6.2802,6.2802,6.2802,6.2802,6.2802,6.2802,6.2802,6.2802,6.2802,6.2802,6.2802,6.2802,6.2802,6.2802,6.2802,6.2802,6.2802,6.2802,6.2802,6.2802,6.3367,6.5378,6.6538,6.8143,7.1286,7.2634,7.3638,7.4714,7.4886,7.5006,7.5395,7.5707,7.6395,7.7711,7.8759,7.9866,8.1201,8.1351,8.1471,8.177,8.0853,8.0117,7.9818,8.0087,8.0117,7.9818,8.0147,8.0524,8.0883,8.15,8.183,8.189,8.2507,8.2627,8.2357,8.2657,8.2806,3.5547,3.5976,3.6465,3.7853,3.8829,3.9727,4.0781,4.1113,4.119,4.1236,4.1767,4.2941,4.5204,4.8534,5.2526,5.7456,5.6829,5.6612,5.9137,5.9483,5.9483,5.9483,5.9966,6.0342,6.0512,6.0512,6.0512,6.0512,6.001,5.9633,5.9508,5.9483,5.9483,5.9483,5.9483,5.9558,5.9684,6.0217,6.0512,6.0518,6.1517,6.2069,6.2199,6.2626,6.2802,6.2802,6.2802,6.2802,6.2802,6.2802,6.2802,6.2802,6.2802,6.2802,6.2802,6.2802,6.2802,6.2802,6.2802,6.2802,6.2802,6.2802,6.2802,6.2802,6.2802,6.2802,6.2802,6.2802,6.2802,6.2802,6.2802,6.2802,6.2802,6.2802,6.2802,6.3367,6.5378,6.6195,6.7571,7.1195,7.2296,7.3146,7.4825,7.5006,7.5185,7.6006,7.6108,7.6754,7.8549,7.9387,8.0237,8.1441,8.156,8.156,8.156,8.0494,7.9878,8.0027,7.9878,7.9878,8.0027,8.0674,8.1291,8.18,8.1949,8.2297,8.2806,8.2806,8.2806,8.2806,8.2806,8.2806,3.6699,3.7752,3.8495,3.8984,3.7697,3.7072,3.9903,3.9961,4.0148,4.283,4.4434,4.6033,4.8188,5.0546,5.2178,5.2223,5.4454,5.6943,5.9167,5.9483,5.9483,5.9483,5.9966,6.0537,6.1085,6.1135,6.1135,6.1135,6.0588,6.0035,5.9533,5.9483,5.9483,5.9483,5.9483,5.9734,6.0242,6.0839,6.1135,6.116,6.1718,6.225,6.2752,6.2802,6.2802,6.2802,6.2802,6.2802,6.2802,6.2802,6.2802,6.2802,6.2802,6.2802,6.2802,6.2802,6.2802,6.2802,6.2802,6.2802,6.2802,6.2802,6.2802,6.2802,6.2802,6.2802,6.2802,6.2802,6.2802,6.2802,6.2802,6.2802,6.2802,6.2802,6.2802,6.3367,6.5378,6.7311,6.9318,7.1495,7.3416,7.4941,7.5689,7.5305,7.5335,7.6557,7.6736,7.7245,7.8609,7.9387,8.0087,8.0794,8.0883,8.0883,8.0883,8.0207,8.0057,8.0704,8.0147,8.0087,8.0704,8.1362,8.174,8.18,8.2417,8.2747,8.2806,8.2806,8.2806,8.2806,8.2806,8.2806,3.5703,3.6951,3.7891,3.8283,3.8185,3.8693,4.1484,4.3338,4.441,4.414,4.6914,4.9546,5.0094,5.4092,5.6582,5.4432,5.643,5.8539,5.9386,5.9483,5.9608,5.996,6.0512,6.109,6.1642,6.1692,6.1542,6.1235,6.0638,6.0066,5.9533,5.9483,5.9483,5.9483,5.9834,6.0091,6.0292,6.124,6.1692,6.1692,6.2225,6.2601,6.2802,6.2802,6.2802,6.2802,6.2802,6.2802,6.2802,6.2802,6.2802,6.2802,6.2802,6.2802,6.2802,6.2802,6.2802,6.2802,6.2802,6.2802,6.2802,6.2802,6.2802,6.2802,6.2802,6.2802,6.2802,6.2802,6.2802,6.2802,6.2802,6.2802,6.2802,6.2802,6.2802,6.3706,6.7003,6.8634,7.0436,7.3749,7.5296,7.6036,7.5916,7.5988,7.6377,7.7275,7.7801,7.84,7.9279,8.0016,8.0356,8.0207,8.0554,8.0644,8.0207,8.0345,8.0704,8.1381,8.1183,8.1153,8.1411,8.2069,8.2417,8.2417,8.2687,8.2806,8.2806,8.2806,8.2806,8.2806,8.2806,8.2806,3.5879,3.6934,3.7928,3.873,3.918,4.0098,4.2715,4.5149,4.6869,4.6845,4.9246,5.1574,5.2323,5.5265,5.7127,5.5821,5.7799,5.9483,5.9483,5.9483,5.9709,6.0242,6.0839,6.1411,6.1943,6.2149,6.2044,6.1492,6.0914,6.0337,5.9784,5.9583,5.9583,5.9759,6.0091,6.0468,6.0819,6.1617,6.2074,6.225,6.2626,6.2802,6.2802,6.2802,6.2802,6.2802,6.2802,6.2802,6.2802,6.2802,6.2802,6.2802,6.2802,6.2802,6.2802,6.2802,6.2802,6.2802,6.2802,6.2802,6.2827,6.3028,6.3078,6.3103,6.3299,6.335,6.335,6.335,6.3203,6.3128,6.3279,6.3078,6.2802,6.2802,6.3453,6.5016,6.8443,7.0182,7.209,7.5512,7.6706,7.7065,7.6844,7.7173,7.7724,7.8591,7.8789,7.9028,7.9698,8.0016,7.9986,7.9519,8.0075,8.0386,8.0147,8.0734,8.1411,8.2069,8.2099,8.2099,8.2099,8.2567,8.2806,8.2806,8.2806,8.2806,8.2806,8.2806,8.2806,8.2806,8.2806,8.2806,3.7658,3.8242,3.9022,4.0761,4.0566,4.0605,4.3125,4.4437,4.6461,5.1176,5.142,5.1792,5.5,5.3459,5.254,5.5178,5.7799,5.9483,5.9483,5.9483,5.9709,6.0242,6.0839,6.1391,6.1969,6.2476,6.2576,6.2044,6.1512,6.0939,6.0342,5.9809,5.9759,6.0292,6.0317,6.0844,6.1994,6.2019,6.2275,6.2802,6.2802,6.2802,6.2802,6.2802,6.2802,6.2802,6.2802,6.2802,6.2802,6.2802,6.2802,6.2802,6.2802,6.2802,6.2802,6.2827,6.2827,6.2827,6.2807,6.2827,6.2927,6.35,6.3701,6.3822,6.4325,6.4496,6.4496,6.4496,6.4124,6.3827,6.435,6.3676,6.2827,6.2827,6.4856,6.736,6.9362,7.1935,7.4409,7.6426,7.7365,7.8041,7.8699,7.8807,7.9238,8.0584,7.9656,7.9058,7.9698,7.9208,7.8807,7.8807,7.9417,8.0087,8.0764,8.1441,8.2069,8.2747,8.2806,8.2806,8.2806,8.2806,8.2806,8.2806,8.2806,8.2806,8.2806,8.2806,8.2806,8.2806,8.2806,8.2806,3.5898,3.7793,3.9491,3.9394,4.1211,4.3183,4.3613,4.5373,4.8448,5.3854,5.3319,5.261,5.5142,5.6447,5.6813,5.5749,5.7799,5.9483,5.9483,5.9483,5.9859,6.0814,6.111,6.1542,6.2476,6.2701,6.2576,6.2044,6.1843,6.1341,6.0342,6.0537,6.0563,6.0317,6.109,6.1667,6.1994,6.2375,6.2651,6.2802,6.2802,6.2802,6.2802,6.2802,6.2802,6.2802,6.2802,6.2802,6.2802,6.2802,6.2802,6.2802,6.2802,6.2802,6.2852,6.3299,6.3425,6.3475,6.3852,6.3998,6.4023,6.4199,6.4249,6.43,6.445,6.4496,6.4496,6.4496,6.4396,6.4375,6.4927,6.4526,6.3998,6.3998,6.5753,6.798,7.001,7.2962,7.579,7.7831,7.9118,7.9836,7.9548,7.9489,7.9638,8.0027,7.9758,7.9578,7.9788,7.9208,7.8968,7.9429,8.0105,8.0764,8.1471,8.2099,8.2597,8.2776,8.2806,8.2806,8.2806,8.2806,8.2806,8.2806,8.2806,8.2806,8.2806,8.2806,8.2806,8.2806,8.2806,8.2806,3.7656,3.9512,4.1172,4.1152,4.2637,4.4238,4.4648,4.6652,4.991,5.5121,5.4127,5.3305,5.6544,5.7594,5.778,5.7248,5.8478,5.9558,5.9784,5.9633,5.9985,6.1341,6.1336,6.1617,6.2701,6.2802,6.2676,6.2325,6.2119,6.1617,6.0713,6.0989,6.1034,6.0663,6.1542,6.2099,6.232,6.2651,6.2802,6.2802,6.2802,6.2927,6.3153,6.2902,6.2802,6.2802,6.2802,6.2802,6.2802,6.2802,6.2802,6.2807,6.3053,6.3153,6.3229,6.3822,6.4023,6.4073,6.4396,6.4496,6.4547,6.4752,6.4827,6.4852,6.5078,6.5128,6.5179,6.543,6.5329,6.5279,6.5832,6.5555,6.5078,6.4877,6.7127,6.9621,7.0856,7.4412,7.7751,7.896,8.0285,8.0973,8.0296,8.0434,8.0494,8.0237,7.9967,7.9698,7.9447,7.9297,7.9357,7.9758,8.0644,8.1381,8.177,8.2417,8.2806,8.2806,8.2806,8.2806,8.2806,8.2806,8.2806,8.2806,8.2806,8.2806,8.2806,8.2806,8.2806,8.2806,8.2806,8.2806,4.1074,4.2227,4.338,4.453,4.4355,4.4316,4.5937,4.8009,5.0799,5.5026,5.4009,5.3825,5.8621,5.7555,5.6735,5.9092,5.9483,5.9684,6.0217,5.9885,6.0186,6.1818,6.1567,6.1667,6.2701,6.2802,6.2802,6.2802,6.235,6.1868,6.1386,6.1411,6.1436,6.1436,6.1943,6.2446,6.2877,6.2877,6.2852,6.2802,6.2802,6.3103,6.3676,6.3128,6.2877,6.2877,6.2877,6.2852,6.2802,6.2802,6.2852,6.2927,6.3475,6.3726,6.3847,6.4375,6.4551,6.4576,6.4626,6.4647,6.4726,6.5229,6.5358,6.5459,6.6036,6.6187,6.6312,6.6912,6.6639,6.6338,6.6937,6.6614,6.6086,6.5634,6.8763,7.1858,7.1858,7.6134,7.9967,7.9967,8.0973,8.162,8.1003,8.1302,8.1411,8.0734,8.0105,7.9489,7.8968,7.9399,7.9848,7.9967,8.1063,8.183,8.189,8.2447,8.2806,8.2806,8.2806,8.2806,8.2806,8.2806,8.2806,8.2806,8.2806,8.2806,8.2806,8.2806,8.2806,8.2806,8.2806,8.2806,3.8184,4.0644,4.3165,4.3438,4.4396,4.5451,4.6133,4.8009,5.0357,5.3065,5.316,5.4158,5.8676,5.9054,5.8849,5.9425,5.9483,5.9684,6.0217,6.0191,6.0593,6.1843,6.1893,6.2094,6.2752,6.2802,6.2802,6.2802,6.2701,6.2576,6.245,6.2898,6.3169,6.3169,6.3672,6.3822,6.35,6.35,6.3274,6.2802,6.2802,6.3103,6.3701,6.3576,6.35,6.35,6.35,6.3229,6.2802,6.2802,6.3078,6.3525,6.3651,6.3973,6.44,6.4927,6.5128,6.5204,6.5609,6.576,6.5785,6.5886,6.5936,6.6036,6.6635,6.6811,6.6937,6.7467,6.7216,6.6937,6.7467,6.7216,6.6887,6.7191,7.0249,7.3103,7.3103,7.7463,8.1362,8.1362,8.159,8.174,8.162,8.0823,8.0016,7.9327,7.9118,7.9148,7.9537,7.9698,8.0207,8.1242,8.162,8.2009,8.2537,8.2717,8.2806,8.2806,8.2806,8.2806,8.2806,8.2806,8.2806,8.2806,8.2806,8.2806,8.2806,8.2806,8.2806,8.2806,8.2806,8.2806,3.9414,4.1523,4.3595,4.4414,4.5177,4.5803,4.6211,4.7206,4.8655,5.0862,5.2156,5.3926,5.7292,5.7932,5.8266,5.9328,5.9709,6.0085,6.0638,6.0738,6.114,6.225,6.2149,6.2199,6.2752,6.2802,6.2802,6.2802,6.2802,6.2802,6.2802,6.3103,6.34,6.3676,6.3973,6.4099,6.4073,6.4073,6.3948,6.3601,6.3601,6.3776,6.4073,6.4073,6.4073,6.4073,6.4073,6.3898,6.3601,6.3601,6.3802,6.4099,6.4375,6.4651,6.4953,6.5484,6.5685,6.5735,6.599,6.609,6.609,6.609,6.609,6.619,6.6836,6.6987,6.7163,6.797,6.7995,6.7819,6.812,6.797,6.7769,6.7794,7.0937,7.3872,7.3872,7.805,8.171,8.1362,8.159,8.159,8.0943,8.0016,7.9208,7.8849,7.9058,7.9417,7.9758,8.0356,8.1033,8.174,8.2069,8.2417,8.2776,8.2806,8.2806,8.2806,8.2806,8.2806,8.2806,8.2806,8.2806,8.2806,8.2806,8.2806,8.2806,8.2806,8.2806,8.2806,8.2806,8.2806,4.0957,4.2539,4.4043,4.584,4.5996,4.5803,4.6211,4.6595,4.7273,4.8741,5.0799,5.3127,5.5734,5.6195,5.6916,5.9154,5.996,6.0512,6.1135,6.1285,6.1692,6.2676,6.24,6.23,6.2777,6.2802,6.2802,6.2802,6.2902,6.3003,6.3078,6.3178,6.3505,6.4103,6.4103,6.43,6.4626,6.4647,6.4547,6.435,6.4471,6.4547,6.4626,6.4726,6.4676,6.4521,6.4597,6.4597,6.4496,6.4496,6.4551,6.4676,6.5128,6.538,6.5484,6.5936,6.609,6.609,6.609,6.609,6.609,6.609,6.609,6.619,6.6836,6.6987,6.7213,6.8196,6.8399,6.8324,6.8324,6.8324,6.8309,6.8223,7.1321,7.4301,7.4301,7.8242,8.159,8.0913,8.1153,8.1063,7.9848,7.9267,7.8968,7.8968,7.9537,7.9997,8.0117,8.1093,8.183,8.1949,8.2477,8.2806,8.2806,8.2806,8.2806,8.2806,8.2806,8.2806,8.2806,8.2806,8.2806,8.2806,8.2806,8.2806,8.2806,8.2806,8.2806,8.2806,8.2806,8.2806,3.7988,4.0527,4.3692,4.5781,4.5996,4.5803,4.6211,4.7772,4.8719,4.7076,4.8505,5.1302,5.5446,5.6215,5.6916,5.9154,5.996,6.0512,6.1135,6.1592,6.2119,6.2727,6.2752,6.2727,6.2802,6.2802,6.2802,6.2802,6.3279,6.3776,6.4249,6.4705,6.5208,6.576,6.5785,6.5584,6.5204,6.5183,6.4726,6.3802,6.4274,6.4726,6.5229,6.5685,6.5383,6.4547,6.5003,6.4927,6.4496,6.4496,6.4777,6.5204,6.5258,6.5584,6.599,6.6065,6.609,6.609,6.609,6.609,6.609,6.609,6.609,6.619,6.6836,6.6987,6.7138,6.7744,6.7568,6.7213,6.7213,6.7213,6.7663,6.9383,7.2099,7.4301,7.4301,7.8242,8.159,8.0913,8.0405,7.9836,7.9058,7.9357,7.9668,7.9668,8.0255,8.0883,8.1471,8.168,8.2009,8.2597,8.2747,8.2806,8.2806,8.2806,8.2806,8.2806,8.2806,8.2806,8.2806,8.2806,8.2806,8.2806,8.2806,8.2806,8.2806,8.2806,8.2806,8.2806,8.2806,8.2806,3.8984,4.1426,4.3887,4.582,4.6172,4.6074,4.6269,4.7054,4.7468,4.6507,4.7076,4.9105,5.3558,5.4354,5.5584,5.9357,6.0437,6.0989,6.1567,6.2119,6.2526,6.2777,6.2802,6.2802,6.2802,6.2802,6.2802,6.2802,6.3375,6.3948,6.445,6.4726,6.5254,6.6065,6.581,6.5685,6.576,6.576,6.5509,6.5032,6.4978,6.5078,6.5329,6.5534,6.5559,6.5409,6.5634,6.5609,6.5383,6.5383,6.5534,6.576,6.576,6.5886,6.609,6.609,6.609,6.609,6.609,6.609,6.609,6.609,6.609,6.619,6.6836,6.6987,6.7113,6.7643,6.7618,6.7464,6.7464,6.7464,6.7982,7.0082,7.2494,7.4542,7.5363,7.8539,8.1033,8.0356,7.9997,7.9698,7.9417,7.9926,8.0356,8.0356,8.0913,8.1471,8.177,8.2129,8.2477,8.2776,8.2806,8.2806,8.2806,8.2806,8.2806,8.2806,8.2806,8.2806,8.2806,8.2806,8.2806,8.2806,8.2806,8.2806,8.2806,8.2806,8.2806,8.2806,8.2806,8.2806,3.9823,4.1601,4.3047,4.5117,4.5723,4.5898,4.623,4.6308,4.6308,4.6308,4.6308,4.7663,5.2073,5.2901,5.4515,5.9499,6.0814,6.1386,6.1918,6.245,6.2802,6.2802,6.2802,6.2802,6.2802,6.2802,6.2802,6.2802,6.3475,6.4073,6.4496,6.4626,6.5078,6.5886,6.5509,6.5484,6.5886,6.5911,6.5986,6.609,6.5559,6.5358,6.5484,6.5484,6.5735,6.609,6.609,6.609,6.609,6.609,6.609,6.609,6.609,6.609,6.609,6.609,6.609,6.609,6.609,6.609,6.609,6.609,6.609,6.6187,6.6614,6.6786,6.684,6.7267,6.7367,6.7367,6.7367,6.7367,6.8036,7.0746,7.2641,7.4497,7.6847,7.8885,8.0195,7.9848,7.9788,7.9848,8.0027,8.0614,8.1033,8.1033,8.162,8.2039,8.2039,8.2507,8.2806,8.2806,8.2806,8.2806,8.2806,8.2806,8.2806,8.2806,8.2806,8.2806,8.2806,8.2806,8.2806,8.2806,8.2806,8.2806,8.2806,8.2806,8.2806,8.2806,8.2806,8.2806,3.8594,3.9375,4.0137,4.3105,4.418,4.4824,4.6016,4.6308,4.6308,4.6308,4.6308,4.7663,5.2073,5.2901,5.4515,5.9499,6.0814,6.1386,6.1918,6.245,6.2802,6.2802,6.2802,6.2802,6.2802,6.2802,6.2802,6.2802,6.3827,6.445,6.4496,6.4978,6.5283,6.5333,6.5308,6.5308,6.5333,6.5333,6.5584,6.609,6.5559,6.5559,6.604,6.604,6.6065,6.609,6.609,6.609,6.609,6.609,6.609,6.609,6.609,6.609,6.609,6.609,6.609,6.609,6.609,6.609,6.609,6.609,6.609,6.609,6.6137,6.6162,6.614,6.6187,6.6187,6.6187,6.6187,6.6187,6.7248,7.1432,7.251,7.3896,7.8604,7.9255,7.9088,7.9668,7.9788,7.9997,8.0644,8.1302,8.174,8.174,8.2327,8.2747,8.2747,8.2776,8.2806,8.2806,8.2806,8.2806,8.2806,8.2806,8.2806,8.2806,8.2806,8.2806,8.2806,8.2806,8.2806,8.2806,8.2806,8.2806,8.2806,8.2806,8.2806,8.2806,8.2806,8.2806,3.8516,3.9199,3.9805,4.2246,4.3652,4.4512,4.498,4.5723,4.6308,4.6308,4.6308,4.7208,5.023,5.0778,5.3004,5.9771,5.9868,5.9882,6.2192,6.2676,6.2802,6.2802,6.2802,6.2802,6.2802,6.2802,6.2802,6.2802,6.3178,6.3425,6.3425,6.3952,6.445,6.4777,6.5128,6.5459,6.581,6.581,6.5911,6.609,6.5911,6.5911,6.609,6.609,6.609,6.609,6.609,6.609,6.609,6.609,6.609,6.609,6.609,6.609,6.609,6.609,6.609,6.609,6.609,6.609,6.609,6.609,6.609,6.609,6.609,6.609,6.609,6.609,6.609,6.609,6.609,6.609,6.7167,7.1491,7.4552,7.7145,7.9346,7.9608,7.9489,7.9758,8.0476,8.1153,8.1411,8.2009,8.2447,8.2447,8.2657,8.2806,8.2806,8.2806,8.2806,8.2806,8.2806,8.2806,8.2806,8.2806,8.2806,8.2806,8.2806,8.2806,8.2806,8.2806,8.2806,8.2806,8.2806,8.2806,8.2806,8.2806,8.2806,8.2806,8.2806,8.2806,3.7637,3.834,3.9043,4.1055,4.2246,4.3183,4.4336,4.5039,4.5605,4.6191,4.6308,4.7186,5.0167,4.9489,5.0783,5.7782,5.9122,5.9845,6.1413,6.2306,6.2802,6.2802,6.2802,6.2802,6.2802,6.2802,6.2802,6.2802,6.2802,0.0,6.2802,6.3178,6.3747,6.4496,6.4852,6.538,6.609,6.609,6.609,6.609,6.609,6.609,6.609,6.609,6.609,6.609,6.609,6.609,6.609,6.609,6.609,6.609,6.609,6.609,6.609,6.609,6.609,6.609,6.609,6.609,6.609,6.609,6.609,6.609,6.609,6.609,6.609,6.609,6.609,6.609,6.609,6.7167,6.9028,7.2097,7.6069,7.9327,7.9967,7.9967,7.9937,8.0386,8.1183,8.186,8.2099,8.2507,8.2806,8.2806,8.2806,8.2806,8.2806,8.2806,8.2806,8.2806,8.2806,8.2806,8.2806,8.2806,8.2806,8.2806,8.2806,8.2806,8.2806,8.2806,8.2806,8.2806,8.2806,8.2806,8.2806,8.2806,8.2806,8.2806,8.2806,8.2806,0.0,0.0,0.0,3.9414,3.9883,4.0781,4.41,4.4217,4.4141,4.5879,4.623,4.7539,5.1907,4.9254,4.8118,5.333,5.8399,6.1165,5.9637,6.1304,6.272,6.2781,6.2802,6.2802,6.2802,6.2802,6.2802,6.2802,6.2802,6.2802,6.2802,6.2852,6.3375,6.4471,6.4547,6.5053,6.6086,6.609,6.609,6.609,6.609,6.609,6.609,6.609,6.609,6.609,6.609,6.609,6.609,6.609,6.609,6.609,6.609,6.609,6.609,6.609,6.609,6.609,6.609,6.609,6.609,6.609,6.609,6.609,6.609,6.609,6.609,6.609,6.609,6.609,6.609,6.9259,7.2664,7.3332,7.6722,7.9997,8.0674,8.0315,8.0237,8.156,8.183,8.2039,8.2687,8.2806,8.2806,8.2806,8.2806,8.2806,8.2806,8.2806,8.2806,8.2806,8.2806,8.2806,8.2806,8.2806,8.2806,8.2806,8.2806,8.2806,8.2806,8.2806,8.2806,8.2806,8.2806,8.2806,8.2806,8.2806,8.2806,8.2806,8.2806,8.2806,3.6208,0.0,0.0,0.0,0.0,0.0,4.1172,4.1836,4.2715,4.4141,4.4414,4.5186,4.7659,4.875,4.9189,4.9019,5.1873,5.5914,6.1099,6.0927,6.0886,6.2597,6.2802,6.2802,6.2802,6.2802,6.2802,0.0,6.2802,6.2802,6.2802,6.3576,6.4174,6.4496,6.5254,6.5609,6.5509,6.5911,6.609,6.609,6.609,6.609,6.609,6.609,6.609,6.609,6.609,6.609,6.609,6.609,6.609,6.609,6.609,6.609,6.609,6.609,6.609,6.609,6.609,6.609,6.609,6.609,6.609,6.609,6.609,6.609,6.609,6.609,6.609,6.609,6.609,6.9259,7.2664,7.3332,7.6722,8.0117,8.1272,8.1381,8.1381,8.174,8.2189,8.2597,8.2776,8.2806,8.2806,8.2806,8.2806,8.2806,8.2806,8.2806,8.2806,8.2806,8.2806,8.2806,8.2806,8.2806,8.2806,8.2806,8.2806,8.2806,8.2806,8.2806,8.2806,8.2806,8.2806,8.2806,8.2806,8.2806,8.2806,8.2806,8.2806,8.2806,0.0,0.0,3.7441,3.8047,0.0,0.0,4.0937,4.1406,4.2168,4.4336,4.4785,4.5376,4.731,4.899,4.9992,4.977,5.0469,5.2693,5.7486,5.9673,6.0886,6.1284,6.2178,6.2802,6.2802,6.2802,6.2802,6.2802,6.2601,6.2551,6.2802,6.3676,6.4274,6.4496,6.5308,6.5609,6.5283,6.5835,6.609,6.609,6.609,6.609,6.609,6.609,6.609,6.609,6.609,6.609,6.609,6.609,6.609,6.609,6.609,6.609,6.609,6.609,6.609,6.609,6.609,6.609,6.614,6.6388,6.6488,6.6513,6.6739,6.6815,6.6764,6.6538,6.6287,6.609,6.609,6.9259,7.2719,7.3656,7.7116,8.0584,8.1919,8.2238,8.2238,8.2238,8.2537,8.2806,8.2806,8.2806,8.2806,8.2806,8.2806,8.2806,8.2806,8.2806,8.2806,8.2806,8.2806,8.2806,8.2806,8.2806,8.2806,8.2806,8.2806,8.2806,8.2806,8.2806,8.2806,8.2806,8.2806,8.2806,8.2806,8.2806,8.2806,8.2806,8.2806,8.2806,0.0,0.0,0.0,0.0,3.7987,0.0,4.1758,4.1641,4.1738,4.4922,4.5586,4.6248,4.8395,4.8838,4.966,5.2058,5.1445,5.1112,5.2231,5.7725,6.1031,5.9403,6.111,6.2409,6.2409,6.2659,6.2802,6.2802,6.2425,6.2446,6.3053,6.3601,6.4099,6.4551,6.5103,6.5358,6.5283,6.5835,6.609,6.609,6.609,6.609,6.609,6.609,6.609,6.609,6.609,6.609,6.609,6.609,6.609,6.609,6.609,6.609,6.609,6.609,6.609,6.609,6.609,6.614,6.6287,6.6836,6.7037,6.7188,6.7643,6.7794,6.7693,6.7238,6.6664,6.6212,6.6212,6.9386,7.2905,7.4118,7.7742,8.1242,8.2537,8.2806,8.2806,8.2806,8.2806,8.2806,8.2806,8.2806,8.2806,8.2806,8.2806,8.2806,8.2806,8.2806,8.2806,8.2806,8.2806,8.2806,8.2806,8.2806,8.2806,8.2806,8.2806,8.2806,8.2806,8.2806,8.2806,8.2806,8.2806,8.2806,8.2806,8.2806,8.2806,8.2806,8.2806,8.2806,0.0,0.0,0.0,0.0,0.0,0.0,3.8828,3.8712,3.9043,4.0781,4.1152,4.17,4.3476,4.4113,4.4415,4.4583,4.7341,5.1159,5.6015,5.5382,5.5482,5.8338,5.9446,5.9982,5.9982,6.168,6.2802,6.2802,6.3149,6.3776,6.4756,6.4906,6.5053,6.5153,6.566,6.5735,6.5283,6.5835,6.609,6.609,6.609,6.609,6.609,6.609,6.609,6.609,6.609,6.609,6.609,6.609,6.609,6.609,6.609,6.609,6.609,6.609,6.609,6.609,6.609,6.6413,6.6836,6.6962,6.7288,6.7668,6.7769,6.7794,6.7769,6.7668,6.7263,6.6836,6.6836,7.0034,7.347,7.4222,7.8079,8.183,8.2627,8.2806,8.2806,8.2806,8.2806,8.2806,8.2806,8.2806,8.2806,8.2806,8.2806,8.2806,8.2806,8.2806,8.2806,8.2806,8.2806,8.2806,8.2806,8.2806,8.2806,8.2806,8.2806,8.2806,8.2806,8.2806,8.2806,8.2806,8.2806,8.2806,8.2806,8.2806,8.2806,8.2806,8.2806,8.2806,0.0,0.0,0.0,3.8203,0.0,0.0,0.0,3.9044,3.9336,4.084,4.1152,4.1328,4.1972,4.336,4.3959,4.2621,4.5943,4.9583,5.2117,5.3063,5.3887,5.4988,5.6369,5.7795,5.9177,6.0362,6.1556,6.272,6.3078,6.3726,6.4852,6.4902,6.5028,6.5283,6.5835,6.5835,6.5329,6.5835,6.609,6.609,6.609,6.609,6.609,6.609,6.609,6.609,6.609,6.609,6.609,6.609,6.609,6.609,6.609,6.609,6.609,6.609,6.609,6.609,6.609,6.6488,6.7037,6.7314,6.7769,6.8249,6.8525,6.8399,6.8221,6.8221,6.7819,6.7414,6.7414,7.062,7.4058,7.4699,7.8405,8.1979,8.2657,8.2806,8.2806,8.2806,8.2806,8.2806,8.2806,8.2806,8.2806,8.2806,8.2806,8.2806,8.2806,8.2806,8.2806,8.2806,8.2806,8.2806,8.2806,8.2806,8.2806,8.2806,8.2806,8.2806,8.2806,8.2806,8.2806,8.2806,8.2806,8.2806,8.2806,8.2806,8.2806,8.2806,8.2806,8.2806,0.0,0.0,0.0,0.0,0.0,3.84,0.0,0.0,0.0,0.0,4.1465,4.1309,4.0996,4.272,4.36,4.1817,4.4502,4.6551,0.0,4.9508,0.0,5.1135,5.3105,5.5357,5.7515,5.8061,5.9523,6.2572,6.213,6.2558,6.4379,6.4496,6.4802,6.5434,6.5886,6.5886,6.5459,6.5886,6.609,6.609,6.609,6.609,6.609,6.609,6.609,6.609,6.609,6.609,6.609,6.609,6.609,6.609,6.609,6.609,6.609,6.609,6.609,6.609,6.609,6.6564,6.7238,6.7643,6.8224,6.8826,6.9255,6.908,6.8751,6.8751,6.8374,6.7945,6.7945,7.0866,7.4067,7.5054,7.8389,8.1628,8.2592,8.2806,8.2806,8.2806,8.2806,8.2806,8.2806,8.2806,8.2806,8.2806,8.2806,8.2806,8.2806,8.2806,8.2806,8.2806,8.2806,8.2806,8.2806,8.2806,8.2806,8.2806,8.2806,8.2806,8.2806,8.2806,8.2806,8.2806,8.2806,8.2806,8.2806,8.2806,8.2806,8.2806,8.2806,8.2806,0.0,0.0,0.0,0.0,3.8242,0.0,0.0,0.0,0.0,0.0,0.0,0.0,0.0,0.0,0.0,0.0,0.0,0.0,4.1245,4.2724,4.5007,4.8296,5.0715,5.2076,5.2042,5.354,5.6815,6.2391,5.9837,5.9902,6.4287,6.4496,6.4953,6.5986,6.6086,6.6086,6.599,6.6086,6.609,6.609,6.609,6.609,6.609,6.609,6.609,6.609,6.609,6.609,6.609,6.609,6.609,6.609,6.609,6.609,6.609,6.609,6.609,6.609,6.609,6.6815,6.7719,6.7769,6.8475,6.9306,6.9381,6.9356,6.9306,6.9306,6.8926,6.85,6.85,7.0329,7.2716,7.4815,7.7541,8.0239,8.2348,8.2806,8.2806,8.2806,8.2806,8.2806,8.2806,8.2806,8.2806,8.2806,8.2806,8.2806,8.2806,8.2806,8.2806,8.2806,8.2806,8.2806,8.2806,8.2806,8.2806,8.2806,8.2806,8.2806,8.2806,8.2806,8.2806,8.2806,8.2806,8.2806,8.2806,8.2806,8.2806,8.2806,8.2806,8.2806,0.0,0.0,0.0,0.0,0.0,0.0,3.8143,0.0,3.7834,0.0,0.0,0.0,0.0,0.0,0.0,0.0,3.8789,0.0,0.0,0.0,4.2585,4.5006,0.0,0.0,5.012,5.2503,5.5795,6.0431,5.8373,5.9001,6.3769,6.4048,6.4526,6.5609,6.5936,6.609,6.609,6.609,6.609,6.609,6.609,6.609,6.609,6.609,6.609,6.609,6.609,6.609,6.609,6.609,6.609,6.609,6.609,6.609,6.609,6.609,6.609,6.614,6.6488,6.7141,6.7894,6.8525,6.9029,6.9406,6.9406,6.9406,6.9406,6.9406,6.923,6.9055,6.9055,7.1683,7.4587,7.5524,7.8643,8.1619,8.2587,8.2806,8.2806,8.2806,8.2806,8.2806,8.2806,8.2806,8.2806,8.2806,8.2806,8.2806,8.2806,8.2806,8.2806,8.2806,8.2806,8.2806,8.2806,8.2806,8.2806,8.2806,8.2806,8.2806,8.2806,8.3147,8.3177,8.2806,8.3147,8.3147,8.2806,8.2806,8.2806,8.2806,8.2806,8.2806,3.8359,0.0,0.0,0.0,0.0,0.0,0.0,0.0,0.0,0.0,0.0,0.0,0.0,0.0,0.0,0.0,0.0,3.8574,0.0,3.9433,4.0781,0.0,0.0,0.0,0.0,5.0348,5.313,5.8376,5.6638,5.7782,6.3401,6.3847,6.435,6.5279,6.5835,6.609,6.609,6.609,6.609,6.609,6.609,6.609,6.609,6.609,6.609,6.609,6.609,6.609,6.609,6.609,6.609,6.609,6.609,6.609,6.609,6.609,6.619,6.6413,6.6861,6.7464,6.817,6.908,6.9406,6.9406,6.9406,6.9406,6.9406,6.9406,6.9406,6.9406,6.9406,7.2289,7.5346,7.5951,7.9043,8.2032,8.2663,8.2806,8.2806,8.2806,8.2806,8.2806,8.2806,8.2806,8.2806,8.2806,8.2806,8.2806,8.2806,8.2806,8.2806,8.2806,8.2806,8.2806,8.2806,8.2806,8.2806,8.2806,8.2806,8.2806,8.2806,8.3217,8.3337,8.3057,8.3307,8.3337,8.3057,8.2896,8.2806,8.2806,8.2806,8.2806,0.0,0.0,0.0,3.7832,0.0,0.0,0.0,0.0,3.8338,0.0,0.0,0.0,0.0,0.0,0.0,0.0,0.0,0.0,0.0,0.0,3.8497,3.9844,0.0,0.0,0.0,4.5433,4.7352,0.0,5.4161,5.5544,6.3289,6.4199,6.4726,6.5283,6.5835,6.609,6.609,6.609,6.609,6.609,6.609,6.609,6.609,6.609,6.609,6.609,6.609,6.609,6.609,6.609,6.609,6.609,6.609,6.609,6.609,6.609,6.6463,6.6962,6.6987,6.7693,6.8675,6.9205,6.9406,6.9406,6.9406,6.9406,6.9406,6.9406,6.9406,6.9406,6.9406,7.1133,7.3448,7.5576,7.7848,8.0111,8.231,8.2806,8.2806,8.2806,8.2806,8.2806,8.2806,8.2806,8.2806,8.2806,8.2806,8.2806,8.2806,8.2806,8.2806,8.2806,8.2806,8.2806,8.2806,8.2806,8.2806,8.2806,8.2806,8.2806,8.2806,8.2806,8.3087,8.3658,8.3117,8.3117,8.3658,8.3087,8.2806,8.2806,8.2806,8.2806,0.0,0.0,4.1953,3.9238,0.0,0.0,0.0,0.0,0.0,0.0,0.0,0.0,0.0,0.0,0.0,0.0,0.0,0.0,0.0,0.0,3.8283,3.9316,4.1094,4.2624,4.3578,0.0,0.0,0.0,5.5241,0.0,6.283,6.3651,6.4224,6.4752,6.5283,6.5735,6.609,6.609,6.609,6.609,6.609,6.609,6.609,6.609,6.609,6.609,6.609,6.609,6.609,6.609,6.609,6.609,6.609,6.609,6.609,6.609,6.6237,6.6513,6.7267,6.8224,6.9155,6.9331,6.9406,6.9406,6.9406,6.9406,6.9406,6.9406,6.9406,6.9406,6.9406,7.1089,7.3362,7.5555,7.7787,8.0032,8.231,8.2806,8.2806,8.2806,8.2806,8.2806,8.2806,8.2806,8.2806,8.2806,8.2806,8.2806,8.2806,8.2806,8.2806,8.2806,8.2806,8.2806,8.2806,8.2806,8.2806,8.2806,8.2806,8.2967,8.3397,8.3397,8.3707,8.4365,8.3707,8.3707,8.4365,8.3326,8.2997,8.3397,8.2997,8.2806,4.2891,4.3437,0.0,4.0801,4.1074,0.0,3.828,0.0,0.0,0.0,0.0,0.0,0.0,0.0,0.0,0.0,0.0,0.0,0.0,3.7715,0.0,3.8906,4.0098,4.1133,4.1797,4.3876,4.7157,5.1909,5.398,5.6936,6.1326,6.2916,6.3948,6.4496,6.5028,6.5559,6.609,6.609,6.609,6.609,6.609,6.609,6.609,6.609,6.609,6.609,6.609,6.609,6.609,6.609,6.609,6.609,6.609,6.609,6.609,6.609,6.6363,6.684,6.7769,6.8675,6.9406,6.9406,6.9406,6.9406,6.9406,6.9406,6.9431,6.9654,6.9579,6.9456,6.9654,7.1836,7.4339,7.5764,7.8393,8.1009,8.2492,8.2806,8.2806,8.2806,8.2806,8.2806,8.2806,8.2806,8.2806,8.2806,8.2806,8.2806,8.2806,8.2806,8.2806,8.2806,8.2806,8.2806,8.2806,8.2806,8.2896,8.3117,8.3117,8.3397,8.4036,8.4066,8.4275,8.4694,8.4275,8.4275,8.4694,8.3895,8.3666,8.4036,8.3397,8.3117]}]]